GFSGL_925_thetae_000.txt.gz
Theta_e
338 336 335 334 335 334 333 334 335 334 334 333 334 334 333 333 333 332 332 330 330 331 331 332 334 335 336 337 339 342 343 343 345 339 338 338 343 346 346 347 348 349 349
336 335 334 334 335 333 333 333 333 333 333 333 333 335 334 333 333 333 332 331 331 330 330 331 332 333 335 338 338 338 340 340 342 345 338 340 342 344 346 347 349 347 348
334 333 333 334 334 333 332 331 331 332 332 333 334 333 332 333 332 332 332 330 329 328 328 327 328 329 332 335 338 338 337 339 340 342 341 339 339 341 344 346 347 347 347
332 332 333 334 334 333 332 332 332 333 333 334 334 333 333 333 332 332 331 329 328 327 325 324 324 327 331 335 336 339 338 338 340 340 341 339 339 341 344 346 348 346 347
333 333 333 334 334 332 333 334 333 333 332 332 331 332 331 331 331 331 328 329 327 326 325 323 323 323 324 327 329 337 338 339 338 340 340 338 340 341 344 345 346 347 346
335 334 333 334 336 336 334 334 333 331 330 331 330 330 331 331 330 324 324 327 326 326 326 322 322 322 322 323 323 327 333 338 340 340 338 340 341 341 341 343 345 346 348
336 334 334 336 336 335 332 332 331 332 331 329 329 329 330 330 329 324 321 326 326 325 325 324 320 320 322 322 322 323 325 332 335 340 339 339 341 341 341 343 344 346 347
335 335 334 335 335 334 332 330 330 331 330 329 328 329 328 327 326 326 323 326 327 326 325 325 323 320 321 320 320 320 322 326 336 335 339 338 339 340 340 342 345 346 346
333 334 333 334 334 334 332 331 331 330 327 326 328 329 328 327 325 327 324 327 328 326 327 322 323 323 321 320 320 321 321 327 331 337 337 338 339 339 340 341 344 347 346
332 332 331 333 334 333 332 331 330 329 327 327 327 327 328 326 326 325 326 326 327 326 326 324 321 322 318 317 321 320 322 323 333 337 337 337 337 338 338 337 343 345 346
332 330 330 334 335 335 331 331 329 330 328 328 328 328 327 324 327 324 324 326 327 327 324 323 322 322 320 320 322 323 322 325 331 336 338 338 338 337 338 337 338 341 342
332 333 335 335 334 330 334 331 329 329 326 328 328 327 325 325 326 325 323 323 322 323 324 325 323 322 321 321 321 323 323 324 333 337 337 337 337 339 339 339 339 338 340
339 336 334 330 331 334 333 332 329 328 326 325 325 325 325 324 324 325 321 323 318 318 321 324 321 321 321 322 321 324 322 323 322 322 328 333 337 338 338 339 339 341 342
334 334 331 333 333 333 330 329 328 325 326 326 325 325 324 324 324 322 320 321 322 319 319 323 323 321 322 321 323 323 323 321 322 322 322 323 326 335 337 339 341 341 342
333 332 332 331 331 330 331 327 326 323 323 323 325 324 324 323 320 319 319 315 317 318 319 324 321 319 313 316 319 323 323 323 321 320 320 321 322 324 324 332 336 339 339
332 330 329 328 327 326 326 324 319 319 320 320 319 319 319 314 316 319 316 316 319 319 323 318 315 313 309 308 308 313 317 322 324 322 320 320 320 322 324 323 325 329 327
331 329 327 326 325 327 328 325 316 315 314 314 314 314 311 310 314 316 317 314 314 318 318 315 315 313 309 305 308 308 309 313 319 321 322 323 321 320 320 324 324 326 325
328 325 325 326 327 327 326 324 322 319 319 319 313 311 308 308 310 312 314 315 316 314 312 312 311 312 311 310 308 309 308 309 313 315 316 319 321 323 323 320 320 319 320
326 326 328 326 322 320 317 315 314 315 316 317 317 314 312 311 310 310 311 314 313 311 310 309 307 306 305 306 308 310 310 309 308 310 314 316 317 319 324 324 324 322 319
323 323 322 322 319 317 314 313 313 312 313 314 313 312 312 312 311 310 308 309 308 305 303 303 303 303 303 303 304 304 307 306 308 309 309 311 313 317 318 322 325 324 324
323 322 319 318 315 314 313 314 314 313 312 311 308 305 306 308 307 305 305 304 301 301 302 301 295 294 294 294 296 300 302 301 304 306 308 310 309 310 315 318 320 321 323
320 320 319 317 315 314 313 312 312 310 310 309 307 304 304 306 304 304 303 301 299 299 300 299 297 295 293 292 291 292 296 298 299 302 306 307 307 307 310 313 318 317 316
316 314 314 313 312 309 310 310 310 309 308 307 306 305 304 305 303 300 299 300 300 300 300 299 297 296 295 295 293 291 291 293 295 298 301 304 305 305 308 306 309 314 315
312 311 311 310 309 309 308 307 307 305 305 304 303 303 303 302 303 300 299 299 300 298 296 295 294 293 292 291 291 289 287 287 292 295 297 298 298 300 303 305 307 306 305
310 309 308 308 306 306 305 305 305 304 303 302 301 301 300 299 299 298 298 297 296 295 293 292 292 292 291 289 288 286 285 286 288 292 295 295 295 296 297 298 301 302 303
307 306 305 304 303 304 304 304 303 302 301 300 299 298 297 297 296 296 295 295 294 293 292 291 291 291 290 288 285 285 285 285 288 291 293 294 295 293 295 296 296 296 297

GFSGL_925_thetae_003.txt.gz
Theta_e
340 339 337 335 335 336 335 334 335 336 336 336 335 334 335 335 335 335 335 334 333 334 333 330 331 331 330 332 335 336 339 342 346 341 340 337 342 342 340 347 348 348 347
338 338 336 336 336 335 335 334 334 334 334 334 334 335 335 334 333 335 335 334 334 332 331 330 329 328 329 329 330 336 338 339 341 343 342 340 343 343 342 346 348 349 348
336 337 336 336 336 336 336 334 333 333 334 334 334 334 334 334 334 335 334 334 332 332 330 329 328 327 325 325 324 335 336 338 338 341 341 341 340 342 344 346 346 347 346
334 333 334 335 337 337 336 335 335 334 334 334 333 333 333 333 333 334 334 333 331 331 329 329 327 325 324 321 322 325 328 335 338 339 341 341 340 341 343 344 346 345 346
334 334 335 335 337 337 336 335 334 334 333 332 332 332 331 331 330 333 333 331 330 330 329 329 327 324 321 321 322 322 323 325 326 341 340 341 340 340 341 342 345 346 347
336 336 335 335 336 336 336 335 334 333 331 331 331 330 331 330 329 330 328 328 329 329 328 328 328 325 321 321 319 319 321 323 325 326 340 342 343 341 341 342 345 347 352
337 337 336 336 337 337 334 334 333 333 332 332 331 330 330 330 329 328 327 327 328 329 329 328 327 326 325 323 317 319 321 322 323 325 328 337 340 341 340 341 344 346 347
337 337 336 336 336 336 335 334 333 332 333 332 331 329 330 329 328 326 327 327 327 328 330 328 328 324 325 323 319 319 320 322 323 325 331 332 336 341 340 338 344 343 346
337 337 337 336 336 336 335 334 332 333 332 331 330 329 330 330 330 327 326 327 327 329 328 327 326 323 322 322 319 319 321 322 324 324 325 328 336 339 339 344 340 347 348
337 336 336 335 334 335 334 334 333 332 331 330 328 327 328 329 329 327 325 326 327 328 328 327 324 322 323 322 320 321 322 323 321 322 327 330 334 337 338 338 344 342 346
336 335 335 334 334 334 336 334 331 333 332 332 329 329 330 329 328 327 323 324 326 327 326 324 324 324 322 321 320 321 322 322 322 327 330 336 338 339 340 338 338 342 343
337 335 334 334 335 331 332 335 335 332 332 331 327 327 324 319 327 325 323 322 323 322 322 323 324 323 321 321 322 322 322 320 321 323 334 338 341 340 340 341 339 340 340
339 337 336 337 333 332 332 336 334 331 330 327 327 326 326 325 326 325 323 321 321 322 323 321 322 323 321 319 321 323 321 322 320 320 322 323 326 340 341 341 341 340 340
341 341 340 337 336 335 335 332 330 329 328 325 325 326 324 325 323 320 320 321 321 322 323 322 325 321 316 314 316 321 319 319 322 320 319 321 323 328 336 338 341 341 342
338 336 334 332 333 331 333 330 327 324 323 323 323 323 323 323 318 317 319 316 317 319 319 324 321 317 312 312 312 314 317 319 319 321 320 320 320 323 324 331 338 341 342
335 333 331 330 328 327 328 325 321 321 320 319 319 318 317 316 316 316 318 316 315 318 320 321 320 317 313 309 311 311 312 314 318 319 320 322 321 320 320 321 324 328 326
333 330 328 326 326 328 329 329 326 317 317 316 316 315 314 312 314 315 316 315 315 317 320 319 317 315 313 312 311 311 311 312 314 317 319 320 322 323 319 319 320 320 322
330 327 325 325 329 329 328 326 326 325 322 318 314 313 313 312 311 312 314 316 317 317 316 314 312 311 309 308 308 310 310 312 311 310 315 316 321 322 324 320 319 319 321
327 327 328 328 326 324 323 320 319 316 316 316 317 314 313 313 312 312 314 315 314 312 311 310 308 307 306 307 307 307 308 308 309 312 312 312 313 318 322 323 322 321 321
326 326 326 325 323 322 320 318 316 316 315 314 313 312 312 313 310 310 309 309 308 307 304 302 299 297 296 297 298 302 304 304 307 309 310 311 311 313 316 321 323 323 323
324 324 323 322 320 318 317 315 316 317 315 313 309 306 307 308 308 307 306 306 304 304 305 305 301 297 295 294 294 295 299 302 301 304 309 309 308 308 310 313 320 320 317
323 323 322 321 319 318 317 315 315 313 312 311 308 305 306 306 305 305 306 306 305 304 305 303 302 299 299 297 296 295 295 297 300 302 303 305 306 309 309 309 312 315 314
319 318 316 315 315 312 312 313 312 312 311 309 309 307 306 305 304 303 303 304 304 303 301 300 298 298 297 296 294 292 291 293 297 299 300 300 302 303 307 310 310 309 309
312 312 312 312 312 311 311 311 310 307 307 307 306 305 305 305 305 303 303 303 302 299 298 297 296 295 294 293 292 290 287 290 294 295 297 298 298 300 300 302 306 306 307
313 312 311 311 310 309 309 307 307 307 306 305 304 304 303 302 301 301 300 299 298 297 295 295 295 294 292 290 288 287 286 290 292 294 296 298 297 298 299 299 299 299 301
311 310 309 308 307 306 306 306 306 305 305 303 302 301 301 300 299 298 298 297 297 296 295 294 294 294 292 289 286 286 286 290 293 294 296 297 297 296 297 298 299 299 299

GFSGL_925_thetae_006.txt.gz
Theta_e
340 341 339 335 335 337 337 336 335 336 336 337 336 336 335 335 335 334 333 334 333 334 333 332 331 329 328 328 327 326 326 326 332 334 336 339 341 340 339 340 344 347 346
342 340 339 337 336 336 336 336 335 335 334 334 334 334 334 335 335 333 334 334 334 333 333 331 331 329 327 325 324 323 323 324 325 334 335 338 340 341 338 338 342 342 342
341 340 338 337 337 337 337 337 336 335 334 335 335 334 334 334 334 334 334 333 334 334 333 330 330 328 326 325 323 321 322 322 323 325 333 337 339 340 340 342 343 340 339
340 339 338 337 337 338 337 338 336 335 335 335 334 334 333 334 333 334 333 333 332 333 331 330 329 328 326 323 322 321 319 320 322 322 326 331 338 339 340 340 343 343 343
336 336 336 336 337 338 338 337 336 335 336 335 333 333 334 334 333 332 332 330 331 330 331 330 329 328 327 326 324 323 320 319 321 322 324 326 330 338 340 339 341 343 345
338 336 336 336 337 338 338 338 337 336 335 333 333 334 332 333 331 330 328 328 328 327 328 329 328 327 327 326 324 324 323 319 320 321 323 323 325 331 338 340 340 343 345
337 337 337 337 337 338 337 337 336 335 333 333 333 334 333 332 332 330 327 326 326 328 328 329 328 327 325 324 324 325 323 320 320 321 323 324 325 327 333 339 340 339 341
340 340 339 338 338 339 338 336 335 335 334 333 333 333 331 331 330 329 327 327 327 328 329 328 327 326 325 326 323 323 322 320 321 322 323 323 324 326 329 337 339 338 342
341 341 341 339 339 339 339 338 336 335 333 334 333 332 331 329 329 330 327 327 329 327 328 328 328 325 324 324 322 321 320 321 322 321 321 321 322 323 326 332 337 338 341
340 341 341 340 340 339 339 337 336 334 333 325 332 333 332 331 329 326 325 320 322 326 326 327 326 325 324 322 321 321 321 321 320 321 321 324 325 323 323 325 333 339 337
340 341 340 340 339 337 337 336 336 334 328 331 333 331 331 328 326 322 325 324 324 325 324 324 324 324 323 322 319 321 320 319 321 321 320 322 330 329 325 327 334 342 339
340 339 339 339 338 337 335 335 332 332 333 333 331 330 326 327 327 324 325 325 322 321 323 324 323 321 323 318 319 320 318 319 319 321 320 321 322 332 331 336 336 338 339
343 342 340 339 337 337 335 333 335 335 334 332 330 329 327 326 322 324 322 321 320 321 322 323 322 323 317 316 318 319 319 317 318 319 321 322 321 323 336 338 339 338 337
345 345 342 341 340 338 335 336 334 333 330 329 327 327 326 324 324 320 317 318 319 320 321 321 323 318 315 313 313 315 317 317 318 319 320 321 321 320 322 332 340 341 340
345 344 341 340 338 336 332 330 330 324 323 324 322 322 321 321 315 316 316 318 316 315 318 321 321 318 314 312 312 313 313 313 315 318 319 320 321 320 320 322 326 332 340
339 338 337 335 332 333 330 321 322 322 321 320 319 318 316 316 316 315 316 317 316 315 317 319 317 315 313 310 311 311 312 313 312 314 317 317 322 321 320 320 321 321 322
335 334 331 328 328 331 330 331 327 320 320 320 318 315 313 312 312 313 314 316 317 316 317 315 313 312 311 309 308 309 309 310 312 313 313 315 316 322 321 320 320 320 320
332 330 328 326 328 330 330 328 327 327 325 322 317 314 313 312 312 313 315 318 316 314 312 311 309 308 306 306 306 307 306 307 310 311 312 312 313 316 323 322 321 320 320
329 329 329 329 328 326 325 323 322 321 321 319 318 315 313 312 311 311 311 312 312 310 308 305 302 300 298 298 300 301 303 304 305 308 310 310 310 311 313 321 322 322 321
328 325 326 327 324 324 322 321 320 319 317 317 315 310 310 311 310 310 309 308 308 307 305 302 299 298 297 296 296 298 299 302 303 304 307 308 310 310 311 315 317 317 320
326 325 324 324 323 320 319 318 317 317 317 315 311 307 308 309 308 308 307 307 307 307 307 305 303 302 300 298 296 296 297 298 301 302 302 303 304 310 310 310 312 314 311
324 323 322 323 321 320 319 319 316 315 314 312 310 307 307 307 306 306 307 307 307 306 305 303 302 300 299 297 294 293 293 296 298 299 301 300 301 304 307 310 309 309 309
323 322 320 315 314 313 313 314 314 314 313 312 311 309 307 307 306 305 305 306 305 303 301 299 298 297 296 294 292 290 291 293 295 296 299 299 300 301 300 304 305 307 308
316 315 314 314 314 313 313 312 312 310 309 309 309 307 307 307 306 305 304 304 302 299 298 298 296 294 293 291 290 289 291 293 295 297 298 300 297 299 300 300 300 300 304
315 315 314 314 313 312 310 310 310 309 308 307 307 306 305 304 303 303 301 300 299 298 297 296 296 294 292 289 287 287 291 293 295 296 298 297 298 297 299 299 300 300 300
314 313 312 311 310 309 308 308 308 308 307 306 305 304 303 302 301 300 299 299 298 297 297 296 296 295 293 290 287 287 288 292 295 296 297 296 295 296 296 298 298 299 300

GFSGL_925_thetae_009.txt.gz
Theta_e
342 339 341 342 339 337 338 337 336 335 337 336 336 335 335 334 335 335 335 333 333 334 333 332 331 331 329 326 324 321 320 321 321 321 322 323 328 334 335 339 340 341 341
342 341 342 336 335 336 337 336 335 335 335 334 332 333 334 334 333 333 333 332 333 333 332 330 331 331 329 326 323 320 321 320 321 319 320 322 324 327 334 337 339 339 339
340 342 341 339 337 336 336 336 336 335 335 334 334 335 334 333 332 332 333 332 332 331 331 331 331 330 329 327 324 321 321 322 320 319 319 321 322 324 327 335 338 339 340
341 341 340 338 336 336 336 336 337 335 335 335 336 334 334 333 333 333 333 333 332 329 328 332 331 330 329 328 327 326 325 324 322 319 319 320 321 323 325 329 336 338 339
342 342 340 338 336 337 337 337 338 336 335 335 335 334 332 333 333 333 330 329 329 329 329 326 328 329 328 328 327 326 326 324 322 320 319 320 321 321 323 325 328 336 338
342 341 339 338 336 336 337 337 337 336 335 336 334 333 333 333 332 331 331 329 327 326 327 326 327 328 327 326 325 323 325 325 324 321 320 321 321 322 322 322 325 331 337
341 339 338 336 336 336 337 337 339 338 337 334 332 334 331 332 331 329 330 328 327 327 327 327 327 327 326 325 324 323 324 323 322 321 321 321 322 322 322 322 323 327 335
337 337 336 336 336 336 337 338 337 337 335 333 333 332 332 333 331 331 328 327 326 326 326 327 327 327 326 325 324 323 321 321 321 321 321 320 320 321 321 321 322 325 330
336 336 336 336 336 336 338 338 338 337 335 334 333 332 333 332 330 329 326 322 324 322 321 323 326 326 325 324 322 321 320 320 319 319 319 320 320 321 321 321 323 326 329
336 338 337 338 338 339 339 338 338 337 335 334 334 327 331 330 329 328 323 324 324 324 324 323 321 324 323 322 322 319 320 318 317 318 319 319 320 321 323 325 322 328 330
338 339 339 339 339 338 338 338 339 336 336 333 328 331 330 330 329 326 324 324 324 323 321 321 321 324 321 321 318 319 319 317 317 317 318 319 320 322 323 325 322 323 330
340 340 340 340 340 339 339 339 338 337 334 329 331 331 329 328 325 324 323 323 321 320 320 321 322 320 320 317 317 318 319 317 317 317 318 319 320 321 320 324 323 323 325
343 342 342 341 340 341 340 338 335 331 330 327 330 330 329 325 322 324 321 318 318 320 320 319 319 318 316 315 315 315 316 315 315 316 318 318 319 321 321 330 327 323 326
327 332 328 326 341 340 337 334 333 332 331 330 328 326 326 324 321 319 317 317 319 317 317 319 318 316 314 313 313 313 313 313 313 313 315 317 318 321 321 321 326 334 333
326 325 323 339 338 337 335 332 330 324 324 324 321 321 320 318 316 316 316 316 316 315 317 318 316 312 311 310 310 309 309 310 312 313 314 315 316 320 321 320 320 321 325
326 327 337 337 337 334 329 326 322 322 320 319 318 318 317 315 313 313 314 315 316 316 315 313 312 311 310 309 308 308 308 308 309 311 312 312 313 317 321 320 320 320 320
338 336 334 331 330 330 324 322 318 316 317 318 315 314 313 312 312 313 315 315 315 314 312 310 309 308 306 305 304 305 304 305 307 308 310 310 311 315 318 320 320 319 320
334 332 330 329 330 330 329 327 324 320 318 317 315 313 312 311 311 312 314 313 311 309 307 305 303 302 301 301 301 302 303 303 303 304 308 308 310 312 315 318 318 320 319
332 330 329 329 327 325 323 322 321 321 320 318 315 313 312 311 310 309 311 309 307 305 304 301 299 298 297 296 298 299 301 301 302 303 303 304 307 310 311 314 314 315 316
328 324 325 327 324 323 322 320 320 318 317 315 313 311 310 310 309 308 308 307 307 307 305 304 302 301 299 297 296 296 298 299 300 300 301 301 304 308 309 309 310 310 312
328 324 324 324 322 321 319 317 317 317 317 313 310 308 308 308 308 307 307 307 307 307 305 304 302 301 299 295 294 293 295 298 298 298 298 299 301 302 306 307 308 308 309
325 322 324 322 321 319 319 318 318 316 315 311 309 307 307 307 306 306 306 306 306 304 302 301 298 296 294 294 291 291 294 296 297 298 298 298 300 300 300 301 305 306 307
323 323 322 321 319 317 317 316 315 315 314 312 310 308 307 307 306 304 306 306 303 300 299 298 297 295 293 292 289 292 294 295 296 297 299 297 298 299 300 300 300 303 304
318 317 314 314 314 313 313 312 311 312 311 309 310 309 307 307 306 304 304 303 300 298 297 297 296 293 291 289 288 292 294 295 296 297 297 297 297 298 298 299 300 300 301
316 315 315 315 314 313 312 310 310 310 308 307 307 306 307 307 306 304 303 300 299 297 296 296 295 294 290 288 288 290 293 295 296 296 295 296 296 296 297 297 299 299 299
314 315 314 313 311 311 309 308 307 308 307 306 306 305 304 303 301 300 299 299 298 297 296 296 295 295 294 290 288 288 290 294 296 295 295 294 295 294 295 296 297 298 297

GFSGL_925_thetae_012.txt.gz
Theta_e
336 338 335 335 337 336 336 336 333 333 334 336 336 335 334 334 334 333 333 334 333 332 333 333 332 331 330 329 327 323 319 320 319 320 319 320 320 319 319 321 324 330 334
331 338 336 338 340 339 338 337 335 334 334 334 334 333 332 333 333 333 332 332 333 332 332 331 330 330 331 330 328 325 322 321 321 321 320 320 320 319 319 321 323 325 333
334 339 338 340 342 339 336 336 336 335 334 334 333 333 334 334 333 332 331 332 331 332 331 330 330 330 330 330 329 328 326 324 323 321 321 320 319 319 319 320 321 323 327
340 340 339 341 337 335 335 336 335 335 335 334 334 334 335 334 333 333 333 332 330 332 331 328 327 329 329 329 329 328 327 326 325 321 320 320 319 319 319 320 321 321 322
342 342 340 341 337 337 334 334 335 335 336 335 335 335 335 333 332 333 332 330 330 328 328 328 327 326 328 328 328 327 327 326 324 323 321 321 320 320 320 320 321 322 321
341 342 342 341 339 337 335 335 335 336 337 336 334 335 334 332 332 332 332 330 328 327 326 326 326 326 326 327 327 326 326 326 324 323 323 321 321 320 320 321 321 320 321
342 341 341 340 339 337 336 336 336 336 336 336 335 336 333 333 331 332 330 330 328 326 327 327 327 326 326 327 326 325 324 323 322 321 321 320 320 320 320 321 321 321 321
341 341 341 340 339 337 336 336 336 336 337 338 337 334 333 331 332 330 330 328 326 323 324 324 322 325 326 326 324 323 322 321 321 319 318 318 318 318 319 319 320 320 321
340 340 340 340 339 337 336 336 336 337 338 337 336 334 333 332 329 329 329 327 324 323 322 324 323 321 323 323 322 321 321 321 320 318 317 318 318 318 318 319 320 321 321
339 340 340 339 337 337 336 336 336 337 337 337 335 333 329 330 329 329 328 324 323 323 324 322 320 321 323 321 320 319 317 318 319 317 318 319 319 318 318 319 322 322 321
338 338 336 337 337 336 336 336 336 338 338 334 332 328 322 327 329 327 325 324 324 323 320 320 320 321 320 319 318 316 314 316 318 317 316 318 318 318 318 320 321 323 322
337 338 339 339 338 338 337 338 338 337 334 333 329 326 321 329 327 325 324 322 320 319 319 320 320 318 316 316 315 315 315 315 315 314 315 316 317 317 318 320 323 323 322
337 338 338 335 329 334 339 340 337 334 330 329 330 325 327 326 324 323 322 318 317 318 316 317 317 315 314 314 314 312 313 312 313 313 313 314 315 316 317 321 322 323 322
332 328 329 328 325 326 330 337 335 332 331 331 330 329 326 323 321 320 319 317 316 316 316 317 315 314 312 312 311 310 310 310 310 311 312 313 314 316 317 320 320 323 322
327 328 329 325 330 335 334 333 332 330 327 327 324 323 324 321 318 317 316 315 315 314 318 317 313 311 311 309 308 307 307 307 307 310 311 311 312 313 316 319 320 320 321
326 324 325 326 333 330 326 324 322 320 320 319 319 318 316 315 313 312 313 313 314 315 314 312 310 309 307 305 304 305 304 304 305 308 309 309 311 312 315 317 318 320 321
323 323 327 332 331 330 326 322 317 317 318 316 315 314 313 312 311 313 315 315 314 313 311 308 306 304 303 302 302 301 301 302 303 303 304 306 308 311 313 314 315 316 319
334 334 332 328 329 328 323 321 320 318 316 314 313 312 312 311 311 311 312 312 310 308 306 304 301 298 298 299 299 299 300 301 301 301 302 303 306 309 310 311 312 313 315
331 329 329 329 329 327 325 324 322 319 318 315 313 312 312 311 310 309 310 309 307 304 302 301 300 299 297 296 296 297 299 299 299 299 300 301 303 306 308 309 309 311 313
326 327 327 327 325 322 322 322 322 320 319 315 314 313 311 310 308 308 307 307 306 305 304 302 301 299 297 295 293 294 298 297 298 298 299 299 300 301 304 306 308 308 310
327 324 326 323 323 321 320 319 319 317 316 314 314 310 308 308 308 307 307 307 306 306 304 302 301 299 296 294 290 292 296 296 297 297 298 299 299 300 301 303 305 306 308
327 325 324 324 322 320 318 317 316 316 316 314 311 307 308 306 306 307 306 306 306 303 301 300 297 295 294 292 293 295 295 296 297 297 297 298 299 299 300 300 302 302 304
323 322 323 321 320 319 318 318 317 316 315 313 309 307 307 306 304 305 306 305 301 300 299 298 296 295 293 290 293 294 295 296 296 296 296 297 298 299 299 299 299 300 301
322 321 321 320 319 317 314 313 311 313 313 312 309 308 307 306 305 304 305 302 299 298 297 296 295 291 289 289 292 294 294 295 296 295 295 295 297 298 298 298 298 299 299
317 317 316 315 314 314 313 311 310 311 309 310 310 309 307 307 305 304 303 300 298 297 296 296 295 293 289 289 289 292 294 295 295 294 295 295 295 296 297 297 297 297 298
312 311 314 314 314 314 313 311 308 308 308 306 307 307 307 307 305 303 302 299 298 297 296 296 295 295 293 292 291 289 292 295 295 294 293 294 294 294 296 296 296 296 296

GFSGL_925_thetae_015.txt.gz
Theta_e
351 353 339 334 333 333 334 337 338 335 335 335 333 335 335 334 333 333 333 332 333 333 332 332 332 332 332 330 328 327 325 320 318 319 321 323 322 319 319 319 319 319 319
351 349 335 333 333 332 333 334 334 330 331 332 334 335 334 333 333 333 332 331 331 332 332 332 331 331 331 330 329 328 327 325 320 318 321 322 322 320 319 319 319 319 319
348 345 334 334 334 335 334 335 335 333 332 334 334 333 332 332 333 333 332 332 332 332 331 331 331 330 329 328 329 329 328 326 324 320 321 322 320 320 320 319 319 319 319
345 341 333 332 335 337 337 337 336 336 334 334 334 333 332 333 334 333 332 332 332 330 328 328 330 329 327 328 328 329 328 327 326 323 322 321 320 320 320 319 318 319 319
345 339 332 330 335 338 339 338 335 336 335 334 334 333 333 334 335 332 332 332 331 330 328 327 327 327 327 326 326 327 327 327 325 323 322 322 321 321 319 319 319 319 319
344 340 336 337 338 337 340 335 334 335 334 330 335 335 334 335 334 331 332 331 331 329 327 326 326 326 327 326 326 326 327 327 326 324 323 322 321 320 319 318 318 319 320
344 340 338 337 340 333 336 335 334 333 332 334 336 336 334 334 333 332 331 330 329 329 327 325 324 324 325 325 325 326 325 324 323 322 321 320 320 318 318 318 318 318 318
342 340 338 336 337 335 336 336 335 334 334 334 336 336 335 335 333 330 331 330 329 327 324 323 322 322 322 322 323 324 322 322 321 320 319 319 317 317 317 317 318 318 319
340 340 342 341 337 337 337 337 336 335 335 336 336 336 336 334 332 331 330 329 328 325 323 322 323 322 321 322 322 321 320 320 319 318 318 319 318 318 318 318 318 319 319
341 339 340 339 338 338 338 338 337 336 336 336 336 336 334 333 331 329 329 328 325 323 323 322 321 320 320 321 319 317 316 316 316 317 318 319 318 318 316 317 317 318 319
341 340 339 338 338 337 336 336 336 336 336 336 336 335 334 330 324 325 328 326 324 323 323 320 319 320 320 317 316 315 315 315 315 315 314 315 317 316 316 316 317 318 319
339 340 338 338 338 338 337 335 332 328 332 333 333 333 331 327 323 328 326 324 322 321 318 317 318 318 315 314 314 313 313 314 313 312 313 314 315 315 315 316 318 319 322
337 336 337 336 336 334 335 329 324 323 330 333 332 330 328 325 326 324 323 321 318 317 317 316 315 314 313 312 312 311 310 311 310 309 311 312 312 314 315 316 318 319 322
336 335 333 332 329 327 330 331 328 328 331 331 329 328 327 325 322 320 319 318 316 315 315 315 314 313 311 310 311 309 308 307 306 307 308 310 311 312 313 316 317 318 321
333 329 327 328 328 326 329 330 331 331 329 329 329 328 325 321 320 319 318 315 314 314 315 316 314 311 310 309 308 307 306 305 305 304 304 306 307 310 312 315 316 317 320
326 326 327 327 326 327 329 326 326 323 324 323 322 322 321 318 316 314 313 313 312 313 314 313 310 308 306 304 303 303 303 302 302 302 303 304 304 307 310 312 315 315 318
327 324 324 325 326 330 327 321 316 317 317 317 317 316 314 312 312 313 314 315 313 314 312 309 306 303 302 301 300 300 300 300 300 301 302 303 303 305 308 310 312 313 315
324 324 325 327 330 329 325 320 317 314 313 312 313 313 312 311 311 311 312 313 311 310 308 305 301 298 297 297 297 298 299 298 298 299 300 300 301 301 305 307 309 310 312
332 332 330 328 327 326 322 319 318 316 314 312 311 312 312 312 311 310 310 309 308 305 302 300 299 298 297 296 294 294 298 297 297 298 298 299 300 300 302 304 306 309 311
329 328 327 328 327 324 322 320 318 317 315 314 314 314 313 312 310 309 307 307 305 304 303 301 300 299 297 295 292 292 297 297 297 297 298 299 299 300 301 301 303 306 308
325 326 326 326 325 324 323 322 321 320 318 317 316 314 312 310 309 308 307 306 306 305 304 302 301 299 295 292 293 295 296 296 296 296 297 298 299 299 300 301 301 303 305
327 325 325 324 323 321 321 320 320 319 317 316 314 312 309 307 306 306 307 306 305 305 304 301 298 296 294 291 295 295 296 296 296 296 296 297 298 299 299 299 299 300 301
327 325 323 323 321 320 319 317 316 316 315 315 313 309 308 306 305 305 306 305 304 303 300 297 295 294 292 290 294 295 295 295 295 295 295 296 297 298 298 299 298 299 299
323 323 322 321 320 318 317 317 316 314 316 314 312 310 308 306 305 304 305 305 302 299 297 296 294 290 289 290 294 294 295 295 294 294 294 295 297 297 298 298 297 298 298
321 320 321 321 321 319 317 314 311 311 312 313 313 311 308 306 305 304 305 303 300 298 296 295 295 291 289 289 290 293 294 295 294 293 294 294 296 296 296 296 296 297 297
311 311 314 314 314 313 312 312 310 310 310 310 311 311 309 307 306 304 304 301 299 297 296 295 295 293 293 293 291 289 292 295 294 293 293 293 295 295 295 295 295 295 295

GFSGL_925_thetae_018.txt.gz
Theta_e
349 350 350 351 344 332 330 329 332 334 334 333 334 335 334 334 334 333 332 333 332 331 332 332 331 331 331 331 330 329 326 323 320 323 322 324 324 325 322 318 319 319 317
350 349 349 350 340 330 331 331 334 336 336 335 335 333 334 334 334 333 332 332 331 330 331 331 331 331 331 331 330 330 329 327 323 323 323 322 323 325 323 321 320 320 318
349 348 347 348 333 332 331 330 334 336 335 333 332 333 334 333 332 332 332 332 331 331 331 331 329 331 331 330 329 328 328 328 326 322 323 323 323 323 323 322 321 321 319
348 347 344 343 334 333 333 334 335 334 333 331 332 333 333 331 332 333 333 333 331 332 331 329 328 328 329 328 327 327 326 327 326 323 322 323 323 323 322 321 320 320 319
347 344 339 335 334 333 332 332 332 337 335 335 333 333 333 332 332 333 334 332 331 331 330 329 327 326 327 326 327 327 325 326 325 323 324 324 323 323 322 321 320 319 319
344 341 339 336 334 327 333 334 328 334 338 336 335 333 333 333 333 333 334 331 332 331 329 328 327 326 325 324 326 326 326 326 325 324 324 323 323 322 321 320 319 318 320
344 340 337 335 331 331 336 331 329 336 338 336 335 334 334 333 333 333 334 332 331 331 329 329 327 324 322 322 322 323 324 325 324 324 324 322 321 320 320 319 318 318 318
344 339 336 332 331 334 332 331 331 333 335 334 335 334 332 334 334 334 333 332 331 331 329 327 324 322 322 323 321 321 322 322 321 319 318 317 317 318 318 318 317 317 317
342 339 336 333 333 334 335 335 334 333 334 334 334 333 334 335 335 333 331 329 329 329 327 323 322 323 323 320 320 321 321 320 318 317 316 316 316 317 317 317 317 317 317
341 340 338 336 334 336 337 336 335 334 334 334 334 333 333 333 334 332 331 329 328 327 324 323 323 320 319 319 319 318 316 316 315 315 314 315 315 316 318 317 316 317 317
342 341 339 337 336 337 337 336 335 335 335 335 332 332 332 333 332 331 326 324 328 326 323 323 320 318 319 319 317 316 314 313 312 312 313 313 313 314 317 316 315 315 316
340 339 339 339 339 338 337 336 336 337 335 331 329 328 328 326 331 328 324 326 326 323 322 320 317 317 317 316 314 313 311 310 310 311 310 311 311 312 313 314 316 315 317
339 338 338 337 337 337 337 337 335 331 326 325 325 326 329 330 326 325 325 325 323 321 318 317 316 315 314 313 311 310 309 308 308 307 307 307 308 309 310 313 314 315 316
336 336 337 337 336 335 332 327 324 323 326 325 327 328 327 326 323 323 322 320 319 317 315 315 315 313 312 310 309 308 306 305 304 304 304 305 307 307 308 311 312 314 316
335 333 330 329 327 327 327 327 328 328 328 328 329 329 327 323 323 320 319 318 315 314 314 315 313 312 310 308 307 305 304 303 302 302 302 303 304 304 306 310 312 313 315
332 327 326 327 327 326 325 323 328 329 329 329 328 325 324 323 319 317 314 313 313 312 313 313 311 308 305 304 302 302 302 301 299 299 300 301 301 301 303 308 310 312 314
326 325 325 326 326 325 323 322 319 317 320 320 319 318 317 316 313 313 314 314 313 312 312 309 307 304 302 300 299 298 299 299 298 298 299 299 299 300 302 304 307 310 312
327 325 323 323 325 326 326 323 320 316 314 312 313 312 312 313 313 312 312 312 311 309 308 305 303 299 298 297 296 295 296 298 297 298 298 298 299 299 301 302 304 306 309
325 324 327 328 329 328 326 322 318 315 314 311 311 312 312 311 310 310 309 309 308 306 303 301 300 299 298 297 295 292 295 296 296 297 297 298 298 299 300 300 302 304 308
329 330 329 327 326 325 323 321 317 315 313 313 313 313 312 310 309 308 307 307 305 303 302 301 300 299 299 296 293 291 296 296 296 296 297 297 298 298 299 299 301 302 304
328 326 326 326 325 323 322 320 318 315 315 315 315 314 313 311 308 307 307 306 306 305 303 302 301 300 297 294 293 295 295 296 295 295 296 297 297 298 298 299 300 301 302
327 325 325 325 325 323 321 321 319 318 318 316 314 313 312 310 307 306 306 306 306 305 305 303 299 296 295 292 295 295 295 295 295 295 295 296 297 297 298 298 299 300 301
327 325 323 322 322 320 320 319 319 318 316 315 314 314 313 309 306 305 305 306 305 304 303 299 296 294 292 291 294 295 295 294 294 294 294 295 296 297 297 297 297 298 299
324 323 322 321 320 319 318 317 317 316 316 315 315 314 314 309 307 304 304 305 304 303 300 297 295 292 289 291 294 294 295 294 293 294 293 294 296 296 296 296 297 297 297
322 321 320 320 320 319 318 316 316 317 314 314 314 314 313 310 307 304 304 305 304 301 298 296 294 291 289 289 290 293 294 295 294 293 293 294 295 295 295 295 296 296 296
312 313 317 319 319 319 318 316 316 313 310 311 311 312 312 311 308 306 303 304 304 300 297 295 294 292 292 292 292 290 291 294 294 293 293 294 295 294 295 295 295 295 295

GFSGL_925_thetae_021.txt.gz
Theta_e
350 351 352 351 350 350 349 338 333 332 331 334 335 334 336 336 335 334 335 336 336 336 336 335 336 335 334 333 333 332 331 330 329 326 326 327 326 327 328 328 327 326 324
351 352 350 348 348 348 345 333 328 331 333 333 333 334 335 337 337 336 336 335 336 335 334 335 335 334 335 329 331 332 331 331 329 329 328 328 328 328 328 328 327 325 324
352 352 349 344 347 349 341 330 331 334 335 335 335 335 334 337 335 334 333 335 335 332 334 335 335 334 334 331 332 331 331 331 330 329 327 327 327 327 326 326 326 325 325
353 351 347 342 344 346 333 331 330 330 327 331 334 333 333 332 333 333 333 333 334 334 334 335 335 333 333 330 331 330 331 330 329 328 327 327 327 326 325 325 325 324 324
354 351 348 342 342 338 333 329 326 337 331 328 332 332 331 332 334 332 334 334 337 336 335 335 333 330 328 327 329 329 330 330 328 328 327 327 326 325 325 324 324 324 323
353 351 346 342 341 337 334 330 326 335 331 331 332 334 333 333 334 332 333 336 337 336 335 334 333 330 328 326 324 322 325 329 328 328 327 327 326 326 324 324 324 322 324
352 350 344 342 341 338 333 332 332 331 333 333 329 335 337 335 333 332 333 334 337 336 335 334 330 331 328 326 323 323 324 323 323 326 326 325 325 323 323 322 321 321 322
351 347 345 343 342 340 336 333 333 335 335 334 335 337 337 336 334 333 334 333 334 335 335 332 332 330 327 323 324 325 325 325 324 323 322 321 321 320 319 319 318 319 320
350 347 345 344 343 339 335 334 335 336 336 336 336 337 337 337 336 334 331 330 331 331 331 330 327 325 324 323 322 324 323 323 322 318 317 316 315 316 316 315 317 321 321
350 347 345 343 342 339 337 336 336 335 336 337 336 337 334 334 334 331 325 328 330 330 328 326 324 323 322 320 320 322 322 321 319 318 318 317 317 318 317 318 319 320 320
349 347 345 342 340 339 338 337 337 337 338 338 336 335 335 334 331 327 326 327 329 328 326 326 325 321 318 318 319 319 319 315 315 316 316 316 317 318 318 318 318 318 319
346 345 344 343 341 340 338 339 339 339 339 338 337 334 335 333 331 330 329 331 328 326 328 326 322 317 316 316 315 315 313 311 314 315 315 315 315 315 315 315 314 316 318
346 345 341 340 340 339 338 339 339 338 340 338 333 334 334 331 329 329 330 327 325 325 323 321 317 316 315 314 313 312 311 313 313 313 313 313 312 311 312 311 313 316 317
344 343 343 343 342 341 340 340 339 337 336 333 331 332 332 328 327 323 323 323 322 319 318 317 315 315 314 314 312 312 311 310 309 309 309 308 309 309 308 309 313 315 315
342 342 341 339 337 332 332 330 331 329 329 331 331 331 330 331 328 324 322 321 320 318 316 317 317 316 316 315 313 310 309 308 307 306 306 306 306 305 306 308 312 315 315
338 337 336 334 331 328 326 323 326 327 329 329 329 329 324 326 323 320 318 316 314 313 315 317 317 317 315 312 310 308 307 305 305 304 304 304 304 304 304 308 311 311 314
333 330 330 332 328 325 324 324 322 316 321 322 322 322 322 319 316 315 314 314 314 312 315 316 316 314 311 308 306 304 304 303 302 303 302 302 302 303 304 308 310 308 314
329 325 328 329 329 326 325 327 325 322 320 314 314 314 315 314 313 312 312 312 312 312 314 314 312 308 306 304 303 302 301 301 301 301 302 302 302 302 304 306 309 310 311
330 329 327 326 328 328 327 325 324 323 320 317 313 312 312 313 311 310 309 311 311 311 310 308 306 305 304 303 301 299 298 300 299 301 301 301 301 301 302 303 308 309 309
330 330 331 331 327 327 326 325 323 321 319 318 318 317 313 312 312 311 310 309 308 308 307 306 304 304 303 300 298 297 299 300 300 300 300 300 300 301 301 302 306 307 307
332 329 327 328 328 327 326 325 323 321 321 320 320 317 314 314 313 311 310 309 308 307 307 306 304 303 300 298 297 298 299 299 299 299 299 299 300 300 300 301 303 306 306
329 328 328 328 327 326 325 324 323 322 321 320 318 315 313 313 312 311 309 308 308 308 306 306 303 300 297 296 297 298 298 298 298 298 298 299 299 299 300 301 301 303 306
328 328 327 327 327 325 324 324 323 321 320 318 317 316 313 313 312 310 309 308 308 306 305 303 300 297 294 294 296 296 297 297 296 296 297 298 299 298 299 300 300 301 302
326 326 327 326 325 324 324 323 322 320 318 317 317 316 316 315 314 310 308 308 306 305 303 300 298 296 293 293 295 295 295 295 295 296 296 297 298 299 299 299 300 300 301
324 324 324 325 324 324 323 323 321 318 317 318 315 315 315 315 313 311 308 307 306 304 302 299 297 295 292 292 293 293 294 294 294 293 296 297 298 298 298 298 299 299 300
317 320 322 323 323 323 322 322 320 319 318 315 314 314 314 313 313 312 309 307 306 304 301 298 296 294 292 292 292 291 290 293 294 293 294 296 297 297 297 297 298 298 299

GFSGL_925_thetae_024.txt.gz
Theta_e
357 357 357 356 357 358 356 354 350 345 341 341 342 341 342 340 340 340 338 335 336 337 336 335 335 336 334 332 332 332 332 331 331 329 328 328 329 331 330 330 330 329 328
356 358 357 356 357 357 355 351 346 342 335 330 335 331 336 340 340 339 338 335 337 337 336 335 335 334 334 335 332 331 331 331 330 331 330 329 329 328 329 330 330 328 327
356 357 357 357 357 354 351 347 341 329 333 332 327 328 335 340 340 339 339 338 337 336 335 335 335 334 334 333 333 331 330 330 330 331 331 329 328 328 328 329 328 326 326
355 356 358 358 355 352 351 345 337 334 333 327 327 330 332 340 339 338 338 337 336 336 336 336 336 334 334 333 333 332 332 332 330 329 329 329 328 328 328 328 327 325 324
355 356 357 358 354 351 352 345 335 335 329 328 333 332 339 339 336 337 337 337 337 337 337 336 336 335 333 332 331 330 331 329 329 327 327 327 328 329 329 327 325 325 324
356 357 358 357 351 352 350 345 340 337 328 337 338 337 338 335 333 334 336 336 336 338 337 336 336 335 333 331 329 327 326 327 328 328 327 328 328 328 325 325 325 324 326
357 359 358 356 353 351 350 347 342 337 335 339 339 339 338 337 336 334 333 334 335 338 338 338 335 333 332 333 332 329 326 327 326 326 327 327 326 325 325 325 324 323 322
359 359 357 356 352 351 350 347 343 338 336 338 339 340 339 338 338 338 334 334 334 336 335 331 330 331 332 331 331 329 329 328 328 328 326 325 324 323 322 320 320 320 321
358 358 356 353 352 351 350 348 344 341 338 338 339 340 340 339 339 339 336 335 335 333 329 327 328 330 330 327 327 327 327 326 325 324 322 320 319 318 318 319 320 321 323
356 356 354 352 352 351 348 347 344 342 340 340 340 341 339 340 339 339 337 336 333 329 327 328 327 329 326 326 323 325 325 325 324 323 321 320 320 321 320 320 320 322 322
355 354 353 352 351 349 348 345 343 342 340 341 341 340 340 339 340 338 334 333 331 330 327 327 329 328 326 322 319 322 324 322 320 319 319 317 318 319 320 320 320 319 318
355 354 352 351 349 347 345 343 341 340 339 340 341 340 339 340 338 335 331 329 332 331 331 332 330 328 323 318 317 318 317 316 317 318 316 317 318 318 317 316 316 316 315
353 352 350 347 347 345 343 343 341 340 340 341 341 340 339 338 336 333 331 329 330 330 329 330 327 323 317 315 315 315 315 316 318 316 316 316 316 314 314 313 313 312 314
351 349 347 346 344 342 343 342 342 341 340 340 340 338 336 334 331 328 328 328 326 325 325 324 320 318 318 319 317 315 316 317 315 314 314 313 312 312 311 310 308 310 316
348 347 344 342 340 339 337 336 336 337 337 338 335 333 333 333 332 327 327 328 327 326 325 324 322 321 321 320 320 318 316 314 313 312 312 311 311 309 308 307 308 313 318
346 345 343 342 341 340 335 327 329 328 327 329 332 334 331 331 329 326 325 324 322 319 318 321 322 321 321 320 318 316 314 312 312 310 309 309 308 306 306 306 310 313 317
343 341 338 338 337 336 334 332 329 322 327 328 327 327 323 323 322 319 316 315 315 314 317 319 320 320 319 318 315 313 311 310 309 308 308 307 305 305 305 307 309 313 316
334 332 334 333 332 332 331 331 330 329 327 320 317 317 317 315 315 314 313 313 315 314 316 317 318 318 316 314 312 310 309 308 308 306 306 305 304 304 305 305 309 313 314
333 331 331 330 330 330 331 332 331 329 327 323 315 313 313 313 311 309 308 314 315 314 314 314 313 313 312 311 309 308 306 305 303 304 304 304 304 304 304 304 306 311 310
333 331 330 330 331 332 332 330 328 328 326 324 322 321 316 312 314 315 314 313 312 311 311 310 310 310 310 309 306 304 303 304 304 303 303 303 303 303 303 304 304 307 312
332 330 330 329 328 328 328 328 327 326 326 325 324 322 318 317 317 315 314 313 312 311 310 309 309 309 307 304 302 302 303 303 302 302 302 302 302 303 303 303 304 304 308
331 329 328 329 329 329 328 328 327 326 325 324 323 319 316 316 317 315 314 313 312 311 309 309 309 307 303 301 300 302 302 301 301 301 301 301 302 302 302 303 303 304 305
330 330 329 329 329 328 327 326 326 325 324 323 321 320 315 315 317 315 314 313 312 310 309 308 306 303 300 298 299 300 301 300 299 300 300 301 302 301 302 303 303 303 304
329 329 329 329 328 327 326 326 325 324 323 321 320 319 318 316 316 316 314 312 311 309 308 306 303 300 299 297 298 299 299 299 298 299 299 300 302 302 302 302 302 303 303
325 326 326 326 326 325 325 325 325 324 322 320 319 318 317 315 315 315 313 312 311 309 307 305 302 300 298 297 297 297 296 294 294 294 298 300 301 301 301 301 301 302 303
321 322 323 324 324 325 325 324 324 323 321 319 319 316 315 314 314 313 313 311 311 309 307 305 302 299 297 296 296 294 293 291 294 294 295 299 300 300 300 300 301 301 301

GFSGL_925_thetae_027.txt.gz
Theta_e
365 364 362 362 361 361 359 359 357 353 347 345 346 345 344 342 343 341 339 339 338 338 338 337 336 336 335 333 332 333 332 331 334 332 331 330 332 331 331 331 332 331 330
362 364 363 363 361 361 361 360 359 355 350 346 345 344 343 343 342 341 341 338 337 338 337 337 337 335 336 336 335 332 331 331 332 334 331 332 331 331 331 330 330 330 329
361 362 364 364 363 361 361 360 359 355 350 345 343 343 339 342 340 342 341 340 337 337 337 337 336 336 335 335 335 335 330 331 333 333 331 329 329 330 330 330 330 328 330
357 359 363 365 364 362 362 360 358 353 348 343 339 341 340 341 339 342 341 340 339 337 337 337 336 336 336 335 335 335 334 332 332 331 332 330 329 329 330 330 329 329 329
358 360 363 365 364 364 361 359 357 352 346 342 341 340 341 337 339 341 338 339 339 338 337 338 337 336 336 335 334 332 333 331 329 329 329 328 326 329 329 329 328 326 326
360 361 363 365 365 363 360 359 356 351 345 342 340 339 340 341 339 337 338 338 338 338 338 338 338 337 337 334 332 333 330 329 331 330 329 328 329 328 328 327 327 325 325
363 362 364 366 365 362 359 358 356 350 345 342 340 341 342 342 338 334 333 336 338 338 338 340 338 337 334 329 330 331 330 330 328 328 330 330 329 328 327 327 326 326 324
363 364 365 364 364 360 357 358 356 352 347 342 341 341 341 342 340 335 334 334 336 337 339 341 338 335 330 329 329 329 331 330 330 329 329 329 328 326 325 323 322 322 321
364 365 364 363 362 359 356 356 355 353 348 344 342 342 342 342 341 339 337 337 337 338 338 339 335 332 329 328 329 328 326 329 329 328 326 324 323 321 320 320 320 322 323
363 364 363 361 359 357 355 355 354 352 349 345 341 342 341 342 342 341 338 339 339 339 340 338 334 330 328 327 327 328 329 329 327 327 327 325 322 322 320 321 322 323 323
361 361 360 358 357 357 354 354 350 347 344 343 341 340 340 341 341 341 339 339 339 339 338 336 332 327 327 328 328 327 327 326 326 324 322 321 321 319 319 321 322 323 321
358 358 358 357 356 355 352 350 347 344 345 344 343 341 342 343 342 339 339 338 338 336 335 333 331 332 330 327 324 321 319 319 319 319 320 321 319 318 318 318 317 316 316
358 358 358 356 353 351 348 346 345 344 344 344 343 344 345 343 341 339 337 335 334 330 333 334 331 329 326 323 319 318 317 317 319 320 320 318 316 317 315 315 315 313 313
358 355 353 351 350 348 346 344 345 344 343 343 343 343 343 340 339 334 332 331 330 329 329 327 323 323 321 321 320 319 318 319 320 318 316 315 314 314 313 312 310 309 309
353 351 349 349 348 344 337 340 344 340 341 343 340 338 337 337 335 331 330 328 327 328 329 329 326 325 324 323 322 321 320 319 318 316 315 314 313 312 310 309 308 309 312
350 348 346 345 343 342 338 331 331 330 334 333 335 336 333 334 332 330 327 325 326 326 326 326 324 324 323 323 322 321 320 318 316 315 314 312 311 310 308 307 308 310 313
347 346 345 344 343 341 339 336 332 325 328 328 329 331 329 328 328 327 326 325 323 320 320 322 322 321 321 320 320 319 317 315 314 312 312 310 309 308 307 307 307 309 313
343 341 340 339 338 336 335 334 333 330 329 324 322 323 323 322 320 319 317 316 317 316 318 319 319 320 320 319 317 316 315 313 312 311 309 308 307 306 306 307 306 307 311
336 336 335 333 332 332 332 331 331 330 330 326 317 315 315 315 315 312 309 315 318 318 317 317 316 316 316 315 314 313 312 311 308 306 307 307 306 306 306 306 306 306 307
334 333 332 332 331 331 331 331 330 329 329 326 323 322 316 313 314 315 316 318 316 315 314 313 313 313 312 312 312 310 308 306 307 306 306 305 305 305 305 305 306 306 307
334 330 331 332 331 331 331 329 328 328 328 327 326 324 321 318 319 319 318 317 316 314 313 312 312 312 311 310 307 305 305 305 305 305 304 304 304 305 305 305 305 305 306
333 331 330 330 330 330 329 329 329 327 327 326 322 321 320 317 320 319 318 317 315 314 313 312 311 311 309 306 304 304 305 304 304 303 303 303 304 305 304 305 305 305 306
332 331 329 330 329 329 328 328 327 326 326 325 322 321 320 317 319 319 318 317 315 314 313 311 310 309 306 302 301 303 303 304 302 302 302 303 304 304 304 305 305 305 305
329 330 330 329 329 329 328 326 327 325 325 324 323 322 321 319 319 319 317 316 315 314 312 310 308 306 303 301 300 301 301 302 301 301 301 303 304 304 304 304 304 304 305
327 326 326 327 327 327 325 325 326 325 324 324 323 322 321 320 318 317 317 315 314 313 312 310 308 305 303 301 300 301 299 298 295 294 298 302 303 304 303 303 303 304 304
323 324 324 324 324 324 325 324 324 325 324 323 321 321 319 318 317 316 315 314 314 313 312 310 308 305 302 301 300 299 298 294 293 293 294 300 303 303 300 302 302 303 303

GFSGL_925_thetae_030.txt.gz
Theta_e
369 369 368 367 368 364 361 358 360 352 352 350 347 346 349 348 345 343 341 339 338 338 337 336 338 336 335 334 335 335 334 333 335 331 331 332 331 330 330 330 330 330 333
368 368 368 368 367 367 361 363 361 357 357 349 347 348 347 348 345 345 338 339 341 340 339 338 337 337 336 335 335 335 333 332 333 334 333 333 332 332 331 331 330 331 330
366 367 368 368 367 366 365 360 362 360 359 349 347 347 349 347 344 344 341 338 339 337 338 339 337 337 337 335 336 335 335 334 334 333 334 333 331 330 330 331 331 330 329
364 365 366 368 367 366 365 364 362 363 361 353 350 348 348 346 345 344 344 343 340 339 339 338 338 338 336 336 335 334 335 334 334 332 332 332 332 330 330 329 329 329 329
360 364 366 368 367 366 365 365 363 363 362 356 352 349 347 344 344 343 344 343 341 340 339 338 337 338 336 338 336 336 333 329 329 330 330 329 329 329 329 328 329 330 328
357 362 363 366 368 368 366 365 364 363 361 356 351 348 346 342 341 339 343 342 342 342 340 340 338 339 338 337 335 332 328 330 330 329 331 330 329 329 330 329 329 328 327
359 360 362 365 368 368 367 365 365 363 359 354 350 347 344 342 338 337 342 342 340 341 341 340 340 340 339 337 335 327 329 329 329 329 329 328 329 328 328 328 328 327 326
361 363 364 367 369 369 367 366 364 362 357 352 348 345 342 343 343 340 339 337 339 340 341 340 340 340 339 337 334 329 327 328 329 329 328 328 327 327 327 326 322 321 321
363 368 368 369 370 369 367 365 362 361 355 352 347 344 343 344 343 342 337 335 334 334 338 338 339 342 340 337 332 328 329 327 327 326 327 328 328 327 325 323 321 322 322
367 366 369 370 369 367 365 362 361 360 355 350 347 344 343 343 344 342 339 337 335 336 339 338 337 338 338 335 331 329 331 330 330 329 328 328 326 324 321 322 322 322 322
367 368 369 368 368 366 361 358 357 356 354 350 347 344 343 343 342 341 341 340 339 340 337 338 339 338 336 334 330 328 330 330 328 326 324 322 321 322 323 323 324 323 323
366 368 367 366 363 361 358 353 355 354 350 347 344 343 343 341 340 342 342 341 339 338 338 337 337 336 332 330 329 328 326 324 320 321 321 321 322 321 318 317 315 315 314
366 365 363 360 358 356 354 353 349 348 346 344 345 344 342 342 343 343 342 339 338 337 336 335 333 332 332 330 328 324 320 318 319 320 321 321 317 316 315 314 315 313 311
363 362 361 357 353 351 350 348 346 345 345 346 346 346 344 342 341 338 337 335 335 335 334 330 329 327 326 325 323 321 320 320 320 321 319 317 317 315 314 313 311 309 308
361 356 353 351 349 344 342 345 345 345 345 344 344 344 344 343 341 336 333 331 331 330 329 329 325 325 324 323 322 322 322 321 320 320 318 316 314 313 312 310 308 307 310
352 351 349 346 341 339 339 337 338 340 339 340 341 339 337 337 335 332 329 328 328 329 327 331 329 328 328 326 325 323 322 321 319 318 316 314 314 312 310 309 308 310 309
350 348 347 346 344 342 338 334 327 328 330 331 333 333 333 332 332 330 327 325 325 325 326 326 324 324 323 321 320 320 319 318 315 314 313 313 311 310 309 308 308 308 309
349 347 346 346 346 344 341 338 332 328 328 324 326 327 327 328 327 326 325 322 320 320 319 320 320 320 321 321 319 317 316 315 314 312 310 308 308 308 307 307 308 307 307
346 344 342 341 340 339 338 337 333 332 329 322 318 319 320 320 319 318 317 317 319 320 320 318 317 316 316 315 315 314 313 313 310 308 307 308 308 306 306 307 306 307 307
337 337 336 334 333 333 333 332 332 333 328 323 322 319 316 316 315 313 313 318 319 317 315 314 313 313 313 313 313 312 310 308 307 308 308 305 305 305 306 306 306 307 307
333 331 331 333 331 331 332 332 331 331 330 328 326 322 319 319 320 320 320 319 317 316 315 314 313 313 312 312 310 307 306 306 306 306 305 304 304 305 306 305 306 306 306
332 330 331 332 332 332 331 330 330 329 329 328 327 324 321 320 321 320 320 318 317 316 315 313 313 312 311 308 305 304 305 305 305 304 304 304 304 305 305 305 306 306 305
334 331 331 332 331 329 329 330 330 327 326 326 324 321 320 320 320 320 318 318 317 316 315 313 312 311 309 305 303 303 304 305 303 303 303 303 304 305 305 305 305 305 305
332 332 333 329 328 324 330 327 327 327 326 325 322 322 321 322 320 320 318 318 316 315 314 312 311 309 306 304 302 302 303 303 302 301 301 302 304 305 305 305 304 304 305
329 329 330 331 329 328 327 327 327 327 326 325 324 323 322 321 319 319 319 318 316 315 314 312 311 309 306 304 302 301 301 300 299 298 295 299 303 304 303 303 303 303 304
326 326 326 326 326 326 326 326 326 325 325 324 323 323 322 321 320 319 318 317 316 315 314 313 311 309 305 304 302 301 300 299 297 293 293 297 302 304 302 301 303 303 303

GFSGL_925_thetae_033.txt.gz
Theta_e
363 362 363 364 360 358 358 361 354 353 354 352 348 347 348 347 343 343 341 339 340 338 338 338 338 338 337 334 335 335 334 334 333 332 331 332 333 332 331 331 330 329 328
364 364 364 364 365 365 361 359 357 355 354 352 347 347 347 345 345 345 342 341 338 340 339 338 337 337 336 332 333 333 334 333 334 333 332 331 332 331 332 329 329 331 329
365 366 366 366 365 367 365 362 358 356 354 354 349 346 345 344 343 345 342 340 339 340 338 337 336 336 335 337 336 337 336 335 334 333 333 332 331 331 330 332 332 331 330
366 366 367 366 366 366 366 363 362 359 358 356 353 348 346 346 344 346 344 342 337 340 340 339 338 336 336 336 335 335 334 334 334 334 332 331 330 329 329 329 328 327 328
364 366 366 366 366 367 366 365 361 362 360 358 354 350 348 347 346 346 343 342 338 337 340 337 338 336 337 337 336 335 335 335 334 330 329 329 329 328 328 328 330 329 328
362 364 365 365 367 367 366 365 365 360 362 361 356 351 349 349 347 344 339 342 338 340 341 339 339 337 338 338 337 337 335 335 331 329 329 329 329 329 329 329 328 327 326
354 361 363 364 366 366 366 365 365 362 363 363 358 354 351 349 347 344 342 341 341 343 341 339 340 338 338 338 338 336 335 331 328 328 329 329 328 326 325 327 327 327 327
356 357 361 362 365 367 366 365 365 364 364 361 357 355 351 349 345 341 341 343 343 343 341 341 340 339 339 337 337 335 334 330 328 327 328 329 327 324 328 328 328 326 323
356 357 361 363 365 367 367 366 365 364 362 359 357 352 349 346 344 340 338 337 341 342 341 340 339 340 338 338 337 336 334 331 329 327 327 327 328 327 326 328 325 322 320
354 358 359 363 365 367 367 366 365 364 361 357 354 351 347 344 342 341 339 340 339 338 337 338 334 338 336 335 334 334 331 330 329 330 330 329 327 326 322 323 323 322 321
359 364 364 366 368 368 366 365 364 361 360 356 352 348 346 343 342 343 343 341 338 335 335 335 336 338 336 335 334 334 331 329 329 328 327 324 321 320 321 321 317 318 320
366 367 370 369 368 365 363 362 361 358 354 350 347 345 345 344 343 343 343 342 341 339 339 339 337 336 335 333 331 330 329 327 327 325 320 319 320 320 317 315 314 315 315
369 369 368 366 363 362 359 357 356 355 351 348 346 344 344 343 343 342 341 341 341 339 339 338 336 335 333 332 331 330 328 325 320 318 319 320 319 317 315 313 312 310 309
365 362 359 359 356 355 353 353 352 348 347 346 345 344 343 342 343 342 343 342 339 337 336 334 332 329 329 329 328 327 324 321 319 319 320 320 319 315 314 312 310 308 307
360 355 352 350 349 348 348 348 348 347 346 345 344 344 344 343 343 341 339 337 336 335 334 331 327 327 326 324 324 324 322 320 320 319 320 319 315 313 312 310 309 308 308
351 350 344 341 342 343 342 339 342 344 345 344 344 343 343 342 340 337 333 329 329 329 329 329 329 326 325 325 324 322 322 322 322 321 319 314 313 312 310 309 308 307 308
349 344 342 339 338 335 332 330 324 331 337 340 340 341 339 338 336 331 328 327 327 327 327 328 330 327 324 326 326 325 324 322 321 315 314 313 311 308 308 307 306 307 307
347 346 345 342 341 337 334 330 330 328 327 327 331 332 332 331 330 328 326 325 324 324 325 323 321 321 323 322 320 318 314 314 312 311 310 309 308 307 307 306 306 306 306
347 346 345 343 341 339 337 333 333 328 325 324 324 325 327 327 326 325 323 321 320 320 320 318 315 315 315 314 314 313 312 311 310 308 307 308 308 306 305 305 306 305 306
346 345 345 344 343 339 336 332 330 327 325 322 322 324 321 320 319 318 317 314 319 315 314 313 313 313 313 313 312 311 310 308 307 307 308 306 305 304 304 305 304 305 306
333 337 335 336 336 337 337 332 332 326 322 321 322 322 323 321 319 316 316 319 317 316 314 314 313 312 312 312 311 307 306 305 306 305 304 304 304 304 305 304 305 306 306
331 331 332 332 332 331 331 332 332 327 325 324 322 321 322 320 319 319 318 319 317 316 315 313 313 312 311 308 305 304 304 305 304 303 303 303 303 304 304 305 305 305 304
332 331 331 332 332 330 330 329 328 329 328 326 325 322 319 320 321 321 321 319 317 316 315 313 312 311 309 307 306 303 303 303 303 302 303 303 303 304 305 304 304 304 303
325 329 330 329 329 328 328 328 328 326 327 327 325 323 321 320 320 319 318 317 316 315 314 313 311 310 308 304 302 301 302 303 303 302 300 298 303 304 304 303 303 303 303
331 331 331 329 327 328 328 328 328 327 326 326 324 323 322 321 321 319 318 318 317 315 314 313 312 310 308 307 303 301 301 302 302 300 299 295 298 303 302 301 302 303 303
328 331 329 328 327 327 327 327 326 327 326 325 323 322 322 322 321 319 319 318 316 315 314 313 312 310 307 305 304 302 301 301 300 298 294 294 301 303 303 302 302 303 303

GFSGL_925_thetae_036.txt.gz
Theta_e
356 356 355 354 352 354 357 358 357 354 353 348 347 347 346 347 347 345 342 339 337 334 338 338 335 335 336 336 334 334 333 333 330 332 331 331 332 332 331 331 332 331 331
356 357 357 356 354 352 355 356 357 359 354 353 350 347 347 347 348 347 343 339 338 336 338 339 337 336 336 337 334 334 334 332 333 332 332 332 330 331 331 330 330 331 331
357 358 358 359 358 356 354 353 352 355 357 353 353 350 348 348 348 347 342 339 338 336 337 338 338 337 337 336 333 333 333 334 334 334 333 332 330 330 330 329 330 330 328
359 359 359 359 360 359 358 356 355 354 357 354 354 353 350 348 347 347 342 341 339 338 336 338 339 338 336 335 333 335 336 335 335 333 332 332 331 329 329 328 328 326 327
361 360 360 360 361 361 361 360 358 356 356 356 355 353 350 348 348 347 344 340 341 339 339 338 340 338 337 336 334 336 335 334 334 334 332 329 328 327 328 328 328 328 327
361 362 362 362 362 362 362 363 361 360 358 357 355 353 351 349 347 346 344 342 342 341 340 337 338 340 339 338 335 336 337 335 334 333 332 328 327 327 328 328 328 327 326
360 361 362 363 363 363 362 363 363 360 360 359 357 354 353 352 350 348 346 345 344 343 341 338 335 339 339 339 337 338 338 336 335 333 330 328 327 327 328 326 326 327 326
360 361 362 363 363 363 364 363 363 361 359 360 359 357 355 355 353 350 348 346 345 342 339 337 338 340 339 339 338 337 337 336 334 330 329 327 327 327 329 326 327 328 327
355 359 361 362 362 364 364 363 363 363 360 360 360 358 358 357 357 351 348 346 344 343 340 340 342 342 340 338 337 337 335 333 332 331 329 328 328 328 328 326 325 325 322
352 352 358 361 362 363 364 363 363 363 361 359 359 360 360 359 357 352 347 343 343 342 342 341 341 341 340 338 337 337 333 331 333 330 329 329 329 327 325 321 320 322 321
351 352 353 359 361 363 364 364 363 362 360 358 359 357 357 354 353 348 345 341 339 338 339 339 340 337 336 334 335 334 333 332 331 329 328 328 326 320 319 319 315 315 318
349 351 354 358 360 362 364 364 362 361 356 354 350 347 348 350 347 344 342 341 340 340 340 340 337 337 338 337 335 333 331 330 329 327 326 322 319 320 317 316 313 313 311
353 355 356 359 361 364 364 362 360 357 352 347 346 346 346 346 345 343 342 343 342 341 340 339 339 337 336 335 331 331 330 329 327 324 320 318 319 318 316 314 313 310 309
358 363 364 364 364 363 362 360 356 352 348 346 345 345 346 344 343 342 342 342 341 341 339 338 335 335 332 330 330 330 329 328 325 320 319 319 320 319 314 313 311 309 308
364 363 361 356 357 350 348 349 350 348 348 346 346 346 343 343 343 342 341 341 340 339 335 333 330 329 327 327 327 326 327 325 321 319 319 320 319 314 312 310 309 308 307
356 350 345 341 336 335 329 331 344 349 351 350 349 346 343 342 342 341 338 336 335 335 332 331 328 326 326 326 325 324 323 322 321 320 320 319 315 312 310 308 307 306 306
345 341 338 337 334 332 332 336 325 336 345 344 343 343 343 342 340 335 330 328 328 329 328 329 328 328 327 327 326 325 324 323 322 322 317 313 311 308 307 306 305 305 305
341 340 339 336 334 332 332 334 331 331 327 330 336 339 340 338 335 329 327 326 327 327 326 326 324 322 322 322 322 322 321 319 314 311 311 308 307 307 306 305 305 305 304
342 342 341 339 339 337 335 337 332 330 325 324 327 331 331 330 329 327 325 325 324 322 320 317 319 321 321 318 316 314 313 312 311 309 307 307 306 305 304 304 305 304 305
343 342 342 339 336 333 332 330 329 327 322 323 326 327 327 327 325 324 323 321 319 318 316 314 314 314 314 314 313 312 311 308 307 306 307 306 304 304 304 305 304 304 305
344 343 342 339 338 335 333 330 328 326 324 326 327 327 327 326 325 322 321 316 314 313 313 313 313 312 312 312 311 307 306 305 305 306 304 303 303 304 305 304 304 304 304
332 333 337 338 337 334 332 330 328 325 323 322 322 323 325 324 322 320 315 317 316 315 314 314 313 313 312 311 310 306 304 305 304 303 303 303 303 304 304 304 303 303 303
330 330 330 329 330 331 332 331 328 326 324 323 323 323 321 321 320 317 316 318 317 315 314 314 313 312 311 309 307 306 304 304 303 303 303 302 302 303 304 303 302 302 302
327 326 326 326 326 329 328 329 331 328 325 323 322 321 321 320 319 318 319 319 318 315 314 314 313 312 311 309 307 305 302 303 303 303 302 300 298 303 303 302 301 302 302
324 326 325 324 326 328 328 327 328 329 328 326 325 323 320 320 320 320 320 320 319 316 314 313 313 312 311 310 307 304 301 302 302 302 301 300 296 300 303 302 301 302 303
328 328 328 328 326 327 327 327 326 326 327 327 326 326 324 321 320 320 318 317 317 316 314 314 313 313 311 310 307 304 301 301 301 300 299 295 295 302 303 303 302 302 303

GFSGL_925_thetae_039.txt.gz
Theta_e
352 352 352 353 353 353 352 349 348 353 351 350 351 348 349 349 347 345 344 342 338 336 334 335 335 334 334 335 334 333 333 331 328 331 330 331 331 331 332 332 331 331 331
352 352 352 352 352 353 353 350 351 353 352 350 349 347 347 348 347 346 345 344 340 338 333 333 336 337 335 335 336 334 333 333 332 331 331 331 331 330 330 329 329 329 330
351 353 353 352 352 351 352 352 353 354 354 351 349 348 347 347 346 346 345 345 343 338 335 333 335 337 337 336 336 335 333 333 332 332 332 332 332 330 329 326 329 330 328
351 353 353 353 353 352 351 351 352 355 356 356 353 352 349 347 346 346 346 346 345 341 335 334 333 336 337 337 336 336 334 333 334 334 333 332 331 330 326 326 327 327 327
352 353 353 354 354 353 353 351 350 353 355 356 356 353 351 350 349 347 347 347 346 344 338 337 335 335 337 337 337 335 333 335 335 334 333 332 331 330 326 327 327 328 328
354 354 354 354 355 356 355 354 353 351 352 353 353 354 352 351 351 351 349 347 346 345 341 340 338 336 336 339 338 337 337 334 335 334 333 331 332 329 326 327 327 326 325
355 355 356 356 356 357 357 357 357 355 354 353 353 352 352 352 352 352 350 348 346 344 342 340 340 339 337 337 339 339 338 336 336 336 334 332 330 328 327 327 327 325 325
356 357 357 357 357 357 358 358 359 358 357 355 353 353 352 352 352 352 351 348 344 344 343 342 342 340 338 336 339 339 338 335 337 335 332 331 330 328 327 327 328 327 326
355 357 359 359 359 359 359 359 359 360 359 357 354 353 353 353 354 353 350 346 346 346 346 345 343 340 337 337 340 339 338 336 334 332 328 331 330 328 329 328 327 325 322
355 356 357 359 360 360 360 360 360 360 359 357 355 354 356 357 357 356 350 347 347 346 345 344 342 340 341 341 340 339 337 336 335 330 331 328 329 328 326 322 320 320 320
351 355 357 358 360 360 361 361 361 361 360 358 355 355 357 358 358 356 349 349 349 347 345 342 341 341 340 339 337 335 335 334 333 332 330 328 327 325 319 319 316 315 316
350 351 354 357 359 360 360 361 361 361 360 358 355 353 353 355 356 355 352 346 347 345 342 339 338 338 338 336 336 336 335 333 332 329 327 326 321 318 319 317 314 313 312
347 349 350 352 357 359 360 361 362 362 360 356 353 349 348 349 351 353 352 348 344 343 339 338 338 338 338 337 337 335 331 331 329 328 325 321 318 319 318 315 314 312 310
346 346 348 350 354 358 360 361 362 361 358 354 350 346 344 344 347 347 345 344 342 341 339 339 339 338 336 333 333 331 330 330 329 326 323 318 318 319 319 314 312 309 308
351 349 350 352 355 352 338 342 352 353 356 349 346 344 344 340 335 341 341 342 341 339 339 337 335 333 332 329 328 329 329 328 326 324 320 318 319 319 316 312 309 308 306
361 359 356 346 338 335 336 335 340 344 345 343 339 337 333 335 336 343 343 342 341 338 335 332 331 330 328 326 325 324 325 325 324 322 320 319 319 318 313 310 307 305 304
343 339 337 336 335 337 340 336 330 333 333 333 337 335 333 342 343 343 341 340 338 333 332 331 330 327 325 325 324 324 324 323 322 321 320 320 316 312 309 307 305 304 304
341 339 338 336 336 336 335 333 333 333 332 331 336 342 341 341 341 338 334 332 328 329 328 328 327 327 327 326 325 323 324 324 323 322 317 311 309 307 306 304 304 304 303
340 338 338 338 336 336 335 332 332 330 327 325 326 335 338 336 330 328 328 327 327 325 325 325 323 321 320 321 321 320 320 318 315 311 309 307 306 305 304 303 304 303 304
339 340 338 333 332 332 331 330 327 325 324 325 327 327 328 325 322 322 324 325 325 324 321 318 319 320 320 319 316 314 313 311 310 308 306 306 304 303 304 304 304 304 303
339 337 336 334 333 331 330 327 325 324 324 325 327 330 328 326 324 323 322 321 319 319 316 316 315 315 314 314 313 312 310 308 306 305 306 304 303 303 304 304 304 303 302
338 339 337 335 333 332 331 329 328 326 325 325 325 325 325 325 324 323 320 317 316 316 315 314 313 313 313 312 311 308 305 305 305 305 304 303 303 303 304 304 303 302 302
336 337 336 335 335 335 332 329 327 327 325 324 324 324 324 324 323 321 317 316 314 315 314 313 313 313 312 311 311 309 306 305 304 304 303 303 302 302 303 303 302 301 302
330 330 331 331 333 332 331 329 326 324 323 323 322 320 321 321 320 319 316 316 316 315 313 313 314 313 312 310 309 307 305 303 303 303 302 302 299 299 303 302 301 301 302
325 326 326 325 327 329 329 330 329 327 325 325 323 322 322 322 320 319 317 316 317 316 314 313 314 313 312 310 309 307 304 302 302 302 302 301 300 297 301 302 301 302 302
327 327 325 325 326 325 328 328 327 326 327 325 324 321 321 321 321 320 318 319 319 318 315 314 314 314 313 311 309 307 305 302 301 301 301 300 298 295 301 302 302 301 302

GFSGL_925_thetae_042.txt.gz
Theta_e
349 350 351 350 350 350 350 350 350 350 349 346 349 350 350 352 348 350 347 344 340 339 335 333 331 332 333 333 333 332 331 330 329 329 329 330 330 330 331 332 331 330 330
348 350 351 351 351 350 350 350 350 350 350 347 348 350 349 351 348 349 348 345 341 340 337 335 333 334 333 333 334 334 333 332 331 330 331 331 331 331 330 329 327 327 328
348 349 351 351 351 351 350 350 350 350 350 347 348 350 349 350 348 347 348 346 343 342 340 337 333 334 336 334 334 335 334 333 332 332 331 331 331 331 330 326 325 326 328
348 349 350 351 351 351 351 351 351 351 351 348 349 351 350 349 348 347 347 347 345 343 343 340 336 332 333 336 335 335 335 334 333 332 332 333 333 332 330 327 326 326 327
349 349 350 350 350 350 350 351 352 352 351 350 348 351 349 348 347 347 346 346 345 344 344 344 340 336 334 335 336 335 335 334 332 332 332 332 331 330 329 328 326 326 327
349 349 350 351 351 350 350 350 350 351 352 352 350 350 350 348 348 349 348 346 345 345 344 345 344 340 336 335 336 337 337 336 333 334 333 332 331 330 330 327 326 327 327
350 350 350 351 351 351 351 350 349 350 351 352 351 351 351 351 351 351 351 348 347 346 346 345 342 341 339 335 336 336 338 337 336 335 334 334 332 332 329 327 327 326 326
350 350 350 351 351 352 352 352 351 350 349 350 351 351 351 351 352 352 353 351 347 348 347 345 344 343 341 338 338 337 338 339 337 336 335 335 333 329 329 328 328 327 326
351 351 351 352 352 353 354 354 353 353 352 351 351 351 350 350 349 350 350 348 345 347 347 345 345 343 342 342 339 338 337 338 337 336 335 332 330 329 329 328 327 326 323
351 352 353 353 354 354 354 355 355 355 355 355 353 352 351 350 350 350 350 348 345 345 346 346 345 345 343 340 338 337 338 338 336 334 333 331 330 330 328 327 325 324 321
348 352 354 355 355 355 355 355 356 356 357 357 357 355 353 351 351 351 351 348 346 345 342 345 344 344 340 340 340 340 340 337 335 334 331 330 329 327 326 321 319 317 317
347 351 353 355 356 357 357 357 358 358 358 359 358 357 353 353 352 352 351 350 346 344 346 346 343 341 340 340 340 338 336 335 334 332 331 328 326 323 319 318 316 314 313
347 349 353 355 356 357 358 358 359 359 359 359 359 357 354 352 352 353 352 347 346 347 345 342 339 338 338 338 336 336 336 335 332 330 326 325 321 318 318 316 314 313 312
343 347 348 350 354 357 358 358 359 360 360 360 358 355 352 347 340 343 339 343 347 344 340 340 338 338 337 337 337 336 335 332 330 328 326 321 318 318 319 318 315 312 309
345 343 345 348 349 348 352 357 358 354 360 355 353 348 343 340 335 334 332 341 343 341 341 339 338 337 335 333 332 331 329 329 329 327 323 318 318 318 318 315 313 309 307
352 350 344 339 338 341 340 333 340 340 336 337 335 333 330 331 334 333 331 336 339 339 337 334 333 334 331 329 328 327 328 328 327 325 321 319 319 318 318 313 309 307 304
344 341 339 338 339 339 338 334 330 330 332 337 334 334 331 332 331 332 332 335 339 338 335 333 332 331 330 327 325 325 325 325 324 323 321 320 319 319 313 310 306 304 304
343 342 339 339 338 336 335 334 332 332 330 330 333 331 334 332 329 329 330 334 329 331 334 332 332 330 328 325 323 323 323 322 322 322 321 320 318 312 308 306 303 303 303
340 338 339 340 340 338 337 336 336 334 331 322 323 331 331 331 331 332 330 329 329 331 332 331 330 327 325 325 325 323 323 323 323 322 319 313 309 307 305 303 303 303 303
339 339 338 336 334 332 331 331 330 328 324 324 324 319 326 325 320 325 329 329 331 328 328 327 327 326 324 322 321 321 320 320 317 313 310 307 306 304 303 303 303 303 303
336 334 334 332 331 330 330 329 327 328 328 327 322 324 326 326 325 327 326 327 327 325 325 321 318 319 320 320 318 317 315 313 311 310 307 306 304 303 303 303 303 303 302
337 335 333 332 331 330 328 327 328 328 327 324 322 323 323 325 325 326 325 325 325 322 318 317 316 315 314 315 315 313 312 310 308 306 305 306 303 303 303 303 303 302 301
337 335 334 332 332 330 329 331 330 328 324 323 321 321 324 325 324 323 323 320 318 318 316 315 314 313 312 312 311 311 308 306 305 305 305 303 303 302 303 303 302 301 301
334 334 333 332 331 330 328 325 326 326 324 322 322 322 324 324 323 321 318 317 317 316 314 313 313 313 311 311 310 309 307 306 304 304 303 303 302 301 302 302 301 301 302
327 329 329 329 329 328 328 326 324 324 325 325 325 323 322 320 320 321 318 316 315 314 313 313 313 313 311 309 308 308 306 304 303 303 302 302 300 297 300 302 301 301 302
327 325 326 327 327 328 327 327 326 325 323 322 323 323 324 324 322 319 317 315 316 315 315 314 314 314 313 311 309 307 305 302 302 302 302 301 299 298 297 301 302 301 302

GFSGL_925_thetae_045.txt.gz
Theta_e
351 351 351 351 351 351 352 351 350 349 349 350 347 350 352 350 351 352 350 348 344 343 339 338 336 336 335 336 336 336 335 334 335 335 333 332 330 332 334 333 334 333 333
350 351 352 352 352 352 352 352 350 350 349 349 349 349 353 352 351 351 351 348 346 345 342 339 338 337 335 337 336 337 335 335 335 337 335 335 333 335 335 333 334 329 329
350 351 352 352 353 353 352 352 352 350 350 350 351 350 351 353 351 350 351 350 347 346 344 342 340 338 336 336 336 336 336 337 336 335 334 335 335 334 334 332 329 331 330
350 351 352 353 353 353 352 352 352 351 351 350 350 350 349 350 352 351 351 351 348 347 345 344 343 340 337 337 336 338 338 337 337 336 336 335 335 335 334 334 333 332 332
350 351 352 352 353 353 353 353 353 353 352 350 350 350 350 349 351 351 350 350 349 348 346 345 344 342 338 333 332 337 338 338 337 337 336 334 335 334 334 334 334 332 330
350 351 351 352 353 353 354 354 353 354 353 353 352 351 351 350 350 349 350 350 349 348 348 347 345 342 342 339 333 334 337 339 338 337 335 335 335 335 334 334 333 332 331
350 351 351 353 353 354 354 354 354 355 355 354 353 352 352 351 348 347 348 350 350 349 348 348 347 343 343 341 338 332 334 336 337 340 338 338 337 336 335 332 332 330 331
351 352 352 353 354 354 354 354 354 354 355 356 355 354 353 351 349 348 348 349 350 350 349 349 348 345 343 343 340 339 337 337 337 337 339 339 338 335 333 333 333 332 331
352 353 353 353 354 354 355 354 354 354 354 354 355 356 355 354 351 348 348 347 350 351 350 349 348 346 345 343 343 343 341 340 338 338 338 337 336 334 331 331 330 329 329
352 352 353 353 354 355 355 355 355 354 354 353 354 355 355 355 354 351 349 349 350 352 350 348 347 346 345 344 342 340 342 341 338 336 336 335 333 331 330 330 331 330 329
351 352 353 354 354 355 355 356 356 356 356 356 355 354 354 354 354 352 350 350 352 351 349 347 346 345 345 343 342 341 341 340 338 338 335 333 333 333 330 329 329 325 322
350 353 355 356 355 355 356 356 357 357 356 357 358 358 356 355 353 353 350 349 350 349 348 345 345 347 345 342 339 338 338 339 338 337 335 334 332 330 328 324 322 322 320
351 352 355 357 357 357 358 358 358 357 357 357 359 359 358 357 354 352 352 350 349 348 347 344 345 346 342 339 339 339 340 336 335 335 335 332 330 326 322 321 318 315 314
353 355 356 357 358 359 359 359 359 360 360 359 360 360 359 355 352 351 350 346 340 342 338 333 336 340 339 339 339 339 336 335 335 333 331 329 324 321 321 320 319 318 316
352 353 354 355 356 356 355 359 361 361 361 361 360 359 350 340 339 342 340 335 339 339 336 333 336 336 336 337 337 335 334 334 331 330 329 325 321 321 321 319 318 317 316
353 351 345 342 342 342 343 344 353 358 359 360 357 353 341 344 337 337 335 337 338 329 331 334 335 333 332 329 329 330 331 331 330 329 327 323 322 322 321 319 317 316 315
344 341 339 342 339 337 339 337 332 336 339 339 337 335 334 335 335 336 336 331 331 333 335 335 335 332 330 328 327 327 326 328 330 328 325 323 323 323 320 319 316 313 312
344 342 342 344 342 341 340 339 338 333 330 329 330 331 332 331 331 331 330 331 333 334 335 334 333 331 329 328 328 329 329 328 327 326 324 324 323 322 320 316 314 312 308
342 341 340 340 339 337 335 333 333 335 337 328 328 331 332 331 330 331 331 330 330 331 332 332 331 329 330 329 327 326 325 325 325 325 324 323 321 318 316 313 310 306 306
336 338 339 338 338 340 340 340 336 333 330 325 324 327 327 327 323 323 329 330 330 331 332 332 331 329 328 327 326 325 325 323 323 323 321 318 315 314 312 308 307 306 306
334 334 335 335 337 338 337 336 333 332 329 326 323 324 328 327 325 326 328 328 329 330 331 328 326 326 325 325 325 323 322 321 319 317 315 314 312 310 308 307 306 306 306
336 334 335 335 334 334 333 332 332 331 329 325 324 325 326 328 328 331 332 331 329 328 326 325 324 323 321 321 320 319 318 317 315 314 313 311 309 307 307 306 305 305 305
338 337 336 335 334 332 333 333 331 331 329 326 322 325 328 330 330 328 327 326 325 323 321 321 320 318 317 316 316 316 315 314 313 311 309 308 307 307 306 306 305 305 305
337 338 338 336 335 334 332 331 330 328 329 328 329 328 327 326 325 324 325 323 321 319 318 317 316 315 313 313 313 312 311 309 309 308 308 307 307 306 306 305 304 305 305
332 333 334 334 333 332 331 330 329 330 329 328 327 325 325 325 325 323 321 320 319 317 316 316 316 314 311 310 311 310 309 307 307 306 307 306 306 306 304 303 304 304 304
328 329 330 330 331 330 328 326 326 324 325 325 324 323 324 324 323 322 319 318 317 316 316 316 316 315 313 312 311 309 306 306 303 303 305 305 304 304 302 302 304 304 304

GFSGL_925_thetae_048.txt.gz
Theta_e
357 357 357 357 357 357 357 357 357 357 357 357 355 355 355 357 360 360 358 355 355 352 348 346 346 337 336 336 336 335 335 335 334 334 334 336 338 338 336 336 336 335 335
356 358 358 358 357 357 358 358 357 358 358 358 358 356 355 356 359 360 358 355 355 353 350 347 346 342 341 337 337 336 335 336 335 336 336 335 338 338 338 339 336 333 332
356 356 357 358 358 358 359 358 358 358 358 358 358 359 357 354 356 359 358 357 355 354 351 350 346 344 342 337 338 337 337 337 338 335 335 337 335 337 339 338 337 335 332
354 355 357 359 358 358 359 359 359 359 359 359 359 359 358 357 355 355 357 357 357 355 353 350 348 346 343 342 340 340 338 337 338 337 335 334 337 335 337 336 337 336 335
354 355 356 358 359 359 359 359 359 359 359 359 359 359 359 357 355 355 356 356 357 356 354 351 349 347 345 343 341 340 339 340 336 337 337 335 336 335 337 335 335 335 335
355 356 357 358 360 360 360 360 360 360 360 360 360 360 359 357 354 352 354 356 356 357 356 353 350 348 346 344 341 339 338 339 339 336 337 336 337 336 336 335 335 335 336
355 357 358 359 360 360 360 360 360 361 360 361 360 360 360 359 355 354 351 354 355 356 356 355 353 351 348 347 341 338 334 332 335 341 339 340 338 339 339 338 339 336 335
356 356 358 359 360 360 360 361 361 361 360 361 361 360 360 359 358 355 352 351 353 355 356 356 355 353 351 348 345 340 339 334 335 337 340 341 342 342 342 340 337 336 335
357 357 358 359 360 361 361 361 362 360 361 360 360 360 361 360 358 356 354 351 353 355 357 357 356 355 354 349 348 345 339 339 341 338 338 339 341 341 339 337 335 335 334
357 357 358 359 360 361 361 361 360 360 359 359 359 360 361 361 360 358 355 352 352 353 354 356 355 355 354 351 346 346 345 345 343 340 338 338 339 337 335 335 335 333 333
354 355 357 359 361 361 361 360 360 359 359 359 358 358 358 358 358 357 358 354 350 351 353 355 356 354 353 352 348 346 346 346 343 342 339 339 338 336 334 333 334 333 330
355 354 357 360 359 358 360 360 360 360 361 360 360 359 357 352 352 352 351 357 351 352 352 350 353 353 351 350 344 344 345 343 343 340 340 338 337 335 334 334 333 328 324
355 357 359 359 359 357 360 361 360 360 359 360 359 358 357 354 348 351 356 356 354 351 353 355 353 351 347 342 336 333 342 342 340 340 339 338 336 335 333 330 327 326 325
356 357 358 360 361 360 360 360 360 359 360 359 357 356 350 345 357 358 357 355 353 345 342 341 344 340 341 337 336 334 334 339 339 339 338 337 335 331 328 325 323 322 320
356 358 359 360 360 361 358 358 361 360 360 360 360 359 357 360 362 359 357 355 349 339 339 336 333 332 333 333 330 332 336 337 336 338 337 334 331 328 325 324 322 322 320
359 359 359 359 361 362 356 348 354 358 361 360 360 362 360 360 354 356 354 352 347 338 337 334 334 336 332 332 333 334 336 336 336 334 333 331 328 325 324 324 322 320 320
356 355 354 354 352 353 355 356 350 340 352 356 355 355 352 348 345 344 342 340 338 335 336 336 337 335 336 335 333 332 332 334 335 333 332 330 326 325 324 323 322 320 318
348 349 351 349 351 353 354 352 347 345 341 336 333 334 334 334 335 336 336 335 331 332 337 338 338 335 333 331 331 331 331 335 335 333 331 328 325 325 325 323 321 319 316
348 349 348 348 348 347 348 347 344 340 339 334 331 331 331 333 334 335 336 336 334 335 337 334 333 332 332 331 333 335 335 334 333 331 328 326 326 325 323 321 319 314 311
342 342 345 343 340 339 339 340 340 339 338 335 335 337 328 329 329 329 329 331 331 333 335 334 332 331 331 333 334 334 333 331 329 328 327 326 325 323 320 318 315 311 308
342 340 342 343 342 341 341 340 341 342 341 335 333 328 327 332 329 327 331 331 331 332 333 333 332 333 333 332 331 329 328 327 327 327 326 324 322 319 317 313 310 309 309
340 341 341 341 340 339 338 338 337 336 333 332 328 324 327 330 333 332 332 331 330 332 333 334 334 333 331 330 329 328 327 326 326 324 322 320 318 316 312 310 309 309 308
340 339 339 338 337 337 337 335 334 334 333 333 331 327 325 330 330 331 333 334 334 333 331 330 328 327 327 326 325 324 323 322 321 320 318 317 315 312 310 309 308 308 308
338 338 338 338 338 337 335 335 333 331 333 330 330 331 334 335 333 331 330 328 327 325 324 324 322 321 321 320 320 320 320 319 318 317 316 313 311 309 309 309 308 308 308
336 336 335 334 334 334 333 333 333 331 330 331 332 332 331 330 329 329 328 326 324 322 321 320 319 318 317 316 315 315 313 313 313 312 311 310 310 309 309 308 307 307 307
331 331 333 332 332 331 330 329 328 329 331 329 330 330 329 328 327 325 324 322 321 320 319 319 318 316 315 314 313 312 309 308 309 308 309 309 309 309 307 307 306 307 307

GFSGL_925_thetae_051.txt.gz
Theta_e
364 363 364 364 363 363 360 360 359 360 359 357 358 356 357 358 359 361 359 356 359 357 352 350 350 346 338 339 339 338 337 338 338 337 337 338 338 339 338 338 337 337 336
362 363 364 363 363 363 363 360 361 361 362 362 358 360 358 357 359 361 362 356 358 359 356 351 350 349 343 339 339 338 338 338 339 342 339 340 340 339 340 340 340 336 336
361 362 363 364 364 363 363 363 362 363 363 362 362 361 361 359 358 361 362 361 358 359 358 355 351 350 348 341 339 339 339 339 340 340 338 339 338 339 340 341 341 339 337
358 360 362 364 364 364 363 363 363 363 364 364 363 363 363 361 359 359 362 362 361 358 358 357 354 351 349 347 345 339 342 340 339 339 338 337 339 338 339 339 341 340 339
358 360 362 363 365 364 364 363 364 364 365 364 365 364 364 364 361 359 358 361 362 360 358 358 356 353 350 348 345 344 340 342 339 341 341 339 338 339 339 340 339 336 337
357 359 361 363 365 366 365 365 365 365 364 365 365 365 365 364 360 357 358 359 361 362 360 360 358 354 351 348 346 342 342 343 342 339 340 341 340 340 338 338 337 337 337
356 361 361 363 365 367 367 366 366 366 365 365 366 366 366 365 362 358 356 358 360 361 361 361 360 356 352 350 347 344 342 342 341 340 340 339 342 340 339 341 338 339 338
360 358 362 363 365 366 367 367 367 367 366 366 366 366 366 366 365 362 357 355 357 359 360 360 361 358 355 351 351 346 344 342 340 339 337 338 338 342 342 342 341 341 340
360 361 361 364 365 367 368 368 367 367 367 367 367 367 366 366 364 363 361 356 357 358 358 360 359 359 358 355 353 352 348 345 342 339 336 340 341 342 342 341 341 339 339
360 361 361 364 365 366 367 368 367 367 367 365 365 366 366 366 365 362 361 359 357 357 357 358 358 358 359 358 354 354 353 347 343 339 336 335 337 338 341 341 339 338 337
359 360 363 363 365 366 367 367 367 367 364 365 365 365 365 365 365 362 359 358 357 357 357 357 357 357 358 358 357 353 352 348 342 342 341 339 338 338 339 339 338 337 336
358 360 362 364 364 363 367 369 368 367 367 367 367 365 365 365 363 364 361 360 357 357 358 356 354 354 356 357 357 354 350 348 345 342 339 340 339 338 338 336 335 337 334
362 363 363 365 366 363 367 369 367 367 364 365 363 364 361 360 362 361 361 360 355 357 356 356 355 354 348 354 356 353 349 344 344 342 341 339 337 338 337 337 335 334 330
364 364 365 367 367 366 365 365 365 363 364 362 361 361 360 359 359 358 354 353 354 355 356 356 355 353 354 352 353 352 349 343 340 342 340 340 339 338 336 335 332 329 326
362 361 364 363 364 366 361 356 362 361 359 362 361 360 360 359 357 353 355 355 355 352 349 346 344 344 344 340 339 340 340 339 338 339 339 338 337 336 335 331 328 326 324
361 361 359 358 363 362 359 347 348 350 355 357 359 361 356 358 359 359 358 359 358 352 340 338 335 336 337 336 337 337 338 338 339 338 335 337 336 334 332 328 325 324 323
361 360 359 359 362 362 363 361 357 341 355 359 358 357 354 353 352 347 344 345 345 337 336 335 335 335 334 335 335 334 336 336 336 335 336 336 334 331 327 327 325 324 321
360 358 360 361 360 360 359 359 358 358 354 341 337 338 335 335 334 335 340 339 334 336 335 334 334 334 336 336 333 334 335 337 337 336 335 334 330 328 327 326 325 323 321
355 355 355 356 356 356 356 354 353 351 348 342 335 333 333 333 334 335 337 334 333 334 338 337 338 337 336 334 334 334 334 335 335 335 334 330 328 328 327 326 324 322 320
347 347 348 349 350 351 350 348 347 345 344 343 341 340 332 333 335 331 334 337 336 336 336 337 335 334 333 332 331 332 332 335 335 334 333 330 328 327 326 324 322 319 316
346 346 346 347 347 347 346 346 345 345 344 342 341 335 334 335 334 333 334 335 334 335 336 337 336 335 332 332 334 334 335 335 334 333 330 328 327 326 324 322 320 318 313
343 344 345 344 344 344 343 341 341 339 337 336 332 328 329 333 333 332 332 334 335 336 336 336 335 333 333 333 334 334 333 332 331 330 329 327 326 324 321 319 316 313 312
340 340 341 339 338 339 339 339 339 339 339 336 334 332 332 335 336 335 336 335 334 334 334 336 335 334 334 333 332 331 330 329 329 328 326 325 323 321 318 316 313 312 311
338 339 339 336 336 336 337 336 334 334 337 337 336 336 335 336 335 335 337 337 336 335 334 333 332 331 330 329 328 328 327 326 325 324 323 321 320 318 316 313 312 311 310
336 336 336 334 334 334 335 334 334 334 334 334 333 335 335 335 335 334 333 332 330 329 327 326 325 325 324 324 323 322 320 322 322 321 321 320 318 315 313 312 311 310 310
331 331 332 332 331 330 329 328 328 326 326 327 328 330 329 328 329 329 329 328 326 325 323 322 321 321 320 319 318 317 315 317 318 316 316 315 314 313 312 311 311 310 310

GFSGL_925_thetae_054.txt.gz
Theta_e
364 365 364 364 365 360 357 358 353 353 352 355 360 361 357 358 356 360 360 359 357 358 356 353 352 345 343 340 340 340 339 337 342 338 341 338 338 336 338 338 337 337 337
364 365 365 365 365 365 361 359 359 359 361 354 356 360 359 357 358 361 361 358 361 361 357 354 356 351 344 340 343 339 339 339 339 342 342 339 338 337 335 339 339 338 337
363 366 366 365 366 366 365 361 361 361 360 364 362 359 360 360 359 360 362 363 359 361 361 357 352 354 351 342 339 342 340 339 342 340 343 341 340 340 339 337 339 340 339
360 365 366 366 366 367 366 365 363 361 364 362 364 364 361 362 360 360 362 363 363 360 361 361 358 354 352 351 344 338 341 342 339 341 341 340 341 341 338 341 341 341 340
359 362 365 365 365 366 366 366 366 365 363 365 365 365 365 363 363 361 361 363 364 363 360 361 361 358 353 351 351 344 340 339 346 342 343 342 340 342 341 340 341 340 341
359 360 363 365 366 366 366 366 366 366 366 365 367 367 366 366 365 363 361 361 364 364 364 361 361 360 357 354 351 349 343 341 343 344 343 342 341 339 341 340 340 341 340
359 361 362 365 366 367 368 367 367 366 367 366 367 367 367 366 366 364 362 361 361 362 364 363 361 361 359 357 354 351 349 346 340 341 342 342 341 340 338 342 341 339 338
359 361 364 365 366 367 368 369 368 367 367 368 367 368 367 367 366 365 363 361 361 361 361 363 363 361 361 359 355 352 349 347 345 344 343 340 341 341 342 341 339 339 340
362 362 361 365 367 368 369 369 370 369 369 368 369 368 368 368 367 366 365 363 359 360 361 361 362 362 361 360 358 354 351 347 346 343 344 342 340 334 335 334 339 342 340
363 363 363 362 366 368 368 369 370 370 369 370 369 369 368 368 368 367 366 364 361 359 359 360 361 362 362 361 360 355 354 352 347 344 343 341 341 339 340 338 338 338 339
363 363 362 363 364 367 368 369 370 370 370 369 369 369 369 369 369 368 367 364 363 361 360 359 359 360 360 361 360 358 356 355 351 345 342 341 340 337 338 337 338 338 338
360 363 364 365 363 366 368 369 371 371 370 370 370 369 368 369 368 368 368 366 363 361 361 361 360 359 359 359 359 359 359 356 351 343 340 339 338 337 337 338 338 336 336
360 364 364 365 367 364 368 370 371 371 371 370 368 370 368 367 368 367 366 366 365 361 358 357 356 357 358 356 356 356 357 354 346 341 341 340 339 339 338 338 337 337 335
368 366 367 368 368 368 366 369 371 370 370 369 368 367 366 367 364 366 366 365 364 362 361 359 357 356 355 355 353 349 349 351 346 343 343 341 340 338 338 338 337 335 331
369 369 369 368 369 371 364 361 368 369 365 368 366 366 365 364 364 362 364 361 360 359 357 356 355 353 351 351 351 351 344 347 345 343 342 341 341 340 339 337 336 333 329
366 368 367 366 368 368 350 344 351 354 354 357 362 362 357 359 359 356 357 354 355 356 354 352 349 345 343 342 342 342 339 340 339 339 339 341 340 338 336 336 332 329 327
367 363 363 363 364 366 358 351 341 343 355 357 358 358 358 358 355 355 356 356 356 355 351 342 340 337 337 337 337 337 338 339 340 341 340 339 337 336 335 333 328 327 326
364 361 362 360 362 365 366 363 355 350 351 337 338 342 341 338 337 338 341 342 338 338 338 337 336 335 335 335 336 335 335 336 337 338 336 335 335 334 333 328 326 326 324
363 361 362 362 362 363 362 361 359 358 348 339 332 333 333 334 335 337 337 336 337 338 336 337 337 337 337 337 336 334 334 334 336 336 334 334 334 332 328 327 327 326 324
352 355 358 357 357 356 355 354 351 350 347 344 343 337 334 337 336 334 337 336 336 336 336 335 336 337 336 336 335 334 334 334 335 334 334 334 332 329 328 328 326 324 323
349 351 351 352 351 350 349 347 347 346 345 344 342 338 338 339 337 335 336 337 336 337 337 338 336 336 335 335 333 333 332 332 333 334 334 331 329 329 328 326 325 320 318
348 349 349 348 347 347 346 345 345 343 341 339 336 331 333 336 334 334 334 336 336 336 337 337 337 337 336 335 334 334 335 336 335 334 333 331 329 328 327 326 323 320 316
345 344 344 342 341 340 340 340 340 339 337 337 334 333 334 336 335 334 334 335 337 337 337 337 337 336 334 335 335 334 335 335 334 332 330 328 328 328 324 322 320 317 314
337 335 336 337 337 337 337 337 336 337 337 337 337 336 336 336 337 337 336 337 335 335 336 337 337 334 334 333 333 333 332 332 331 331 330 329 326 325 322 320 316 314 313
334 333 332 332 334 333 332 335 333 334 333 334 332 332 338 337 337 337 338 336 336 335 334 332 332 333 332 331 330 330 329 329 329 328 326 324 323 321 320 317 314 313 312
327 330 330 328 327 328 328 327 326 322 323 324 322 324 326 328 329 331 331 331 330 329 328 327 326 326 325 325 323 322 320 322 324 323 323 321 321 319 317 315 313 313 311

GFSGL_925_thetae_057.txt.gz
Theta_e
359 357 359 360 358 353 357 359 349 345 352 359 358 358 356 353 356 359 357 355 359 358 357 355 351 345 335 338 339 339 339 338 338 337 339 338 338 338 338 338 337 337 338
358 360 358 360 363 361 355 355 358 351 344 350 358 361 356 354 355 356 358 357 356 357 358 357 354 352 350 337 340 340 339 339 338 337 338 342 338 336 336 338 338 339 337
358 359 362 360 362 364 362 356 354 356 352 345 348 358 360 357 357 355 352 359 359 359 357 357 356 353 352 351 342 342 341 339 339 340 338 341 338 337 337 337 336 336 338
358 361 361 363 363 362 364 363 358 356 357 354 353 353 359 360 357 355 355 353 356 355 356 360 359 356 353 352 350 343 340 342 339 341 344 343 341 339 337 338 338 337 337
359 361 362 363 364 363 363 364 363 358 359 358 357 362 360 361 360 358 356 356 358 358 355 357 359 360 359 355 352 349 344 340 344 341 341 342 341 343 343 340 338 338 339
353 361 362 364 364 364 364 364 365 364 360 360 363 360 362 363 362 360 359 359 359 359 361 360 358 360 361 360 357 353 349 344 338 343 342 340 341 340 341 341 340 342 342
355 355 361 363 365 365 365 365 365 365 365 363 361 364 363 363 363 362 362 360 360 361 361 361 361 359 360 361 359 357 354 352 348 339 341 342 340 341 340 341 341 340 340
355 357 357 362 364 365 365 365 365 365 365 365 365 364 365 365 364 363 363 363 361 360 360 362 362 361 360 360 359 358 355 353 352 349 342 340 341 342 340 338 341 342 340
359 359 359 362 364 365 365 365 366 365 366 365 365 365 365 366 365 365 365 365 362 361 361 360 361 362 362 361 360 358 356 354 351 351 349 346 342 340 341 340 338 340 339
358 362 361 362 364 365 366 366 367 366 366 366 366 366 366 366 366 366 366 365 361 360 360 360 360 360 361 362 361 359 357 355 353 350 348 346 344 342 341 338 337 338 338
362 358 358 363 364 366 365 366 367 368 368 367 367 367 367 367 367 367 367 366 364 363 361 359 358 358 359 361 362 362 359 358 356 353 348 344 343 342 340 338 337 337 336
349 361 363 361 363 366 367 367 368 368 369 368 368 368 368 368 368 368 367 367 366 364 364 362 361 360 359 358 358 358 360 361 358 353 345 343 342 340 339 339 339 338 339
352 362 362 362 363 362 367 368 368 369 369 369 368 368 368 367 368 368 368 368 368 368 365 364 362 361 359 359 357 357 358 356 355 353 348 345 342 342 340 337 338 339 338
356 364 366 364 364 364 362 368 369 369 369 369 369 368 367 368 367 366 367 368 368 367 367 365 362 359 358 357 356 355 354 353 351 352 349 347 343 340 338 337 337 337 337
354 362 368 367 365 368 364 367 369 369 369 369 368 367 367 365 365 367 366 364 367 366 366 362 357 356 356 355 353 351 350 349 348 348 347 342 341 339 338 336 336 336 330
361 356 370 369 368 368 360 351 357 363 365 368 368 368 365 363 364 363 364 363 363 364 356 356 354 353 349 346 345 343 342 342 342 343 340 340 340 338 337 337 336 332 327
366 362 363 369 369 360 349 348 342 347 353 358 360 362 363 359 358 355 356 356 354 354 353 351 347 345 343 340 339 339 338 339 340 340 340 340 339 337 335 332 332 332 328
360 366 366 364 365 361 353 349 349 346 345 347 352 356 356 356 355 355 355 356 353 353 350 346 342 339 337 337 337 337 338 337 337 340 339 338 337 336 334 333 331 329 328
362 367 364 361 362 364 357 350 348 347 337 333 334 335 336 337 339 339 340 340 338 337 337 337 337 336 336 335 335 335 334 334 336 337 337 337 335 334 332 331 329 327 324
354 358 361 361 362 363 360 357 347 340 336 334 333 332 335 335 335 336 336 336 337 337 337 337 337 337 337 337 337 335 334 334 334 335 334 334 334 333 331 329 327 326 325
351 354 354 352 350 349 348 348 346 344 343 339 336 334 337 337 335 337 336 335 336 335 337 337 336 335 335 335 334 333 334 334 333 334 334 334 333 330 329 327 325 325 324
351 351 348 347 347 347 347 346 345 341 339 336 335 336 336 336 335 335 336 336 335 336 337 337 336 336 335 334 333 332 332 332 333 333 333 333 332 329 328 327 326 326 323
349 350 346 346 343 342 341 342 338 336 335 333 332 333 335 334 334 333 334 335 337 336 336 336 335 336 336 335 334 335 334 335 334 333 333 332 329 328 328 327 325 322 319
337 336 334 335 337 336 335 336 336 335 334 333 334 334 335 336 335 334 334 334 336 336 337 337 337 336 334 334 334 334 334 334 333 333 332 331 329 328 327 326 325 322 319
330 331 332 331 331 330 327 325 325 325 325 324 324 325 326 329 332 334 336 337 336 335 335 336 336 333 333 333 333 333 332 332 332 332 331 329 329 327 326 322 320 315 315
326 326 326 326 325 323 321 319 318 318 318 318 318 318 320 320 320 319 321 323 328 330 330 331 329 331 329 326 323 322 324 327 328 330 329 326 324 324 322 320 317 314 313

GFSGL_925_thetae_060.txt.gz
Theta_e
350 353 352 351 349 350 355 355 349 347 348 350 351 354 355 355 354 356 355 353 355 357 356 354 352 347 338 337 339 339 339 337 336 336 337 339 339 339 338 338 338 337 335
351 351 353 353 353 350 349 354 356 353 347 347 354 358 353 354 356 354 355 354 354 357 357 356 355 354 351 338 336 338 339 339 338 336 337 337 338 339 339 338 338 337 336
352 352 353 355 355 355 353 350 350 353 352 347 346 349 359 358 356 354 354 355 356 354 355 356 356 356 354 352 347 338 337 341 340 339 339 337 337 339 339 339 338 337 336
354 355 354 354 357 358 357 355 352 349 354 354 349 345 350 358 358 354 353 355 355 353 354 353 353 356 355 355 353 349 346 341 342 341 339 339 339 340 338 337 337 337 337
355 355 356 356 355 357 360 359 357 354 352 351 353 352 349 351 355 358 354 354 354 353 353 355 356 356 356 357 355 354 351 349 345 342 341 341 341 341 340 338 337 337 337
354 355 355 356 358 357 358 360 360 359 357 355 354 354 355 354 354 355 357 357 355 355 354 352 352 352 353 354 356 357 356 353 347 342 340 339 340 341 342 340 339 338 338
353 354 355 357 358 360 360 360 360 361 360 357 357 356 355 356 357 358 358 358 357 357 357 356 356 356 354 354 354 357 358 358 356 351 341 340 340 339 339 340 341 340 340
350 355 356 358 359 360 361 361 361 361 362 361 358 358 359 358 357 358 360 360 359 358 358 357 357 357 358 358 358 358 358 358 357 354 351 348 344 343 340 339 339 340 339
349 349 357 359 361 361 362 362 362 362 362 362 362 361 359 360 360 360 360 361 360 359 359 358 358 359 359 359 359 358 358 356 357 357 358 357 355 349 346 340 340 339 339
350 351 352 356 360 361 362 362 363 363 363 363 363 363 363 363 362 362 363 363 360 359 360 360 360 360 359 360 361 360 358 358 357 356 356 353 352 351 344 341 342 340 338
354 353 355 355 356 360 362 362 362 363 363 363 363 363 363 364 364 364 364 364 362 362 361 360 360 359 359 359 359 359 360 360 359 358 355 352 349 348 348 343 341 340 338
360 358 358 359 358 360 361 362 363 363 364 364 364 364 364 364 364 365 365 364 364 363 363 362 361 361 360 359 358 358 358 359 359 358 357 352 348 346 345 344 341 340 337
347 352 360 360 361 362 362 362 363 364 364 365 365 365 365 365 366 366 366 366 366 366 364 364 363 363 363 361 360 359 355 354 354 349 353 355 352 349 345 342 338 336 337
353 351 356 361 362 362 364 364 364 365 365 365 366 366 366 366 366 366 366 367 367 367 367 365 364 364 363 361 360 358 356 353 349 345 347 350 351 349 343 340 337 337 337
363 360 356 361 364 363 362 365 365 366 366 366 366 366 366 366 366 367 367 366 366 366 367 363 359 359 359 357 356 354 351 348 347 344 345 345 343 342 338 336 335 336 333
355 358 361 362 362 363 362 356 361 364 366 367 367 367 367 367 367 366 365 365 364 365 360 357 355 354 352 352 350 347 345 343 342 341 341 341 340 338 335 333 334 332 331
351 351 354 358 362 363 355 348 343 349 358 363 366 367 367 367 365 364 363 363 361 361 357 355 353 351 348 346 344 340 339 339 338 339 338 339 338 337 335 334 332 333 328
349 351 352 355 361 363 356 351 349 348 347 351 357 361 363 364 360 356 356 356 353 353 354 351 348 347 345 341 338 337 337 338 338 338 338 338 337 336 334 332 332 329 325
349 352 353 358 362 362 358 351 349 349 347 344 342 346 350 353 354 354 354 353 352 350 349 347 345 341 337 336 336 335 334 334 335 335 337 337 336 334 333 332 331 329 326
348 352 354 354 361 360 356 349 347 343 341 337 336 338 338 338 339 339 339 339 339 338 337 337 336 336 336 336 335 336 335 334 333 335 336 337 335 334 333 332 331 327 326
348 352 351 352 357 359 355 350 344 339 336 334 334 335 336 336 336 336 336 337 337 336 336 336 336 335 335 336 335 334 333 332 333 333 334 334 334 334 333 333 331 330 324
349 351 348 347 350 350 347 344 342 340 337 335 334 335 337 336 336 336 335 335 335 336 337 337 336 334 334 334 332 332 332 332 333 334 334 333 333 332 331 330 329 326 323
349 349 345 343 343 343 339 338 337 335 334 335 334 334 336 335 334 335 335 335 335 335 336 336 336 336 335 335 334 333 332 332 332 332 333 333 333 330 328 329 327 324 323
346 343 337 335 335 334 331 329 330 331 330 331 332 333 334 333 332 333 333 335 337 336 336 336 336 336 335 334 334 334 335 334 334 333 333 332 333 330 328 327 326 325 324
335 334 333 330 328 326 324 323 323 322 322 323 323 324 324 327 329 329 332 334 334 335 335 336 336 335 333 333 333 333 333 333 333 333 332 332 331 329 328 328 326 325 323
326 325 324 322 320 319 318 316 315 315 315 315 315 315 315 315 316 318 320 325 326 327 328 331 333 333 332 329 325 326 329 331 331 331 332 331 330 329 328 326 325 323 322

GFSGL_925_thetae_063.txt.gz
Theta_e
349 349 349 349 349 349 349 348 348 346 346 345 345 346 350 351 352 353 355 355 353 353 352 353 353 352 349 345 342 339 339 338 334 335 335 336 337 339 339 339 339 338 337
348 349 349 349 350 349 350 349 348 347 346 346 345 345 348 352 353 353 353 354 355 354 352 353 354 354 353 351 348 342 340 339 339 337 338 337 336 336 337 338 338 338 338
346 348 350 349 348 348 349 351 351 350 348 348 347 349 351 351 352 352 353 354 354 354 353 351 352 355 355 354 353 352 347 342 339 339 338 338 338 338 337 337 338 338 338
347 348 349 350 350 350 349 348 348 349 350 350 350 349 347 348 353 356 354 356 355 353 353 353 353 352 353 353 352 352 353 352 348 343 339 339 339 339 338 338 338 338 339
348 349 349 349 350 351 351 350 349 349 348 348 347 349 349 347 346 349 357 356 355 354 353 353 354 353 348 350 350 351 353 353 350 347 343 341 340 339 340 339 339 338 338
350 349 350 350 350 352 353 353 352 351 350 350 350 347 348 349 348 344 345 354 356 355 353 353 353 353 352 351 351 353 354 352 350 348 346 345 343 342 341 339 339 337 336
350 351 351 352 352 352 353 356 356 355 354 352 352 351 350 349 348 348 348 351 353 354 354 354 354 354 354 353 353 353 353 354 355 354 350 347 346 345 342 341 339 339 338
350 351 352 353 354 354 353 354 356 357 357 355 354 354 353 353 352 351 350 351 353 354 355 355 355 355 355 355 355 355 355 355 355 355 355 354 353 352 346 343 341 339 340
348 351 352 353 353 354 357 356 356 357 358 358 357 356 355 356 355 353 353 355 356 356 356 356 356 356 356 357 356 356 357 357 357 357 358 358 357 357 353 348 339 338 338
347 350 351 352 354 355 355 357 357 358 358 359 360 359 358 357 357 357 357 356 355 356 357 357 358 358 357 358 357 358 357 357 358 357 356 357 358 358 357 352 345 341 340
346 346 349 353 354 356 357 358 359 359 360 360 361 360 361 361 361 360 359 359 358 358 358 358 358 358 359 359 359 358 358 359 359 359 359 357 356 355 356 356 351 343 342
348 348 348 349 352 356 357 359 360 360 361 361 361 361 361 362 362 362 362 362 361 360 361 361 361 361 361 360 359 359 358 358 358 356 355 355 356 355 354 353 351 348 344
356 356 354 351 352 352 356 358 359 360 360 361 361 361 361 362 362 362 362 362 362 362 362 362 363 362 362 362 362 361 359 357 355 350 350 351 351 350 351 351 347 342 339
358 356 357 358 358 356 356 357 358 360 360 360 361 362 362 362 363 363 364 364 364 364 364 363 362 362 362 362 362 361 359 355 352 350 349 349 347 347 348 346 343 337 333
350 352 356 359 359 359 360 361 360 360 361 361 361 362 363 363 364 364 365 365 365 365 366 360 357 358 358 358 358 357 355 352 350 346 343 342 343 343 341 339 337 336 334
348 349 348 350 354 360 360 358 360 362 363 363 364 363 364 364 364 365 365 366 366 365 361 355 355 355 354 354 354 352 349 346 342 341 339 340 340 338 337 336 336 335 334
344 347 348 349 350 353 358 355 346 349 358 361 364 365 365 365 366 366 366 365 364 363 356 357 355 354 353 354 351 349 343 340 338 338 338 339 335 335 333 332 332 331 330
341 345 347 349 351 352 355 357 352 348 344 349 356 363 365 365 366 366 365 364 357 352 355 353 352 352 351 348 344 342 338 337 337 335 335 338 337 336 334 333 331 328 325
339 343 346 348 351 352 356 357 356 352 349 347 345 350 358 360 359 359 358 356 354 350 352 351 350 348 346 343 338 337 336 335 334 334 335 334 334 334 334 332 330 329 326
339 340 344 347 350 350 354 355 351 350 346 342 343 347 346 346 345 347 350 351 351 351 349 348 346 343 338 336 335 334 334 334 333 333 334 334 334 333 333 332 332 329 326
340 341 343 347 349 349 353 352 350 347 344 339 341 344 344 345 344 342 340 339 341 342 339 337 336 336 336 335 334 334 334 331 330 332 334 334 333 332 333 332 332 331 328
339 342 343 348 348 349 352 352 348 344 341 338 338 339 336 337 338 337 337 337 336 336 336 335 335 335 334 334 335 333 332 331 330 331 333 333 334 333 332 332 331 329 327
337 341 344 347 346 347 350 346 342 338 335 335 335 335 336 335 336 335 335 335 335 336 336 336 335 334 333 333 333 332 332 331 331 332 333 333 332 332 332 331 329 327 324
336 343 344 341 339 338 337 334 334 333 332 332 333 335 334 333 334 334 333 334 334 334 335 336 335 335 335 335 334 333 333 333 333 333 332 332 332 332 330 328 328 327 324
339 340 335 332 331 327 326 325 325 325 325 326 325 325 327 328 327 330 331 333 334 335 334 335 335 334 333 333 333 333 334 333 333 332 332 333 332 332 330 327 328 327 325
325 324 324 323 323 321 319 317 315 315 313 313 315 317 316 311 317 318 320 324 326 327 327 327 328 328 328 330 331 331 332 331 332 332 332 331 332 332 330 328 327 326 325

GFSGL_925_thetae_066.txt.gz
Theta_e
346 346 346 347 346 346 346 346 346 345 344 342 344 345 344 344 346 348 350 352 354 354 353 350 350 351 351 350 348 346 342 339 336 337 336 337 337 337 336 336 337 338 339
346 347 347 347 347 347 347 346 346 346 346 344 343 345 345 345 345 349 351 352 352 354 354 353 351 351 352 353 352 351 347 344 339 338 337 337 337 337 338 337 337 336 337
347 348 347 347 347 347 347 347 347 347 346 346 346 344 343 343 344 346 351 353 353 353 353 353 353 352 351 351 352 354 352 352 351 344 340 339 337 336 336 337 338 337 337
346 347 348 348 348 348 347 347 347 347 347 346 346 345 344 344 345 347 349 350 351 352 352 353 353 353 351 351 351 350 352 352 352 350 345 344 343 345 342 340 340 340 339
345 346 348 348 348 348 348 348 348 349 348 347 347 346 345 346 345 346 347 350 353 355 354 354 353 352 351 351 353 352 350 350 349 347 346 346 344 344 342 344 342 343 342
346 345 346 347 348 348 348 347 347 347 347 348 347 346 347 346 344 346 346 346 346 348 355 355 354 353 352 351 351 352 353 351 350 350 349 348 348 347 346 344 343 340 341
347 346 346 347 347 348 349 349 349 348 348 348 348 348 348 346 344 344 344 348 349 347 346 350 354 354 353 352 352 352 353 353 354 353 353 353 352 351 350 348 345 341 342
347 347 347 347 348 348 349 350 351 350 350 349 349 349 349 348 347 346 344 347 349 350 349 347 348 349 350 350 351 352 353 354 354 355 355 355 355 356 354 353 350 347 343
348 348 348 349 349 349 350 350 352 353 353 353 352 351 350 351 350 350 350 350 350 350 351 351 351 351 351 352 353 354 355 355 355 356 357 358 357 357 357 352 347 346 344
348 348 349 350 351 351 351 351 351 353 354 355 355 354 353 353 353 353 353 352 351 351 352 352 352 353 354 355 355 355 355 356 356 357 357 357 358 358 358 358 357 346 346
346 347 349 350 351 351 352 353 353 354 354 355 356 356 356 356 356 356 356 355 353 353 354 354 355 356 356 356 357 356 356 358 357 358 358 358 357 357 357 356 354 353 346
345 347 348 349 350 351 352 353 354 355 356 357 357 358 358 358 359 359 359 359 358 356 356 357 357 358 359 360 360 359 359 359 357 355 354 354 354 354 353 351 350 350 348
344 344 346 348 351 352 353 354 355 356 357 358 359 359 359 360 359 360 361 360 361 359 359 359 359 360 360 361 361 360 360 358 357 352 350 353 354 351 347 346 346 344 341
352 351 347 347 348 351 354 355 356 357 358 358 359 359 359 359 359 360 360 361 361 361 361 360 359 360 361 361 361 361 361 362 359 357 354 353 348 345 343 343 341 337 335
351 354 356 357 356 354 352 353 355 356 357 358 358 359 360 360 360 361 361 362 362 362 363 359 355 356 355 357 358 358 358 357 354 353 350 346 342 340 339 338 337 334 332
344 346 348 350 354 358 357 357 357 357 357 358 359 359 360 360 360 362 362 363 363 364 361 355 355 355 355 356 356 355 353 351 350 348 343 340 339 338 337 335 334 334 333
339 343 345 347 348 350 353 354 351 354 358 359 360 360 361 362 362 363 364 364 364 364 356 356 357 357 357 356 355 354 352 349 346 341 339 339 337 337 335 332 333 334 331
333 337 341 344 346 349 351 352 352 351 348 352 355 359 362 362 363 363 364 364 362 360 361 357 356 356 356 355 354 351 348 343 339 337 337 337 335 335 333 331 331 329 328
330 330 336 340 344 347 349 350 352 352 352 351 350 351 353 358 361 362 363 363 361 358 359 354 353 352 353 353 351 347 344 339 337 335 334 334 334 334 334 331 331 330 327
323 325 331 336 340 344 348 349 347 349 350 347 346 347 348 346 350 355 357 356 355 354 353 352 351 350 349 347 345 340 336 335 334 334 333 333 334 334 333 331 329 327 326
325 325 329 336 338 342 346 347 349 348 348 346 346 349 350 348 346 348 348 348 349 350 350 349 347 346 344 339 336 335 334 333 333 332 332 332 333 333 333 332 331 328 326
323 327 331 336 339 341 344 347 349 348 346 345 342 342 343 344 345 346 345 343 341 341 341 340 338 336 335 335 335 333 333 332 331 330 331 331 332 332 332 332 330 327 325
323 326 330 333 338 341 343 345 346 344 343 341 339 340 338 339 339 337 337 336 336 336 335 335 335 334 333 333 333 334 332 331 330 330 332 332 333 330 329 330 330 327 325
323 326 330 334 337 339 341 342 343 340 339 337 336 335 334 336 334 334 334 334 334 334 335 335 334 334 333 333 333 333 332 331 331 331 332 332 330 332 330 329 329 329 326
327 329 331 335 337 337 336 336 333 332 331 331 328 330 331 330 329 329 331 332 332 333 334 334 334 334 334 334 333 333 333 333 333 333 333 332 332 332 331 328 327 326 324
314 320 322 322 321 320 318 315 314 315 315 315 317 321 318 315 315 320 321 324 325 325 326 326 327 328 328 328 329 331 333 333 332 332 332 332 332 331 331 328 327 326 325

GFSGL_925_thetae_069.txt.gz
Theta_e
348 348 348 348 348 348 348 347 346 344 344 344 342 342 345 346 346 347 348 353 356 356 357 357 356 354 353 352 352 350 349 346 344 340 340 340 339 338 337 337 337 337 337
348 348 348 348 348 349 348 348 347 346 344 345 345 342 342 344 346 349 352 353 356 356 357 358 357 356 356 355 354 354 353 351 348 349 346 345 343 342 340 339 339 340 340
348 349 349 349 349 349 349 348 348 347 345 345 345 345 342 349 347 348 351 353 356 357 357 358 358 358 358 356 356 354 352 354 353 351 350 350 349 347 347 346 345 344 344
348 349 350 350 349 349 349 349 349 347 346 345 345 345 344 346 348 348 351 352 354 355 356 356 357 357 358 358 358 357 356 355 352 352 350 349 349 348 349 347 347 348 349
349 350 350 350 350 350 350 350 350 349 347 346 346 346 346 349 347 348 350 352 354 355 356 356 357 356 354 355 356 356 356 356 355 354 353 352 352 352 352 352 352 351 351
350 350 351 351 351 351 350 350 351 350 349 348 349 348 349 349 347 346 345 350 352 354 354 354 355 355 354 353 353 352 353 357 357 356 354 354 356 356 355 355 356 355 356
350 350 351 352 352 351 351 351 351 352 353 352 351 351 351 350 346 345 345 346 349 351 352 351 351 350 352 354 356 353 352 352 352 353 356 357 357 358 358 359 358 356 354
350 350 350 352 352 352 351 351 351 351 351 351 352 352 352 351 347 345 345 346 349 350 351 350 350 350 350 352 353 353 354 354 354 352 352 354 356 358 359 358 357 355 352
351 351 350 350 351 352 352 352 352 352 352 351 351 351 351 350 348 346 347 348 349 351 351 351 352 351 350 349 352 352 353 354 355 356 356 356 356 357 357 355 351 352 352
351 351 351 351 351 351 352 352 352 353 353 353 353 353 352 352 349 347 348 350 351 352 352 353 353 352 353 352 352 353 355 357 359 360 360 359 358 358 358 358 357 351 350
351 351 352 351 351 352 352 353 354 354 355 356 356 356 356 355 354 351 351 351 353 354 355 355 356 355 353 352 352 354 357 359 360 360 360 359 358 358 357 357 355 354 351
351 352 353 353 352 353 354 354 354 355 356 356 357 358 358 359 358 356 354 355 354 356 358 358 359 358 357 357 356 356 357 358 356 357 357 356 356 356 356 355 352 348 347
351 352 353 354 354 354 355 356 357 357 356 357 358 358 358 359 361 360 358 357 358 356 358 360 360 359 359 358 359 360 360 358 353 353 354 355 357 356 353 348 346 343 342
350 351 352 353 354 354 355 355 355 356 357 357 358 359 360 360 361 362 361 359 359 359 358 357 358 358 358 359 360 360 360 360 356 356 355 356 355 349 346 343 341 339 337
355 353 350 351 352 355 354 355 356 356 357 358 359 360 361 362 362 362 363 362 360 358 357 356 355 354 354 355 357 358 359 360 359 358 355 351 350 345 342 340 338 336 338
349 352 353 359 358 355 354 353 354 355 357 357 358 359 361 360 361 360 359 360 360 361 358 357 355 354 354 355 355 355 355 356 356 354 353 350 346 344 338 338 336 338 336
340 345 347 350 354 358 359 357 357 354 354 355 356 357 358 359 360 360 360 361 362 361 358 358 358 357 357 357 356 355 355 356 354 352 349 346 343 341 337 336 337 338 335
332 335 342 347 350 352 353 355 356 355 357 358 355 357 359 359 359 359 361 362 360 359 357 358 359 359 358 358 357 357 355 354 351 347 347 343 340 339 336 335 335 335 332
325 329 333 338 345 348 351 352 353 354 355 356 355 353 356 356 357 360 360 360 359 362 358 358 358 358 357 357 356 355 352 349 346 348 345 340 339 338 338 337 334 332 332
322 324 328 331 336 342 346 350 350 351 352 354 356 355 350 348 345 349 356 358 359 365 363 358 354 354 354 352 351 349 345 343 342 342 338 338 338 337 337 335 333 333 331
320 322 325 328 332 336 340 346 347 349 350 350 353 352 350 346 353 352 350 350 354 360 359 356 352 349 350 348 346 346 345 340 338 337 337 337 337 336 336 335 335 333 333
319 321 324 325 328 332 336 339 345 347 347 347 347 344 347 345 348 351 351 352 353 353 350 350 351 349 348 346 343 339 339 338 337 337 335 335 335 335 335 334 333 333 332
318 320 322 324 327 331 334 337 338 345 346 346 345 342 343 342 342 349 350 349 345 343 343 346 344 340 337 336 336 337 337 336 335 334 332 333 333 334 333 332 330 331 333
319 320 321 325 327 332 334 336 337 342 344 343 344 341 339 338 340 339 340 340 338 336 338 338 337 337 335 335 335 335 335 335 334 333 334 333 331 331 331 331 330 330 333
311 316 325 327 329 329 335 337 339 341 339 336 335 332 334 334 334 332 330 329 328 325 324 325 327 331 330 331 332 333 333 332 333 333 334 334 334 334 334 334 334 333 333
304 304 307 311 316 322 323 322 318 315 313 315 316 317 318 317 318 320 321 322 315 318 317 319 322 323 323 328 331 333 333 333 333 332 334 334 334 334 334 334 333 333 333

GFSGL_925_thetae_072.txt.gz
Theta_e
352 352 352 351 352 352 351 352 354 354 353 354 351 351 348 351 353 355 355 353 355 358 358 358 359 358 353 349 350 350 348 348 348 344 341 341 345 348 347 347 346 346 345
353 354 353 353 352 352 353 352 353 354 355 355 354 353 351 350 353 355 355 352 355 357 358 359 360 359 360 360 355 352 351 352 352 354 350 348 348 349 352 352 350 347 345
352 353 353 353 353 353 353 353 353 354 355 355 355 354 353 350 350 353 355 355 355 356 358 359 360 361 361 359 358 355 353 354 354 354 352 348 346 347 348 350 352 352 352
350 351 353 355 354 353 354 354 354 354 355 355 355 355 354 352 349 349 350 353 354 355 357 359 360 360 360 361 361 361 359 358 354 354 352 351 350 350 351 352 353 352 353
351 351 354 355 355 355 355 355 355 355 355 356 356 355 354 353 349 349 349 349 352 354 355 356 357 358 357 359 358 358 358 358 355 352 351 350 348 349 353 353 354 354 354
354 354 354 357 357 357 357 356 356 356 356 356 356 356 355 352 348 346 347 348 349 351 352 353 355 355 356 354 353 353 354 359 361 358 354 352 357 356 353 354 355 357 361
357 356 356 357 358 358 357 357 357 357 357 357 357 356 355 355 352 349 347 347 347 349 351 352 351 347 348 352 354 354 354 352 354 355 357 357 356 356 358 360 361 361 361
358 358 357 358 359 358 358 358 359 358 358 358 357 357 356 356 354 352 349 349 350 351 351 352 353 352 351 350 351 352 354 354 355 355 355 356 356 358 360 362 359 359 358
358 358 358 358 359 359 359 359 358 358 358 358 358 358 358 357 355 353 351 350 350 352 353 353 354 355 354 352 352 352 352 352 350 351 352 353 356 358 358 356 353 358 358
358 358 358 358 359 359 359 359 358 358 357 356 356 357 357 358 357 354 352 351 350 350 352 354 354 354 355 355 354 354 355 354 354 356 360 363 363 362 363 362 358 357 356
356 355 356 357 359 359 359 359 359 358 357 358 357 357 357 357 357 356 354 352 350 350 351 350 352 354 354 353 352 355 356 357 359 361 362 363 364 363 362 363 359 357 355
355 355 357 357 356 357 358 359 359 359 359 360 359 359 358 360 358 358 356 354 352 353 354 354 356 357 358 357 356 355 354 353 355 359 361 362 360 361 361 359 356 354 350
356 357 357 357 357 356 358 359 359 359 359 360 360 360 359 359 361 361 359 357 355 353 357 359 360 361 361 360 359 358 357 355 358 359 360 361 360 361 359 354 351 346 342
357 357 358 359 358 357 358 359 359 359 359 358 359 358 359 359 360 361 362 360 359 357 355 356 359 360 360 361 361 360 358 359 361 360 361 361 363 359 355 351 345 344 338
356 357 357 358 358 359 358 358 358 358 358 359 358 359 359 361 361 362 363 365 362 358 357 358 359 359 359 360 361 362 363 363 360 360 360 359 357 355 351 349 345 343 341
357 355 355 354 356 356 357 357 355 354 357 357 359 360 361 361 362 362 362 362 363 362 359 361 362 360 358 358 358 359 360 359 358 357 355 354 354 354 351 347 344 342 342
352 356 358 358 358 356 358 359 361 355 355 356 357 357 359 361 361 360 360 360 360 360 361 363 362 359 361 363 363 362 361 359 356 353 353 352 354 353 346 347 342 341 342
337 338 351 353 355 356 352 354 358 357 357 358 354 354 355 356 356 357 359 360 358 358 359 361 362 362 363 365 363 362 361 360 354 354 354 353 352 350 346 344 341 341 340
329 332 333 340 348 347 342 336 343 353 350 357 357 356 355 355 356 357 357 355 362 363 362 362 363 363 363 362 363 363 361 355 356 353 350 348 347 350 345 341 339 338 339
324 324 325 331 332 341 345 347 347 348 351 353 352 351 347 344 350 350 349 351 357 362 362 362 361 361 363 363 363 361 356 351 351 349 349 348 347 346 342 340 339 338 335
322 323 323 325 328 331 336 340 343 344 344 347 349 351 355 356 355 355 357 354 354 359 363 364 363 361 360 360 356 352 347 349 347 348 349 349 347 343 341 340 339 336 336
322 322 323 325 326 328 330 333 335 336 340 341 341 343 345 347 351 356 357 357 359 359 361 362 363 360 358 356 355 354 352 350 348 349 349 346 342 341 340 339 338 337 336
320 322 324 324 324 325 327 330 331 332 334 338 340 340 341 343 345 351 355 357 358 359 358 356 356 356 352 350 349 348 348 346 345 343 343 341 340 339 338 337 338 336 335
316 319 322 325 327 327 328 330 333 333 333 335 339 340 340 343 344 348 349 351 351 349 349 348 348 348 346 345 344 343 343 342 342 341 340 338 337 337 337 336 336 335 335
308 309 310 314 316 327 332 331 333 336 338 334 335 335 333 334 336 334 336 339 341 340 338 339 339 341 340 340 341 340 336 337 337 337 337 335 335 335 335 334 335 333 333
303 302 301 302 303 304 306 310 312 313 315 313 312 314 315 315 316 321 323 326 324 319 320 318 318 320 320 319 325 331 333 334 334 335 336 335 335 336 336 335 336 336 335

GFSGL_925_thetae_075.txt.gz
Theta_e
356 354 353 354 352 351 353 354 353 354 353 353 353 353 351 351 354 355 354 352 356 356 356 357 356 355 354 351 350 351 350 348 349 348 347 345 348 348 348 349 353 352 350
356 355 355 355 354 355 353 352 354 355 356 356 356 354 353 350 352 355 356 351 354 354 356 357 358 357 359 358 356 353 351 352 353 355 352 352 351 350 351 356 357 353 353
356 356 357 357 357 356 356 354 353 355 357 357 358 358 356 353 351 354 356 356 352 354 356 358 358 359 360 359 360 358 355 355 356 357 355 351 348 349 351 352 352 353 354
354 354 357 359 358 357 356 356 355 356 358 358 359 359 358 356 353 351 353 356 356 354 354 356 357 358 360 361 361 361 361 359 355 355 354 353 351 351 350 352 353 351 352
355 354 357 359 359 358 357 357 358 358 358 359 359 359 359 357 354 352 350 352 355 356 354 355 357 357 358 360 359 358 360 359 357 354 353 350 348 349 354 353 354 353 353
357 355 355 359 360 360 359 358 359 359 359 360 360 360 359 356 351 350 350 351 351 352 355 356 356 355 355 356 356 355 353 357 362 358 355 354 355 355 354 352 355 356 361
359 357 356 359 361 361 360 360 361 361 360 361 361 361 360 360 352 350 348 350 351 352 353 354 354 348 350 354 356 355 353 353 353 354 358 358 357 357 357 358 361 363 363
359 361 358 360 362 362 362 363 363 363 362 362 363 362 361 360 357 353 351 349 349 350 352 354 355 352 349 350 354 356 356 356 357 356 356 356 358 359 361 359 360 360 359
362 362 361 361 363 364 364 364 364 364 364 364 364 363 363 361 358 355 354 353 352 353 355 354 354 355 356 356 355 354 353 353 349 349 349 350 350 351 354 357 358 359 360
361 362 363 362 363 365 365 364 364 364 364 361 362 363 363 363 361 358 355 354 353 353 353 355 355 355 356 357 357 358 359 359 357 356 356 358 362 364 364 362 362 363 362
360 362 364 363 364 365 365 365 365 364 361 363 362 363 364 362 363 362 358 356 353 352 351 349 350 352 352 351 351 355 359 359 359 359 360 362 363 363 366 365 364 363 362
360 362 363 364 363 363 365 366 365 365 365 365 364 364 360 362 361 361 360 359 356 354 351 346 346 346 349 351 353 354 354 354 355 356 358 360 361 363 362 362 362 359 356
361 362 363 363 363 362 365 366 365 365 362 362 362 361 357 356 361 360 358 358 356 356 353 350 352 353 359 359 358 357 358 356 356 358 360 361 362 362 362 362 359 355 352
362 363 363 363 363 362 363 364 362 361 362 359 359 359 357 355 354 360 361 360 358 357 355 353 355 358 361 362 362 362 360 359 361 362 362 362 362 363 364 357 354 351 345
360 360 361 361 361 363 361 360 361 359 359 359 355 356 358 359 359 358 361 363 359 358 358 357 357 357 358 360 362 363 364 364 362 362 363 364 363 365 361 357 351 351 346
358 360 360 360 362 361 360 358 358 358 358 357 357 357 360 358 358 360 360 362 364 364 358 360 361 361 362 362 363 362 363 363 363 365 365 364 363 360 357 353 351 349 350
341 352 361 360 361 360 360 360 360 356 356 357 357 357 357 358 359 360 362 362 362 362 363 363 361 360 363 363 361 361 361 361 364 364 363 362 359 357 355 352 351 350 347
334 338 345 356 358 358 359 359 359 361 360 357 356 356 355 355 356 356 358 360 361 360 360 362 362 364 363 362 362 363 364 362 364 363 361 359 356 356 354 351 351 349 346
328 325 332 341 347 359 361 362 362 357 358 354 353 356 356 354 353 354 355 355 359 362 362 362 362 362 363 363 363 363 360 361 364 362 359 358 356 355 353 351 351 349 344
324 327 325 331 338 346 351 347 345 347 346 348 348 354 352 353 353 354 353 352 356 359 357 357 358 359 360 360 360 363 366 364 362 358 357 354 354 352 350 348 349 346 342
324 324 325 326 330 331 339 337 345 345 347 342 341 348 351 351 354 351 356 355 356 357 359 358 357 357 362 362 364 363 363 362 360 357 353 351 350 349 350 352 348 343 342
323 324 325 326 327 329 329 333 339 344 345 343 344 346 346 347 353 348 346 349 356 359 358 359 360 360 362 362 361 361 359 357 355 353 352 351 351 350 349 348 345 344 341
322 323 326 327 327 327 327 330 333 335 337 339 341 342 343 342 342 338 341 346 352 354 355 359 361 361 362 361 359 357 357 357 356 354 352 352 351 349 347 346 344 342 341
315 316 319 323 325 328 330 331 331 333 332 333 336 337 342 344 344 346 346 347 349 353 356 357 356 356 356 357 354 353 351 351 351 348 348 347 347 346 344 342 342 340 339
305 305 305 307 310 313 319 321 320 321 326 324 323 324 325 327 328 326 326 327 332 340 342 340 339 339 342 341 339 338 340 343 345 344 343 345 344 343 340 341 340 338 338
300 300 300 300 300 300 301 302 302 303 303 304 303 304 305 306 307 308 310 314 317 318 320 322 323 323 321 320 330 332 335 336 337 339 338 340 340 338 337 337 336 336 336

GFSGL_925_thetae_078.txt.gz
Theta_e
357 353 352 351 350 346 351 347 352 350 350 352 352 352 354 353 355 354 354 356 355 356 351 358 356 354 351 354 356 356 352 351 353 350 351 352 351 349 348 348 351 354 355
358 356 353 353 351 350 345 356 355 357 355 355 353 356 353 353 353 354 356 353 355 356 355 353 356 358 357 353 351 350 353 352 352 354 351 350 353 356 353 351 350 351 354
360 358 356 355 354 352 349 352 357 353 354 355 358 353 357 355 352 354 357 355 355 355 355 357 358 355 358 361 361 362 361 360 360 357 358 358 352 351 352 352 353 355 354
360 359 358 357 356 355 355 350 354 357 356 358 357 359 359 358 356 353 356 358 358 356 357 355 358 360 359 360 360 359 359 358 358 359 358 358 357 355 356 354 354 354 355
357 359 360 358 357 358 358 358 355 354 357 358 360 360 361 361 359 356 354 357 358 358 357 355 355 358 360 360 362 363 362 362 363 362 361 358 355 354 355 357 355 354 354
357 358 358 360 359 359 359 359 359 357 358 360 361 361 362 362 359 355 355 353 355 357 357 356 356 357 357 356 356 357 357 357 357 358 358 358 357 358 358 354 357 357 362
359 358 359 360 361 361 361 360 360 360 359 361 362 361 362 362 359 354 353 353 353 353 356 356 357 357 354 352 351 351 351 352 353 353 355 355 356 354 356 358 360 362 361
360 362 360 359 361 362 362 362 360 361 362 361 362 362 362 363 361 356 353 351 353 353 353 352 353 354 351 349 354 357 358 357 356 354 354 354 355 355 355 357 360 356 360
361 362 362 360 361 363 363 362 362 362 362 362 362 363 363 363 362 360 355 353 350 352 351 349 352 356 357 357 353 348 347 347 348 352 352 351 350 351 355 357 352 354 360
361 362 363 361 361 363 364 363 363 363 363 363 363 363 365 365 363 362 359 357 355 353 353 352 353 353 351 352 355 356 359 359 359 359 359 357 358 360 361 362 362 358 362
364 361 363 364 361 363 365 365 365 365 365 365 365 365 366 366 365 364 360 359 357 356 356 356 356 355 352 351 351 354 356 356 359 361 360 360 360 362 364 364 367 365 364
360 364 363 364 365 364 365 366 366 366 366 366 365 365 366 366 365 364 364 361 357 357 356 355 354 352 350 349 349 350 350 352 356 358 357 357 358 360 362 363 364 365 362
360 366 364 365 366 364 366 367 368 367 367 367 366 367 366 366 367 365 364 363 362 359 358 356 355 353 350 350 354 352 351 352 353 355 358 359 361 362 361 363 363 363 358
367 366 365 367 367 366 365 366 368 368 368 367 365 366 366 363 362 364 363 362 360 360 359 358 357 356 354 357 360 362 360 356 356 359 360 361 363 362 363 365 361 358 353
360 366 366 366 366 367 364 367 367 367 366 366 365 363 363 363 360 358 361 360 360 359 358 357 357 357 355 354 359 362 364 363 360 361 362 363 364 364 363 365 361 355 351
343 350 362 364 364 364 365 363 366 366 364 364 363 363 359 358 357 358 356 361 361 360 356 359 361 360 360 359 359 361 363 365 365 363 362 364 364 365 365 363 358 354 350
331 330 338 351 362 364 363 363 362 357 361 360 359 360 360 359 360 359 360 361 363 362 361 361 363 363 364 364 364 365 364 362 360 360 365 365 365 364 363 361 357 353 350
329 328 330 337 343 353 363 363 363 359 356 354 356 357 357 357 358 360 361 361 360 362 363 365 366 366 365 365 365 364 362 362 363 363 364 365 363 360 359 357 354 352 351
326 327 327 328 335 340 357 364 363 363 362 361 359 356 356 356 355 356 358 360 362 363 364 362 362 362 364 365 364 362 361 362 365 366 365 364 361 359 357 356 354 351 350
323 325 325 330 332 333 341 348 351 356 356 360 358 358 356 355 352 352 353 353 357 359 360 361 363 364 363 363 365 364 364 366 364 364 364 362 360 358 357 355 354 352 351
322 324 326 330 329 337 333 334 336 342 346 345 351 352 353 353 355 356 357 354 354 357 358 359 359 359 359 362 362 364 362 362 364 364 361 359 356 353 355 355 353 351 350
322 325 326 326 327 328 328 331 334 339 341 343 343 340 350 350 347 348 345 344 357 358 359 359 358 359 360 359 358 363 364 363 362 361 359 356 354 352 351 351 351 351 350
318 319 320 327 325 329 331 330 330 332 332 336 336 339 341 340 338 341 341 349 348 349 347 350 355 356 357 358 359 358 360 359 359 358 356 354 353 351 350 350 349 348 346
307 307 310 313 312 313 314 318 317 318 319 320 321 321 324 322 323 324 326 327 333 331 336 331 327 330 340 346 347 348 348 353 355 355 355 355 353 353 352 350 348 346 345
302 302 302 301 302 304 304 304 305 306 307 306 306 307 309 310 310 311 312 313 318 326 325 322 320 320 321 325 330 334 336 342 348 349 347 345 349 348 347 346 344 343 343
298 298 298 298 298 298 298 298 298 298 298 298 298 298 299 300 301 302 305 309 313 314 314 313 312 313 315 316 315 317 327 332 337 337 338 340 340 343 343 342 340 341 341

GFSGL_925_thetae_081.txt.gz
Theta_e
350 351 345 345 350 348 351 347 351 349 354 354 353 350 355 353 353 354 355 354 355 353 352 354 356 357 353 350 351 355 356 354 350 350 351 353 352 352 352 353 353 352 350
351 351 351 344 347 350 351 346 346 349 351 355 352 353 353 352 352 355 353 353 355 355 354 355 352 357 357 356 351 350 351 351 354 352 354 354 357 357 352 352 354 354 354
354 351 352 351 344 350 349 348 345 345 349 349 354 353 353 353 351 351 352 351 352 353 356 356 354 354 356 358 358 359 360 361 360 359 357 353 353 353 355 356 352 354 354
355 354 353 352 351 346 346 344 350 350 355 353 354 355 354 354 352 351 351 353 353 350 354 358 356 356 355 354 355 358 357 357 357 358 359 359 359 359 356 354 354 354 349
357 357 355 353 352 352 349 348 341 355 354 353 355 354 356 354 355 354 352 352 355 353 353 353 356 355 354 357 358 358 359 361 361 362 363 363 361 358 353 354 356 350 354
358 358 357 356 354 354 354 352 350 344 358 356 353 352 354 357 356 355 355 353 353 355 356 355 355 357 355 354 355 358 359 361 361 360 358 356 353 350 348 351 353 358 358
358 359 358 357 357 356 356 355 355 353 348 355 357 356 357 355 357 358 358 356 354 353 356 356 352 351 353 355 355 356 356 355 355 355 355 353 352 350 351 352 354 355 359
356 358 359 359 358 357 356 357 357 358 356 355 355 358 359 359 357 358 359 358 356 354 351 350 354 354 353 352 353 353 352 352 352 352 353 354 354 355 355 352 355 357 360
359 357 359 359 359 359 357 357 358 358 359 357 358 360 360 360 359 359 359 358 355 354 353 352 350 350 349 350 351 351 351 349 348 350 350 350 351 352 354 354 356 359 354
349 362 359 359 359 360 361 359 360 359 359 360 360 359 361 361 361 360 360 360 357 355 352 352 352 351 352 353 355 357 358 356 355 354 354 357 358 358 359 359 356 356 353
340 349 363 360 359 360 361 361 360 361 360 359 360 361 361 361 362 361 360 362 359 355 353 352 351 350 350 350 350 350 350 347 350 353 355 358 360 359 359 361 360 362 360
336 344 359 364 360 361 361 362 362 361 361 361 361 361 361 362 362 362 362 361 361 359 356 355 354 353 353 353 352 352 352 352 354 355 357 357 357 355 356 356 363 362 365
335 339 356 363 363 361 363 363 363 363 363 362 362 362 363 363 364 365 365 363 362 362 358 357 355 355 355 354 352 351 352 352 353 352 353 353 353 356 358 360 361 363 364
332 337 360 363 366 363 364 364 365 364 364 364 363 363 363 363 364 365 365 365 364 363 363 359 357 356 356 354 354 354 356 357 354 351 351 353 357 359 360 362 362 362 361
329 332 346 364 365 366 365 365 365 365 365 364 364 364 363 364 363 362 366 366 365 364 362 360 356 357 358 357 356 355 353 355 358 358 356 358 360 361 363 363 363 362 358
327 330 330 342 355 365 364 364 365 365 365 365 365 364 364 363 364 364 361 361 362 361 358 356 355 356 356 356 356 355 354 357 361 362 361 361 360 359 362 364 363 362 359
325 327 328 330 340 349 363 364 363 362 366 366 366 365 364 364 362 361 361 361 359 361 356 355 356 358 358 359 359 359 358 357 358 363 365 364 363 362 363 364 364 362 357
323 326 325 328 331 336 343 354 362 361 357 359 365 364 364 363 359 358 357 357 354 356 356 357 357 359 361 361 362 362 364 364 364 362 359 359 359 362 364 362 359 357 355
320 323 326 327 331 335 341 352 359 362 358 358 356 354 356 358 359 360 360 361 357 356 358 361 363 364 365 365 364 364 364 363 362 362 363 363 363 363 362 359 358 357 355
319 321 325 327 331 334 334 339 349 356 359 358 356 354 352 352 353 355 357 358 360 362 361 362 362 362 362 362 362 364 364 363 362 361 361 364 364 363 360 358 357 355 353
317 319 324 326 327 330 332 335 334 339 345 350 352 354 352 351 352 352 353 353 352 352 356 357 358 359 359 359 361 363 363 363 362 364 363 361 362 362 359 356 356 355 353
313 314 319 322 328 330 330 326 325 331 333 336 341 337 345 345 340 343 339 338 339 342 346 349 347 346 342 345 354 362 362 363 364 362 360 361 360 358 356 353 351 349 350
307 308 310 311 312 316 317 316 315 317 314 316 320 320 320 321 323 323 323 324 326 325 323 332 342 338 333 332 334 338 345 349 352 355 358 360 358 356 353 351 351 349 350
302 302 303 304 305 306 306 306 307 310 311 313 310 307 309 310 312 315 314 315 317 320 321 319 320 320 331 326 328 331 331 334 343 347 348 352 355 355 353 352 351 351 350
298 298 298 298 299 300 300 300 300 301 301 301 304 304 306 307 305 308 308 312 310 313 313 314 315 317 320 316 318 321 328 331 334 335 340 341 341 344 349 352 351 351 350
297 296 296 296 296 296 296 296 296 296 297 297 299 299 300 300 300 303 302 307 305 303 308 306 306 311 310 310 311 312 315 319 325 331 337 337 336 338 338 341 343 343 342

GFSGL_925_thetae_084.txt.gz
Theta_e
348 346 344 344 345 345 345 346 352 353 351 352 351 350 351 353 351 353 352 352 351 352 351 351 350 353 354 356 352 350 352 354 351 354 353 351 352 355 354 351 355 353 353
349 348 346 344 344 346 346 344 344 352 351 350 348 352 351 352 352 350 352 353 353 354 354 353 352 351 353 356 355 355 352 354 356 355 360 359 357 352 355 357 354 352 351
349 349 348 345 342 345 347 347 344 346 352 352 353 352 352 350 352 353 353 353 352 352 353 353 355 354 352 354 356 356 357 357 359 359 357 355 355 356 358 357 354 345 346
349 349 349 348 344 341 345 345 347 347 346 349 353 353 350 350 351 351 350 351 352 351 352 351 354 356 355 355 355 353 352 355 358 358 359 358 359 360 361 357 348 346 350
350 350 349 350 348 344 341 346 344 346 345 345 349 351 354 353 352 351 351 349 348 349 350 352 350 355 356 355 352 352 355 357 358 359 360 361 361 360 355 350 350 351 352
352 351 350 350 350 349 344 342 344 343 346 347 345 356 355 354 353 353 352 351 350 349 349 349 350 352 352 354 355 355 355 358 360 361 362 360 356 354 351 351 351 353 354
354 353 353 350 351 350 350 347 344 344 341 346 353 351 356 355 354 354 354 354 353 353 351 350 350 351 351 352 354 356 357 356 356 356 355 354 354 352 351 352 353 353 353
345 350 354 355 352 351 351 351 349 348 346 342 347 356 354 353 352 353 351 353 355 354 354 352 351 350 349 349 351 350 349 348 348 352 352 353 354 355 356 353 354 354 355
344 343 350 354 355 354 353 352 352 352 351 348 346 349 356 356 355 353 351 353 356 358 357 356 355 353 351 349 350 352 352 349 348 349 349 350 350 351 353 354 354 354 354
339 337 346 348 356 355 355 354 354 354 355 354 353 351 350 352 352 352 354 357 357 357 357 357 355 354 353 352 351 350 350 349 350 349 350 350 350 353 355 358 358 355 355
332 337 342 340 348 357 356 355 355 356 355 356 357 356 356 356 356 356 356 358 358 357 356 354 354 352 352 351 351 352 352 350 350 350 350 351 352 354 356 357 358 359 357
328 332 341 339 347 358 357 357 356 356 357 356 357 358 358 357 357 358 358 359 358 358 357 355 353 352 350 350 350 350 350 350 351 352 352 353 354 353 352 353 354 356 356
327 331 335 344 350 358 358 358 358 357 358 358 358 357 357 358 359 359 359 359 359 360 358 357 356 355 355 354 354 353 353 354 353 351 350 351 352 351 351 353 357 360 362
325 329 332 337 357 360 358 359 360 359 359 359 359 359 359 359 359 360 360 361 360 361 360 360 359 358 357 356 355 354 353 352 352 352 351 350 350 351 354 359 358 361 361
323 327 328 332 343 359 359 360 360 361 360 360 360 360 360 360 360 360 361 362 362 362 363 360 356 357 356 355 355 355 354 354 355 354 354 354 354 354 358 359 361 361 360
322 324 327 328 334 341 357 361 361 362 361 361 361 361 361 361 361 361 361 361 362 362 359 356 355 355 355 355 355 356 355 356 356 354 353 353 356 357 359 359 360 361 360
318 322 325 327 330 333 336 344 360 363 363 363 363 362 362 362 362 361 361 362 362 363 359 357 356 355 355 356 356 356 355 356 356 355 354 357 359 360 360 360 360 362 360
316 320 324 326 330 334 335 338 344 360 359 362 364 364 364 364 363 363 363 362 360 358 354 357 356 356 356 356 356 357 359 358 358 357 357 358 360 363 362 362 362 361 359
314 317 320 325 329 330 333 336 341 349 360 360 359 360 364 365 365 364 362 360 355 354 354 354 355 355 356 356 358 361 361 360 362 362 362 362 362 359 360 360 359 359 358
316 320 322 324 328 331 333 333 334 339 350 358 357 356 354 351 351 352 354 354 356 354 352 353 356 357 358 359 360 361 363 363 363 363 362 361 360 360 362 361 361 358 356
312 317 322 326 328 330 325 322 323 329 340 338 337 348 352 346 347 348 347 345 346 348 349 352 354 354 354 355 357 358 358 360 360 361 362 361 361 361 359 361 361 358 355
309 311 314 317 317 319 317 319 316 316 320 324 323 330 340 339 332 333 335 341 339 327 332 336 339 341 342 343 349 355 357 355 353 355 356 360 361 359 360 360 358 354 351
305 306 307 310 310 312 314 313 314 310 312 312 315 317 317 315 315 314 313 313 323 323 321 322 325 326 328 329 329 330 337 347 351 347 347 351 357 358 357 356 354 351 350
300 301 301 303 303 304 305 306 308 305 305 307 308 308 313 314 311 308 307 308 311 313 313 313 313 316 320 321 322 326 328 331 336 345 348 344 345 349 350 352 352 352 351
297 297 297 298 298 298 299 299 299 300 300 300 302 301 301 302 309 310 308 309 310 311 308 311 311 312 313 313 313 315 316 320 326 332 338 338 338 337 337 338 341 347 350
296 296 296 296 296 296 295 295 296 296 296 296 296 297 299 298 299 301 300 302 308 309 307 303 303 306 308 306 309 309 311 314 319 324 328 328 331 333 334 333 334 334 336

GFSGL_925_thetae_087.txt.gz
Theta_e
346 347 347 345 343 341 343 344 345 352 351 350 349 350 352 352 352 350 348 351 351 349 350 352 352 350 352 353 354 351 350 351 349 351 353 355 356 355 351 356 357 353 351
346 346 346 346 345 343 340 342 345 346 351 352 350 350 349 350 352 352 351 351 352 351 351 351 350 350 351 352 355 354 354 355 355 356 358 356 354 354 355 355 355 352 344
347 346 345 344 344 344 342 339 342 345 345 350 352 352 352 349 351 352 352 350 351 352 351 353 354 354 353 352 351 355 355 354 355 357 357 356 356 356 356 354 353 347 347
348 347 346 345 345 344 343 340 337 341 344 344 349 350 350 351 352 351 351 350 351 351 351 351 350 351 353 354 354 354 354 353 353 355 357 357 357 358 358 356 352 349 351
346 348 347 347 345 344 344 343 338 338 341 342 345 350 353 353 351 350 350 351 351 351 349 350 348 349 349 353 355 355 355 352 353 357 358 358 358 357 355 353 352 350 353
349 347 348 348 347 345 344 343 343 340 339 341 344 346 346 351 352 350 349 350 351 350 349 348 347 347 348 348 350 352 354 355 355 357 356 356 355 354 353 352 350 350 350
349 349 349 348 348 348 347 344 342 343 342 343 341 344 345 345 347 350 352 352 351 351 350 350 349 349 348 347 347 349 350 352 355 356 355 354 353 351 352 352 353 352 352
350 350 350 350 349 349 349 347 345 343 343 342 342 343 345 344 343 350 353 353 353 352 352 351 350 350 350 350 349 349 349 348 348 348 349 348 349 348 351 351 353 352 353
343 340 339 339 346 351 349 349 348 346 344 344 342 340 344 346 347 344 351 355 355 355 353 351 349 350 350 351 353 352 351 349 348 347 347 347 348 349 351 353 353 352 352
327 331 336 339 342 345 351 350 349 349 348 347 346 344 343 343 344 344 344 351 353 353 352 350 350 350 350 353 354 353 353 352 351 349 348 349 349 349 349 352 354 355 353
326 329 332 336 340 342 338 347 351 351 350 350 350 349 347 346 347 347 347 351 353 353 352 351 350 349 349 350 352 353 352 350 351 351 351 351 350 350 350 351 353 357 357
322 329 332 334 337 340 341 348 353 353 352 352 353 353 353 351 350 350 350 351 351 353 354 354 353 352 352 349 350 349 350 350 351 351 352 350 350 351 350 351 352 353 354
320 323 330 330 333 337 341 345 354 354 353 353 354 354 355 355 354 355 355 355 355 355 355 356 356 355 355 354 353 353 353 352 351 350 350 351 352 350 349 350 351 352 356
319 320 325 328 329 331 340 350 353 355 353 354 355 355 355 355 356 357 357 356 356 357 357 357 357 357 357 357 356 356 355 355 353 353 352 351 350 351 351 351 351 355 357
317 318 320 325 327 331 338 349 355 356 356 354 355 356 356 356 356 356 357 358 358 358 358 357 354 355 357 357 357 357 357 355 353 354 353 352 352 352 352 352 353 357 358
317 317 317 322 326 329 333 339 357 357 357 357 357 357 358 357 357 357 358 358 358 358 356 354 354 354 355 354 355 356 356 356 355 354 353 353 353 352 352 352 355 358 358
315 314 315 320 323 327 332 335 339 354 358 359 358 358 358 358 358 358 358 359 359 360 358 355 355 356 355 355 356 356 356 356 355 355 354 353 352 351 352 354 357 358 357
313 314 315 318 320 326 329 332 336 341 348 356 359 359 359 359 360 360 360 360 358 356 355 356 356 357 357 357 357 356 356 355 355 355 355 354 354 353 354 357 358 358 357
312 314 316 319 322 326 328 331 334 337 341 348 355 358 360 360 359 360 360 359 358 356 357 356 356 357 357 357 356 356 356 355 356 357 357 357 357 357 357 359 361 360 358
311 313 315 319 324 327 328 326 326 331 336 342 350 354 355 354 353 353 357 359 357 356 355 351 349 351 354 354 354 354 355 357 358 359 360 361 361 361 361 361 359 358 358
308 311 315 318 321 322 320 320 321 324 327 331 336 343 348 352 346 346 345 346 346 347 349 351 351 352 351 350 352 354 355 358 359 359 360 359 360 360 360 359 358 357 357
306 308 310 313 315 316 315 314 315 316 317 318 320 327 335 339 338 337 333 333 332 330 331 331 331 329 332 335 334 336 337 338 341 345 351 358 360 360 359 357 357 356 356
303 305 306 308 308 310 310 309 308 309 310 311 312 312 315 315 315 315 316 316 318 321 316 321 324 321 320 321 324 326 327 329 328 329 333 340 350 356 357 357 357 356 354
300 301 302 302 302 303 304 303 303 303 304 305 306 305 305 306 307 308 307 311 312 314 316 318 317 314 312 313 316 320 322 325 326 329 330 331 336 347 353 354 352 352 351
298 298 298 298 298 298 299 299 299 299 299 299 299 301 303 302 299 300 302 303 304 304 307 309 311 315 312 313 313 313 315 319 323 325 326 328 329 331 335 336 337 339 341
296 296 296 296 296 296 296 296 295 296 296 296 296 297 297 298 298 300 300 303 303 300 302 301 302 306 311 309 309 311 311 312 318 321 321 322 321 322 323 326 327 327 329

GFSGL_925_thetae_090.txt.gz
Theta_e
345 345 345 344 344 341 341 343 344 346 350 350 350 349 351 349 351 351 348 348 350 350 349 349 350 351 350 351 354 353 351 350 349 350 353 354 352 353 351 351 353 348 348
345 345 345 344 345 344 343 340 339 345 345 348 352 350 350 350 351 351 352 350 348 350 350 351 350 350 350 350 351 352 354 354 353 354 355 353 353 353 354 352 349 348 349
345 345 346 346 345 345 343 342 340 342 344 344 346 351 350 350 349 350 351 352 351 349 350 351 351 353 353 353 353 352 351 354 353 353 354 354 355 355 353 349 349 348 349
346 345 345 345 345 345 345 343 342 339 340 343 345 346 350 351 351 351 350 351 351 350 348 349 350 350 349 349 351 354 354 354 354 353 353 355 355 353 353 353 350 350 351
346 347 346 345 344 344 344 344 344 343 340 338 343 344 345 348 351 350 351 351 351 350 350 349 349 348 348 348 349 349 353 355 354 354 353 354 354 354 354 351 350 350 350
347 345 347 346 345 345 344 344 343 343 343 341 338 342 343 344 348 350 351 351 350 350 350 350 349 348 347 346 347 348 348 351 353 354 354 355 355 353 351 349 350 350 352
345 347 346 347 347 346 346 345 344 343 344 343 341 339 341 342 344 346 348 351 350 349 349 350 350 349 349 348 348 348 347 348 350 352 353 352 350 347 348 350 350 350 351
336 345 348 347 347 347 347 346 346 344 343 344 343 342 340 338 340 343 345 346 348 350 350 351 351 350 349 350 349 349 350 349 348 349 349 348 348 348 349 350 350 350 351
324 328 334 339 347 348 347 347 347 345 343 342 344 344 343 342 339 335 339 344 345 346 349 352 352 351 349 349 349 350 351 350 350 350 350 349 348 347 348 350 350 349 352
320 323 327 332 337 342 348 349 348 347 347 344 343 343 344 344 344 342 340 341 346 348 349 350 350 349 346 347 348 349 352 348 349 349 349 349 349 349 350 349 349 351 353
322 321 325 328 333 338 341 341 345 349 349 348 347 346 345 345 345 344 343 345 347 347 348 347 343 338 342 346 346 349 349 346 350 351 350 350 350 349 349 349 349 350 352
317 322 321 325 329 334 339 340 339 345 350 350 349 349 349 348 348 348 347 345 345 347 347 347 346 345 344 346 349 350 350 349 350 350 349 349 349 349 348 349 350 350 351
317 317 319 321 326 329 333 337 340 343 349 351 350 351 351 351 351 351 351 349 348 348 349 350 350 350 351 353 354 353 353 352 351 350 349 351 351 350 351 350 349 349 351
317 316 317 318 321 327 329 333 338 343 348 352 352 352 353 353 354 353 353 352 352 351 350 351 352 353 354 355 355 356 355 355 354 354 353 355 354 352 351 350 350 350 350
316 317 316 316 318 322 327 330 334 338 348 352 353 353 353 353 354 354 354 355 355 355 354 354 351 352 353 353 354 356 356 356 355 356 354 354 353 352 352 352 351 351 351
314 316 315 314 316 320 325 328 332 338 345 353 354 353 354 354 354 354 354 355 355 356 353 351 352 352 352 352 353 353 351 353 355 355 353 352 350 350 350 351 351 351 352
313 314 314 313 315 318 321 328 330 333 337 344 354 355 354 355 355 355 355 355 355 356 354 352 353 354 352 352 354 354 354 354 356 355 353 352 351 350 350 350 350 352 354
311 312 312 313 315 317 320 327 328 331 334 338 343 349 356 356 356 355 356 357 355 352 352 356 355 355 354 354 357 356 355 355 355 355 354 354 352 350 349 349 352 354 356
309 310 311 312 315 318 321 325 328 329 329 333 336 344 351 354 352 351 354 355 353 352 351 353 356 357 356 357 356 356 356 355 355 355 354 353 354 353 352 353 354 355 357
308 309 309 310 316 321 324 323 323 323 324 328 333 336 340 341 350 351 348 347 350 353 353 352 353 354 355 356 355 354 354 354 354 353 353 354 355 355 355 356 356 357 355
306 307 308 309 314 318 319 319 318 318 319 322 323 324 329 336 346 348 347 343 341 345 348 348 348 348 347 347 347 348 347 347 350 352 354 354 355 355 356 357 358 358 357
304 304 306 307 310 313 314 314 313 312 313 314 316 318 322 327 330 332 332 331 329 329 329 332 329 327 337 336 334 336 338 339 339 339 341 342 345 348 353 355 356 356 355
302 302 303 305 307 308 309 309 307 306 307 308 309 310 312 314 316 316 314 315 317 318 319 320 320 319 319 320 324 324 324 325 332 332 332 334 335 338 343 349 352 353 352
300 300 302 302 303 303 304 304 303 302 303 303 304 304 305 305 306 306 308 309 310 309 309 313 314 313 316 319 319 321 322 322 326 326 327 329 332 334 337 340 340 345 349
298 298 298 299 299 299 299 299 299 298 299 299 299 299 300 300 300 302 302 302 302 304 303 305 307 307 308 309 312 315 317 320 321 323 323 325 327 329 330 332 333 334 334
296 296 296 296 296 296 296 296 296 296 296 297 297 296 296 296 297 298 299 299 300 300 300 303 305 307 308 310 310 311 314 317 322 319 321 320 321 322 322 321 322 323 323

GFSGL_925_thetae_093.txt.gz
Theta_e
349 348 348 346 344 344 343 347 348 346 345 347 350 351 350 351 353 350 351 352 352 355 354 353 354 352 353 353 355 355 355 354 353 351 354 354 357 358 357 356 354 352 351
348 348 349 348 346 346 344 341 343 347 345 345 349 350 351 353 352 349 348 353 354 353 354 355 354 353 355 354 354 356 355 357 356 356 355 355 356 358 359 358 355 351 353
347 346 347 349 348 348 346 343 342 342 345 346 347 347 351 352 353 350 352 355 355 355 354 354 354 355 356 355 357 356 355 356 357 356 355 354 355 356 355 354 354 354 350
347 347 347 348 349 348 348 347 344 342 342 346 345 345 346 350 352 354 353 354 355 355 355 354 353 354 355 355 355 356 357 358 356 356 354 353 353 354 356 352 348 348 350
349 348 348 349 349 349 348 349 349 347 345 342 345 348 350 351 353 353 353 355 354 356 356 355 353 351 348 350 351 351 355 354 353 352 352 351 350 351 352 350 349 349 349
347 348 349 349 348 348 348 348 348 349 348 348 348 346 347 349 348 347 349 355 356 356 356 355 353 350 349 348 347 346 347 353 353 351 350 350 354 353 349 350 351 352 350
338 343 349 349 350 349 348 348 347 347 348 349 349 348 347 343 345 345 345 352 355 356 354 355 355 353 350 351 350 348 348 348 348 350 353 353 353 353 354 355 353 354 353
331 333 338 343 349 351 350 349 348 348 348 348 349 349 349 347 342 336 339 344 352 355 355 354 354 354 354 352 354 354 354 353 352 350 349 351 354 354 355 354 354 354 353
322 327 332 333 338 343 349 350 350 348 348 348 348 349 349 348 346 343 337 344 347 351 352 353 353 352 348 347 351 354 354 352 349 350 348 349 350 350 350 351 352 352 351
320 321 323 331 332 335 338 341 348 349 346 347 347 348 348 349 347 346 344 346 344 344 348 350 350 348 345 343 349 353 353 351 351 351 353 349 347 347 349 349 351 352 351
320 319 320 323 328 332 334 338 341 345 349 349 349 347 348 347 347 346 346 346 348 348 346 345 345 345 339 341 342 348 349 350 351 354 353 352 351 352 353 353 350 352 351
320 319 318 319 322 325 330 332 336 341 341 344 349 350 350 348 348 348 348 346 346 349 350 350 350 347 345 342 341 337 340 344 351 352 351 350 350 351 352 353 354 353 353
321 319 318 317 318 321 321 328 332 336 343 344 347 350 351 352 351 350 349 349 349 345 349 350 349 349 347 346 345 345 348 349 350 351 350 349 350 352 354 355 355 355 354
320 320 318 317 319 317 321 323 330 333 337 342 344 349 350 352 353 353 352 350 349 348 347 347 348 349 349 350 350 351 352 352 353 352 351 351 353 355 355 355 354 354 355
318 319 319 318 318 318 317 319 323 326 332 337 342 349 351 352 353 355 355 353 349 350 349 349 351 352 352 353 353 354 355 354 353 353 353 353 354 355 355 355 355 355 355
315 318 318 317 317 317 318 316 319 323 329 332 335 337 344 352 353 354 354 354 354 352 348 352 353 353 353 353 353 353 354 354 354 353 353 354 355 356 357 356 356 357 355
314 315 317 316 316 316 317 319 321 325 329 332 335 339 345 352 352 354 353 353 354 353 351 354 355 355 353 353 353 353 354 353 353 354 354 356 357 357 357 356 356 354 356
312 312 313 314 315 316 316 318 321 324 329 330 331 333 339 345 350 352 352 352 351 349 351 353 356 355 354 354 353 352 353 353 358 358 358 358 358 358 355 354 353 352 352
311 311 313 313 314 314 316 319 321 325 327 327 328 332 338 340 343 350 350 348 347 347 347 350 353 356 357 357 355 354 354 355 357 359 360 360 358 357 354 354 354 352 354
308 309 309 311 312 313 317 320 322 323 323 323 325 327 327 329 337 342 342 347 346 349 352 351 350 353 356 357 357 356 356 355 356 359 359 359 358 357 355 355 355 356 355
307 309 308 308 310 313 316 318 320 320 320 321 321 319 320 322 327 337 342 340 341 345 344 345 348 350 351 353 355 355 355 353 351 352 351 353 354 355 355 354 356 355 356
307 307 308 308 309 310 314 314 314 315 314 314 314 313 316 321 322 327 331 327 327 334 340 342 337 335 335 336 335 334 337 339 341 342 343 343 342 343 345 348 351 355 357
304 305 307 307 308 308 309 311 309 309 309 308 307 307 308 310 311 311 313 311 314 318 315 321 320 322 322 325 326 324 323 329 333 334 335 336 336 337 339 341 345 348 353
302 303 304 305 305 305 306 305 304 303 302 302 303 302 303 304 304 304 304 306 309 309 308 310 312 311 313 314 318 319 320 323 325 327 330 330 332 332 333 335 337 340 345
298 299 300 301 302 302 302 301 300 299 299 298 299 299 299 299 299 300 301 302 301 302 303 304 306 308 308 312 313 312 316 321 322 323 323 324 327 328 328 329 329 331 333
296 296 296 297 297 297 297 297 297 297 296 296 296 296 296 296 296 296 297 298 299 301 301 301 303 304 306 308 310 311 314 317 320 321 321 320 319 319 321 321 322 323 324

GFSGL_925_thetae_096.txt.gz
Theta_e
353 353 354 353 354 354 351 351 352 354 354 355 357 356 355 354 354 354 354 352 355 353 354 355 354 354 351 349 350 351 351 350 351 348 351 352 356 356 358 358 353 351 348
353 353 353 353 352 352 352 351 351 352 355 354 354 355 357 357 357 355 352 352 354 354 355 354 354 352 356 354 351 352 350 352 352 353 353 353 353 355 357 357 353 349 351
351 352 352 353 352 351 352 352 351 350 352 352 353 355 356 357 357 358 355 353 354 355 355 355 353 353 355 352 354 353 351 353 352 352 353 352 352 352 355 352 352 347 346
350 351 351 351 352 352 352 352 353 352 351 351 352 353 354 356 356 356 356 357 356 354 356 356 354 351 353 355 356 356 356 357 355 354 353 351 349 349 351 349 346 344 346
351 351 351 351 351 351 352 352 352 353 352 352 351 350 351 352 353 356 356 356 357 357 356 357 354 351 349 351 350 350 351 353 353 350 349 347 346 348 349 348 346 346 347
342 349 352 351 352 352 353 354 353 353 354 353 353 351 349 347 346 351 354 355 356 357 356 358 357 354 353 348 347 345 347 352 352 349 344 344 349 350 348 347 349 349 350
330 336 341 346 351 352 352 352 353 353 353 353 354 353 352 351 345 346 349 351 353 355 356 356 356 352 354 355 354 350 348 347 347 351 353 352 351 351 352 355 354 355 354
326 328 330 336 340 346 351 352 352 353 353 353 353 354 353 353 351 348 345 349 351 352 354 355 356 354 352 355 355 355 354 352 353 353 352 353 353 353 355 356 357 357 355
326 325 325 328 331 335 339 344 349 353 353 352 353 353 354 354 352 350 348 347 344 349 351 354 355 355 355 355 354 352 353 351 348 350 348 348 351 350 350 352 351 349 346
327 325 323 324 327 330 333 336 339 345 349 352 352 352 353 354 354 353 350 348 348 343 343 350 352 353 354 354 354 353 353 350 348 348 350 351 352 349 348 349 351 350 346
325 326 326 324 324 325 327 330 333 339 343 347 350 351 352 353 354 353 352 349 349 349 347 342 342 345 345 346 350 353 353 349 347 348 350 350 350 350 351 354 353 352 349
318 323 326 326 324 323 327 327 326 333 337 346 344 346 349 352 352 351 352 350 349 350 351 350 350 348 345 345 344 344 346 350 347 342 343 345 346 345 344 346 352 357 355
315 318 323 325 325 324 323 323 328 332 334 338 345 346 345 347 352 353 352 350 349 347 350 352 352 352 352 350 349 347 347 347 347 344 344 346 346 345 346 348 354 358 359
313 316 319 322 325 324 323 321 321 325 329 335 338 343 345 345 347 349 352 353 351 348 346 347 350 351 352 352 351 349 348 348 348 347 348 348 347 347 346 350 352 353 355
312 314 317 320 322 324 324 322 320 320 322 324 329 335 339 342 346 349 349 351 355 350 347 349 350 350 352 353 352 352 352 352 351 351 352 352 351 349 348 349 351 352 353
312 313 316 318 320 321 322 322 322 320 320 322 325 328 330 333 335 340 343 347 352 353 351 350 354 355 356 356 356 354 353 353 353 354 353 353 352 351 347 347 350 353 353
311 312 315 316 317 319 321 322 322 322 321 322 326 329 330 332 333 338 340 346 348 351 351 354 354 355 357 358 358 355 355 355 355 353 351 351 351 348 347 350 352 354 355
310 311 312 315 316 318 319 321 321 322 322 323 326 329 328 329 334 338 340 341 340 349 351 354 356 356 357 358 356 355 355 355 357 356 352 351 350 350 351 353 353 356 359
311 311 312 314 315 317 318 318 319 321 324 325 325 324 327 329 328 333 337 329 342 347 346 348 353 355 355 356 357 356 356 356 356 356 356 358 358 357 355 355 358 359 359
310 310 312 313 313 315 317 318 319 321 323 324 324 324 324 322 322 326 330 333 337 349 351 349 348 350 353 354 356 356 356 356 357 356 357 358 358 358 359 359 359 360 360
307 309 311 311 313 315 316 317 319 320 321 321 322 322 319 315 315 321 325 330 339 343 347 348 349 349 349 351 353 354 355 355 356 357 356 355 355 356 357 357 356 357 357
305 307 309 311 314 314 316 316 316 318 318 318 319 319 314 313 314 314 316 320 325 331 338 340 341 337 338 339 340 340 343 343 342 343 343 346 348 346 347 348 350 351 353
305 306 308 310 311 313 313 312 313 315 316 316 314 313 310 308 307 308 309 309 312 316 319 325 332 334 331 328 325 327 327 328 330 330 332 333 337 338 338 340 343 347 351
302 303 304 306 308 310 312 310 310 310 308 310 309 308 304 303 303 302 304 304 306 310 311 311 312 320 314 313 316 320 323 324 322 322 323 325 330 332 335 335 334 336 337
298 299 300 301 303 304 305 306 306 307 306 304 303 301 300 300 300 299 300 300 301 303 304 305 309 309 311 312 314 316 317 320 322 319 321 323 326 329 333 334 333 335 334
296 296 296 297 297 299 299 300 301 301 300 298 298 297 297 297 297 296 297 298 298 299 301 303 304 306 307 308 310 311 314 317 319 320 319 319 322 322 325 326 326 327 327

GFSGL_925_thetae_099.txt.gz
Theta_e
358 357 357 357 358 358 355 354 353 353 353 355 356 354 354 353 354 355 355 356 357 355 355 354 355 356 353 349 349 349 350 350 351 350 351 350 352 356 357 359 356 351 349
356 356 357 357 357 357 357 355 354 353 353 354 356 357 356 355 354 354 354 349 353 353 352 353 354 353 355 355 352 350 350 352 351 354 351 354 353 354 354 358 354 352 346
356 356 356 357 357 356 356 356 354 354 353 354 354 355 356 356 356 355 356 354 354 355 354 353 352 353 354 353 355 353 351 355 355 355 353 352 352 353 352 351 352 348 346
353 352 355 356 357 356 355 355 356 354 354 353 353 353 354 355 356 355 355 356 355 354 355 354 352 352 352 354 355 355 355 355 353 354 354 352 351 348 349 349 347 345 345
347 352 352 353 354 356 356 355 356 356 355 355 354 352 352 353 353 354 354 353 356 356 355 355 354 351 351 350 351 352 354 354 352 351 350 348 346 351 351 346 348 346 345
334 338 343 352 353 355 355 355 356 355 356 356 356 354 353 350 345 348 353 354 354 356 357 357 356 355 351 349 347 343 343 351 355 349 345 344 350 347 346 347 351 346 350
326 329 332 335 341 350 354 355 356 355 356 356 357 356 356 354 351 345 345 350 353 356 356 358 356 351 354 355 355 351 347 345 345 348 354 355 354 354 353 356 352 357 355
329 327 326 329 332 336 343 353 353 355 355 355 355 356 356 356 355 352 348 345 350 353 354 356 356 356 356 358 356 357 358 357 354 350 348 348 352 352 353 355 357 359 356
331 330 329 328 330 332 336 338 343 351 353 356 355 355 355 357 356 355 353 351 347 349 352 353 356 357 358 355 355 357 358 356 351 351 351 350 353 352 351 352 350 349 348
327 329 330 330 327 327 329 331 334 340 347 348 351 353 352 354 355 356 355 353 352 351 350 350 347 352 356 358 357 357 359 358 355 350 350 349 349 350 350 349 351 351 349
321 321 325 330 331 328 327 329 330 332 336 340 344 347 352 352 354 354 355 355 354 352 352 351 348 345 342 344 352 357 358 357 356 354 352 349 347 348 353 356 355 353 351
319 319 320 323 328 330 329 329 328 331 333 337 338 343 347 349 351 354 353 354 354 353 354 353 352 349 344 342 342 344 345 350 352 351 348 344 343 343 344 346 351 352 355
316 317 319 321 323 326 330 330 328 326 329 336 337 342 342 349 348 348 352 353 352 351 352 353 353 352 352 352 348 344 344 346 349 350 350 348 345 343 342 345 347 351 358
315 316 317 318 320 322 324 327 328 326 324 326 329 332 342 344 348 348 348 349 349 350 350 350 350 350 350 351 352 353 351 348 350 352 353 351 348 345 346 347 348 347 350
314 314 315 316 318 321 322 323 327 328 325 324 323 322 326 332 340 343 341 337 336 338 341 347 352 353 351 351 353 355 355 353 352 352 353 352 350 349 351 349 349 348 350
313 314 314 314 316 318 320 322 323 324 324 323 321 320 322 324 326 329 332 334 335 336 339 341 348 352 354 355 355 356 357 355 355 355 354 353 353 353 353 353 351 350 350
313 314 314 313 314 316 319 320 321 322 324 324 323 323 323 327 330 329 328 330 334 336 339 341 345 352 354 355 357 358 358 357 356 355 354 355 355 356 354 352 352 351 350
314 314 313 312 313 314 318 319 320 321 322 324 325 325 327 328 325 327 329 327 331 337 338 340 345 350 354 354 355 357 358 359 359 358 357 357 355 353 352 352 351 350 351
311 311 312 313 314 314 315 317 318 320 321 320 322 326 327 326 326 325 326 329 329 333 337 341 345 352 353 351 352 356 357 357 357 356 357 357 358 356 351 352 352 350 350
308 309 309 311 312 313 315 315 317 318 320 320 321 323 326 326 325 324 326 327 329 330 333 339 349 349 351 351 347 355 357 357 354 354 355 356 357 358 357 358 358 358 356
306 306 307 308 310 312 313 313 314 317 318 320 321 322 322 323 322 321 323 322 323 325 326 331 338 344 349 350 350 347 350 352 353 354 354 355 357 357 357 358 358 358 358
304 304 305 306 308 310 312 314 315 316 317 319 319 321 320 320 320 319 316 315 314 317 320 322 325 330 334 339 340 341 342 343 343 346 344 343 346 351 351 351 351 352 353
302 303 303 305 307 308 310 312 314 316 316 317 319 320 319 319 317 314 310 308 310 313 314 317 317 319 324 328 329 329 331 336 337 336 338 338 334 335 338 340 342 343 345
300 301 301 302 303 305 306 308 309 313 312 312 314 314 313 312 310 307 303 305 306 308 309 311 311 311 315 318 321 323 323 322 327 331 329 333 327 330 333 336 338 338 338
297 298 298 298 299 301 303 304 307 308 307 308 308 308 308 305 303 301 301 301 302 303 304 305 306 307 307 311 313 313 316 317 319 323 323 324 326 330 333 335 335 336 336
295 295 296 296 296 296 297 299 300 301 303 303 302 301 300 299 298 298 298 298 299 299 300 301 302 303 305 307 310 312 314 316 318 320 321 322 324 323 326 328 326 327 329

GFSGL_925_thetae_102.txt.gz
Theta_e
360 361 360 360 360 359 357 353 350 352 354 349 341 353 351 353 354 354 353 353 352 351 352 353 355 355 352 354 355 355 351 352 357 354 351 348 349 354 358 353 354 354 351
358 357 358 360 360 360 359 357 354 353 352 355 355 355 354 353 352 354 353 355 353 355 354 352 354 353 354 352 348 348 349 348 347 352 351 355 357 351 355 353 351 352 351
354 356 358 358 357 358 360 358 357 355 354 354 354 355 353 353 354 353 353 349 352 354 354 354 352 353 353 353 354 356 356 357 355 358 358 350 352 353 354 350 350 349 346
348 351 355 356 357 356 356 357 357 355 355 355 356 356 356 355 354 353 356 354 350 353 356 355 354 354 354 353 355 354 353 352 353 354 354 356 355 351 353 348 345 348 348
340 340 345 351 353 353 355 354 355 356 356 355 356 356 356 355 355 354 354 354 354 353 352 352 357 354 354 353 352 354 354 356 356 355 353 349 346 348 347 349 351 352 346
333 336 338 341 347 351 352 353 354 355 357 357 357 357 355 354 349 348 355 352 355 355 354 354 357 357 352 352 350 348 347 347 350 355 353 352 350 351 350 351 351 352 355
329 327 331 335 337 340 344 350 352 353 353 355 355 357 358 356 353 350 347 346 349 353 355 354 354 355 355 353 352 351 346 343 343 343 347 351 351 343 345 352 357 356 356
332 331 330 327 327 334 338 342 342 349 353 353 354 354 355 356 357 356 353 351 348 347 348 352 355 355 354 355 358 358 357 355 354 352 348 344 345 348 349 350 355 358 358
330 331 333 332 331 329 328 333 337 339 343 348 352 354 354 354 356 356 357 355 353 352 347 349 352 354 356 358 357 355 357 361 360 357 354 353 352 350 351 354 355 353 352
324 324 324 329 333 332 329 328 330 333 336 340 343 349 351 354 355 354 354 354 356 355 354 352 350 348 349 349 356 359 358 356 356 357 356 351 351 351 350 353 352 352 352
322 322 322 323 324 329 332 331 331 328 330 335 336 341 345 349 352 352 354 354 355 356 355 355 354 354 352 350 346 350 355 355 357 356 357 357 356 353 352 350 349 352 353
318 319 319 321 322 324 326 331 332 332 330 331 336 338 341 344 350 349 349 351 353 355 353 353 353 355 354 351 349 347 343 342 352 355 355 355 353 350 348 347 347 350 352
317 317 318 318 320 321 324 327 331 331 332 327 327 333 335 340 343 346 349 349 348 350 351 352 354 354 354 354 353 352 351 347 346 351 352 352 352 350 348 345 343 342 350
315 316 317 317 317 318 319 322 324 327 330 329 327 326 325 324 330 341 344 339 339 338 338 345 348 349 350 351 351 351 351 351 349 348 349 349 350 352 352 350 347 344 351
313 314 315 316 316 317 318 319 322 323 325 327 329 327 324 324 324 324 324 324 328 331 331 334 338 341 349 353 353 352 351 353 352 350 350 351 353 354 354 352 349 348 352
313 313 314 315 315 316 316 318 319 322 323 322 322 324 324 323 323 321 323 327 328 326 329 330 333 340 345 350 353 355 355 354 355 355 354 353 354 354 354 354 352 352 352
312 313 315 316 316 316 316 318 319 320 320 322 322 323 324 324 324 324 328 327 325 326 326 328 335 340 343 346 350 352 353 354 356 357 357 357 356 355 354 353 353 353 353
309 311 313 314 314 316 315 315 315 317 321 322 323 323 323 324 325 326 326 325 325 329 330 332 337 339 342 345 348 351 353 351 352 354 348 354 354 356 357 356 355 355 354
307 308 309 310 312 312 312 314 316 317 318 320 322 322 322 322 323 326 326 324 325 329 329 330 333 336 341 344 349 351 353 352 348 350 351 350 344 350 354 354 355 352 351
306 306 307 307 308 310 311 313 315 315 318 319 320 320 321 323 326 327 327 325 327 326 325 327 327 329 334 338 342 350 351 352 350 347 344 345 345 354 355 355 355 356 355
304 303 304 305 306 308 310 311 312 314 315 316 316 318 321 321 323 324 324 323 322 320 318 320 319 318 323 329 334 337 338 342 346 345 343 339 339 353 353 353 353 353 352
302 302 303 303 304 305 308 309 310 311 313 314 315 317 318 318 320 322 322 320 318 314 312 311 312 315 316 320 326 330 330 333 337 339 341 341 345 348 348 348 348 352 353
300 300 301 301 302 303 304 306 308 309 310 311 314 316 317 317 317 316 313 312 312 309 308 307 307 309 313 315 319 321 324 325 329 330 330 333 333 336 338 340 339 340 342
298 298 298 298 299 300 300 302 304 305 306 309 310 312 312 312 311 311 309 308 307 306 304 304 304 304 307 310 313 316 318 320 322 326 325 326 328 328 330 333 335 337 341
298 297 296 296 296 297 298 298 299 300 302 304 306 308 308 307 307 307 306 304 302 301 301 301 301 302 303 306 307 311 314 316 318 322 323 323 323 326 330 333 336 337 337
299 298 296 295 295 295 295 296 296 296 297 298 299 301 302 302 302 301 300 299 298 298 297 298 299 299 300 303 305 308 312 313 315 317 320 322 324 325 327 327 327 327 328

GFSGL_925_thetae_105.txt.gz
Theta_e
349 352 354 355 354 352 351 352 353 351 350 336 350 352 353 355 353 354 352 354 353 353 352 354 353 354 355 347 348 349 349 351 352 349 349 350 356 353 350 354 353 351 353
337 348 354 354 354 352 350 356 352 353 352 352 344 346 350 354 353 352 352 350 352 351 351 352 351 353 352 353 354 355 356 356 357 354 354 357 356 350 353 354 355 349 349
340 348 354 355 356 354 354 353 356 354 354 354 352 352 352 352 354 352 353 353 353 354 354 353 352 350 351 351 351 351 351 351 353 352 352 351 351 354 349 346 346 350 348
341 346 348 353 354 353 355 357 357 356 354 353 353 353 355 354 352 354 352 352 354 351 353 354 355 354 355 354 353 352 351 354 354 355 356 355 351 350 348 351 348 347 346
343 346 343 348 350 352 353 354 356 357 356 354 354 354 355 354 353 354 355 352 354 353 349 353 356 356 352 354 355 353 351 352 356 357 358 354 351 344 352 351 342 345 345
336 338 341 347 347 345 346 353 354 354 354 356 355 354 354 356 355 355 353 353 355 354 353 352 350 351 356 356 354 352 350 349 348 348 347 349 348 346 345 343 344 350 355
330 329 328 333 336 340 341 344 349 352 353 354 354 354 356 356 355 354 352 348 353 355 357 355 353 352 351 351 355 356 351 351 349 345 344 342 342 339 340 342 344 349 352
330 331 332 332 328 326 328 336 339 341 347 349 352 353 354 354 355 356 353 353 353 351 347 349 354 354 353 352 353 354 355 355 356 354 352 353 353 350 351 350 349 351 353
324 323 324 326 332 333 330 327 327 333 338 343 344 348 351 353 353 353 354 354 354 355 354 352 350 349 351 352 353 353 355 357 355 355 357 358 357 351 353 354 352 355 354
320 320 321 322 324 324 332 332 331 328 325 328 335 336 341 347 350 352 352 352 353 354 354 355 354 354 352 351 348 350 354 355 358 358 356 354 356 356 353 350 350 352 353
317 318 318 318 320 322 323 326 332 332 331 328 329 333 336 338 341 345 348 349 351 351 352 353 355 355 355 354 354 351 350 350 352 353 355 357 356 356 355 355 354 352 353
316 317 317 317 317 317 319 322 325 329 331 332 328 327 331 336 340 343 345 347 350 349 350 351 353 354 352 351 351 352 353 352 352 350 349 351 353 354 354 353 352 350 349
313 314 314 316 317 317 317 317 318 322 325 326 331 327 326 326 326 331 343 344 345 342 340 342 347 349 350 351 353 352 351 351 351 346 346 346 347 349 351 352 351 350 348
312 313 313 314 315 316 317 317 318 320 323 325 330 328 327 327 326 324 323 325 324 322 323 328 334 341 342 344 346 347 348 350 350 349 349 349 349 348 349 350 350 350 349
310 312 313 315 315 315 315 315 315 316 318 320 322 323 324 325 323 324 323 323 321 322 327 325 323 323 327 332 339 344 349 353 352 352 349 348 349 349 348 349 350 351 351
309 310 313 313 314 314 314 315 315 315 317 318 320 319 320 321 321 323 323 323 324 327 327 325 323 323 328 334 338 342 345 348 350 352 352 351 350 350 351 351 353 353 352
307 307 308 310 313 313 314 315 315 315 316 316 316 319 321 322 322 322 323 323 323 326 325 325 324 328 333 338 340 342 344 346 348 349 350 350 350 352 353 352 352 352 351
305 306 307 308 308 308 310 310 311 313 314 316 317 318 318 320 322 322 321 322 323 326 325 327 330 331 331 332 336 339 341 344 346 349 351 351 350 350 349 345 342 337 340
305 306 306 306 306 307 307 309 310 311 313 314 315 316 318 318 319 319 319 321 324 325 325 328 325 324 324 324 326 328 333 338 344 347 348 349 349 349 347 342 343 338 337
305 305 304 304 304 305 305 307 308 309 311 312 313 315 316 316 315 317 322 323 325 326 327 322 319 318 317 315 317 321 323 330 335 338 340 348 348 347 345 344 342 337 337
302 302 302 302 303 303 304 304 305 307 309 310 311 312 313 314 315 318 320 327 324 321 319 317 314 312 311 311 312 314 317 320 326 332 334 337 338 341 342 340 342 343 343
301 301 300 300 301 301 302 302 303 304 305 307 309 310 311 312 315 316 316 315 314 313 312 310 309 309 309 309 309 309 309 312 316 320 324 329 331 333 335 337 339 341 345
299 298 298 297 297 298 298 299 300 301 302 304 305 306 309 311 312 312 311 311 310 309 308 307 307 307 308 307 307 307 306 308 310 312 316 320 326 327 328 331 333 335 337
299 298 297 297 296 296 296 296 297 297 298 299 301 303 304 307 308 308 308 306 305 305 305 306 305 306 306 305 304 305 306 307 307 310 313 316 319 324 324 327 330 332 334
300 299 298 297 296 295 295 295 295 295 295 296 296 297 299 300 302 303 302 302 301 301 302 303 303 303 303 301 302 302 304 307 308 311 312 315 316 321 323 325 328 332 335
300 300 299 298 296 295 294 293 293 293 293 294 295 295 296 297 297 298 299 298 298 299 299 300 301 300 299 298 300 301 302 304 308 311 312 314 315 319 322 325 328 329 331

GFSGL_925_thetae_108.txt.gz
Theta_e
349 351 353 355 353 347 353 353 353 350 350 347 350 348 350 352 353 354 351 353 352 350 349 351 352 352 354 351 350 349 350 354 352 354 353 352 353 351 353 353 354 351 348
341 345 346 348 353 353 354 353 351 351 350 343 345 350 351 353 354 353 353 351 352 351 349 347 348 349 351 350 350 350 352 353 352 354 352 350 350 351 346 345 349 349 347
339 339 346 348 345 353 351 351 353 352 351 351 348 350 351 350 354 353 352 352 350 352 350 351 351 351 350 350 351 351 350 350 351 353 353 354 355 351 348 346 346 342 340
338 341 346 347 350 353 354 350 350 354 352 351 352 350 344 350 351 352 352 352 352 352 352 353 354 353 354 353 353 353 352 351 351 352 354 354 355 353 348 345 344 337 339
342 343 343 344 347 349 351 352 351 351 353 354 352 353 353 353 353 353 352 353 351 352 353 351 352 353 355 356 355 354 354 354 352 351 353 352 351 350 345 342 342 341 343
341 340 342 344 345 345 347 348 348 351 353 353 354 354 355 355 355 353 353 353 354 351 353 353 351 350 349 351 352 354 355 355 352 351 349 346 343 341 340 341 343 345 348
330 329 330 334 338 339 342 345 345 345 349 352 353 355 355 355 355 355 355 355 353 350 351 355 354 352 353 352 350 350 352 353 354 351 349 349 348 349 350 350 349 348 348
324 326 331 332 330 328 330 337 342 337 340 345 347 351 352 353 354 355 355 355 354 353 353 351 350 350 354 354 352 352 352 351 353 354 354 354 354 355 355 355 352 352 352
320 321 322 323 324 329 330 331 329 327 328 332 339 343 345 347 349 351 352 353 353 352 353 353 354 353 352 350 349 351 351 349 346 345 345 352 356 354 357 358 356 354 351
317 318 318 318 320 322 322 329 331 332 331 329 328 333 336 337 340 344 346 348 350 351 351 351 352 352 352 353 352 351 350 350 350 350 350 350 351 354 355 355 355 354 350
316 317 316 316 316 317 318 320 322 324 328 330 330 327 332 337 340 342 342 346 347 348 348 348 350 352 352 352 352 352 351 350 351 351 350 350 350 350 351 351 352 354 354
312 313 314 314 315 315 315 315 316 319 321 323 325 330 327 327 326 326 332 342 343 343 344 345 346 346 348 350 351 352 352 351 351 351 350 350 349 350 350 349 349 348 349
311 311 312 314 315 315 315 316 316 317 317 318 320 321 330 327 327 325 323 323 323 322 322 322 326 333 337 342 345 345 346 348 348 346 347 348 349 348 348 349 348 348 350
308 310 312 313 313 315 315 315 315 315 315 316 316 316 320 326 323 322 322 323 323 323 322 321 322 322 321 320 321 324 332 338 342 345 348 350 350 349 348 347 347 348 349
308 308 310 310 311 313 313 313 314 315 313 314 314 314 314 318 319 320 321 321 323 323 324 325 326 325 324 322 330 334 338 339 343 346 349 350 350 350 349 348 347 347 348
306 306 307 308 309 308 309 310 312 312 313 314 314 316 317 317 317 318 320 321 322 322 323 323 325 325 325 330 334 336 335 337 339 342 344 346 348 348 349 349 349 349 349
305 305 305 306 306 306 306 307 308 308 309 310 312 313 314 316 317 317 317 318 319 320 321 321 325 325 328 329 328 330 333 335 336 338 343 344 347 349 349 349 349 350 351
305 305 305 305 304 305 305 305 305 306 307 309 309 311 312 314 315 315 315 316 318 319 319 321 324 328 325 325 324 323 322 322 328 330 334 340 344 347 348 347 348 349 348
305 304 305 304 303 303 303 303 304 305 306 307 308 309 310 312 312 313 314 316 318 320 321 322 325 324 321 317 316 315 315 318 319 322 327 333 337 340 343 345 345 346 344
301 302 302 302 301 301 301 302 302 303 303 305 305 307 308 308 310 312 312 316 318 321 321 322 319 316 313 311 312 312 313 315 315 316 318 322 328 333 337 341 344 343 341
300 300 300 299 299 299 299 300 300 301 302 302 303 304 306 308 308 309 312 316 318 318 314 312 311 310 309 308 309 311 309 309 310 311 313 315 320 321 325 332 336 338 340
299 299 298 297 296 296 296 296 296 297 298 298 300 301 302 304 305 307 310 312 313 312 310 308 308 307 307 307 307 307 308 308 309 309 308 309 310 312 316 322 327 332 335
299 299 298 298 297 296 296 295 295 295 296 296 297 297 298 300 303 304 306 308 308 307 306 305 304 304 305 305 304 304 306 308 308 307 304 303 304 306 310 314 320 325 328
299 299 299 298 297 297 296 295 294 294 293 294 294 295 296 296 297 298 300 302 303 302 302 302 301 302 302 303 304 303 306 307 307 308 305 303 303 304 307 310 316 322 326
300 299 299 299 298 297 296 295 294 293 292 292 292 293 294 294 295 295 296 298 299 299 299 299 299 300 300 300 301 302 304 305 305 306 305 304 304 305 306 308 311 316 322
300 300 300 300 299 299 297 296 295 293 292 292 291 291 291 292 293 294 295 296 296 296 296 296 296 296 297 296 297 301 302 302 301 303 303 304 306 308 308 310 312 317 322

GFSGL_925_thetae_111.txt.gz
Theta_e
352 353 352 351 350 349 345 345 349 349 350 349 349 350 350 349 349 350 350 351 350 351 350 350 350 351 352 351 349 351 352 353 352 352 352 351 350 350 347 347 348 346 345
349 349 350 351 350 350 351 349 352 351 349 348 348 351 350 348 351 352 353 352 350 351 351 350 348 348 349 349 348 349 349 350 351 350 351 351 351 352 350 346 340 340 336
342 341 341 343 346 349 352 353 353 350 351 349 346 342 348 349 352 353 353 352 351 350 350 350 350 351 351 351 350 351 351 351 351 351 351 351 351 353 352 348 338 334 340
334 338 341 346 347 348 348 353 353 352 352 350 350 347 347 350 350 350 353 352 351 350 349 352 350 352 353 352 353 354 353 352 353 352 351 350 350 346 344 341 338 340 344
340 339 342 344 344 347 350 352 351 350 353 353 352 351 351 348 344 350 351 352 352 351 350 350 350 349 350 352 354 353 354 355 355 354 352 350 348 347 345 343 345 346 348
340 339 339 341 341 343 345 346 347 349 350 350 352 353 354 352 352 352 353 353 351 352 353 352 351 353 353 350 349 349 350 352 354 354 352 350 349 348 349 348 350 348 346
330 330 329 330 331 337 341 343 343 343 345 346 349 350 352 353 354 354 355 355 355 355 354 352 349 349 353 354 353 352 351 351 351 352 353 353 352 352 352 352 353 352 350
321 322 323 326 330 330 330 332 335 340 341 340 341 342 343 348 351 353 353 354 354 354 354 353 352 351 350 349 348 351 353 352 352 352 351 350 349 349 354 355 354 354 354
317 317 318 320 321 324 330 331 331 331 330 330 333 337 337 339 342 347 347 348 350 351 351 351 352 352 353 352 352 352 351 351 350 350 350 350 350 350 351 355 356 354 352
315 315 316 316 317 317 319 321 323 325 329 331 330 329 335 336 340 341 341 344 347 347 348 349 350 350 351 351 351 352 352 352 352 352 352 351 351 351 349 350 350 352 351
313 313 313 314 314 315 315 316 317 320 322 324 325 329 330 330 332 332 332 340 341 342 344 345 346 345 346 346 347 349 350 350 351 351 351 351 351 350 350 350 350 350 351
310 311 312 313 314 314 315 315 315 316 317 318 318 320 325 326 327 325 323 323 323 323 322 323 325 326 332 335 336 339 342 342 345 347 348 348 348 347 345 348 348 348 349
308 310 312 313 313 314 313 314 314 314 314 314 314 315 316 321 324 322 322 322 322 323 323 323 322 321 322 321 320 320 322 325 330 336 340 342 343 345 348 349 349 349 347
307 309 309 310 311 312 312 313 313 312 312 312 314 315 315 316 316 317 318 319 321 322 322 323 324 325 325 324 322 324 331 336 338 340 342 343 343 344 346 346 346 347 347
305 306 307 308 308 308 308 308 309 309 309 310 312 313 313 314 314 316 317 318 319 321 321 322 322 322 324 325 327 331 332 331 334 337 339 340 343 344 344 345 346 347 345
304 305 305 305 305 305 305 305 305 305 306 308 309 310 311 312 313 314 315 316 317 318 319 320 320 320 322 325 327 327 327 329 329 329 329 333 337 341 344 346 346 347 347
304 304 305 304 303 303 303 303 303 303 304 305 305 307 309 309 311 312 313 314 315 316 317 318 319 320 321 326 326 324 321 318 316 319 324 322 328 335 342 343 343 344 344
304 304 304 303 302 301 301 302 301 302 303 303 303 303 304 306 306 307 310 312 313 314 316 318 320 320 321 325 323 320 318 316 315 317 318 321 322 327 331 336 340 341 341
302 302 301 301 300 300 299 299 299 300 300 301 302 302 302 304 306 307 307 309 310 315 316 318 321 321 323 321 319 315 312 311 311 312 314 314 318 321 323 326 331 333 337
300 300 300 299 298 297 296 296 296 296 297 298 299 300 300 300 302 303 305 306 311 315 316 316 316 315 313 311 311 310 309 309 311 312 311 310 311 313 316 319 319 323 327
300 299 299 298 297 297 296 296 295 295 295 295 295 296 298 297 298 300 303 305 305 308 311 311 310 309 308 307 307 307 307 306 307 309 310 309 310 311 310 311 315 317 321
301 299 299 298 298 297 297 296 295 295 294 294 294 294 294 295 296 296 297 300 304 306 309 308 306 305 304 303 303 304 305 305 305 306 306 307 307 307 307 307 309 311 315
302 300 299 298 298 298 298 297 296 295 294 293 293 293 293 293 294 295 295 295 296 298 301 303 303 303 303 302 302 302 303 304 304 303 302 302 302 302 302 303 305 306 309
301 300 299 299 298 298 298 298 296 296 295 293 292 292 292 292 293 293 294 294 294 294 296 298 299 298 299 299 300 301 301 301 302 301 300 300 297 298 299 300 303 305 308
302 301 300 299 299 299 299 298 297 296 295 293 293 292 291 291 291 290 291 292 293 293 294 296 296 296 296 297 296 296 297 299 299 299 298 298 297 299 300 300 301 303 305
301 301 301 299 299 299 299 299 298 297 295 293 292 291 290 290 290 290 290 290 291 292 293 294 294 294 295 294 295 295 296 297 297 298 298 297 297 299 302 302 303 304 306

GFSGL_925_thetae_114.txt.gz
Theta_e
348 350 350 350 349 348 347 348 349 348 349 349 348 348 349 349 349 349 349 350 350 348 350 350 349 348 350 350 349 349 351 352 351 348 348 348 349 351 349 349 342 334 334
349 352 351 350 349 349 348 346 345 347 348 348 348 349 349 350 349 349 349 351 351 350 351 350 349 348 347 348 348 349 350 350 350 350 350 348 349 351 351 346 337 335 340
342 342 341 342 345 348 349 347 347 349 351 348 349 348 348 350 349 350 351 352 352 351 350 350 349 350 350 351 351 351 351 351 351 350 351 350 348 346 342 341 343 341 344
337 337 339 340 342 342 346 348 350 350 351 350 349 348 343 346 349 350 350 352 352 351 350 349 351 350 350 352 352 353 353 353 353 353 353 352 351 349 347 347 348 347 346
337 340 340 342 343 345 348 349 349 351 350 351 351 351 350 350 347 347 348 349 350 351 351 350 350 350 351 351 351 350 352 351 352 352 353 352 351 351 349 348 348 350 351
338 339 339 341 340 341 342 345 348 349 349 350 350 350 352 353 352 351 350 352 353 352 351 351 352 353 352 352 353 352 351 351 351 352 351 350 351 351 351 351 350 348 351
334 332 331 332 336 338 337 340 342 343 344 345 346 348 348 349 351 353 353 353 354 354 354 354 353 351 349 348 350 351 353 353 352 351 351 351 351 350 350 350 351 351 350
323 324 328 329 330 331 331 331 332 336 339 339 339 340 342 344 345 347 349 351 352 352 352 353 353 353 352 351 351 351 349 348 348 349 349 349 349 349 349 350 351 351 352
316 317 318 319 321 323 324 325 329 331 331 330 332 335 337 338 340 341 342 344 346 348 349 350 350 350 351 351 351 351 351 351 352 352 352 352 351 351 350 349 350 349 351
314 314 315 315 315 316 317 318 321 324 325 327 329 331 334 336 339 338 341 342 343 344 346 347 348 348 348 349 349 349 350 350 350 351 351 351 351 351 350 350 350 350 351
312 313 314 314 314 315 315 316 317 318 321 321 326 327 327 328 326 325 323 325 324 323 328 337 339 340 339 338 338 339 341 342 345 346 347 349 349 349 349 348 346 346 349
311 312 313 313 313 314 314 314 314 315 316 316 316 317 320 323 324 322 322 322 322 323 323 323 323 321 321 321 322 322 323 325 329 332 335 339 341 342 342 343 345 347 347
309 310 311 312 312 312 313 313 313 313 313 313 314 315 315 316 317 317 318 318 320 321 322 322 323 324 325 325 324 323 324 331 335 337 338 339 340 342 342 343 343 343 344
307 308 309 309 309 309 310 310 310 310 310 311 312 312 312 313 314 315 316 317 318 319 320 321 321 322 322 322 324 326 329 331 333 335 339 338 339 340 342 343 344 345 346
305 306 306 306 305 305 306 306 304 306 307 308 309 310 310 311 311 312 313 314 315 316 318 319 319 319 319 320 322 325 325 326 325 322 321 327 330 334 336 339 341 342 344
304 304 304 303 303 303 303 302 302 303 305 305 305 307 308 308 308 309 311 312 313 314 315 316 317 317 318 319 321 325 325 320 318 317 320 321 319 324 328 331 336 340 343
304 304 303 302 301 301 301 300 300 300 301 301 301 301 301 303 304 305 307 308 310 311 313 314 315 316 318 320 321 325 322 320 318 316 315 316 318 319 321 323 327 331 334
304 303 301 300 300 299 299 298 298 298 298 297 297 299 300 300 299 300 304 305 307 309 311 315 315 315 318 319 320 321 320 318 315 314 313 314 314 313 314 317 319 322 326
301 301 300 299 298 297 296 296 296 296 296 296 296 296 296 296 296 297 298 302 305 306 310 314 315 314 315 316 315 314 313 312 311 310 312 313 312 312 313 314 316 316 315
300 300 299 297 297 296 296 296 295 295 295 295 295 295 295 295 296 297 298 300 303 305 306 307 310 310 310 309 308 307 307 308 309 309 308 309 310 309 310 312 312 312 312
299 299 298 297 297 297 296 296 295 295 294 294 294 293 293 293 294 295 295 296 297 298 299 303 306 307 307 306 305 305 304 304 305 305 306 306 306 306 306 306 307 309 310
300 299 298 298 297 297 297 297 296 295 295 294 293 293 292 293 293 293 293 294 294 294 295 296 297 301 302 302 301 302 302 302 303 303 303 303 304 304 304 303 304 304 306
302 300 298 298 298 298 298 297 297 296 296 295 294 293 293 293 292 292 291 291 292 292 293 294 293 295 298 298 298 298 299 299 300 299 299 300 301 299 300 300 300 300 302
302 301 300 299 298 298 298 298 298 297 296 296 295 294 293 292 291 291 291 290 290 291 291 292 293 293 295 296 296 296 296 296 296 297 296 295 295 295 296 297 297 298 299
302 301 301 301 300 299 299 299 298 298 298 297 296 295 293 292 291 291 290 289 289 290 290 291 291 292 292 293 294 295 295 295 294 294 294 294 294 294 294 295 296 297 298
303 302 301 300 300 299 299 299 299 299 299 298 297 296 294 291 290 290 289 289 289 290 290 290 290 291 291 292 292 292 292 292 292 293 292 292 293 294 295 295 296 297 298

GFSGL_925_thetae_117.txt.gz
Theta_e
349 348 348 348 349 345 346 347 348 349 350 349 349 348 349 351 351 349 349 352 352 352 352 353 354 348 354 354 354 353 353 353 350 348 352 351 352 355 353 348 347 343 343
347 347 349 348 348 349 348 346 347 348 348 349 349 348 349 348 349 348 347 351 353 353 353 354 354 351 353 354 353 354 354 355 354 355 355 353 355 353 353 349 349 345 346
348 349 349 348 348 351 352 349 347 348 349 348 347 347 349 349 349 349 348 351 351 351 354 354 354 353 355 353 354 354 354 355 356 355 355 355 355 355 353 353 353 352 348
344 341 342 341 341 342 345 351 350 349 348 350 348 348 347 343 348 350 350 349 349 349 349 351 349 349 350 352 352 353 352 351 353 355 355 353 355 355 354 353 352 351 352
340 340 342 343 342 342 343 346 350 351 351 351 350 349 349 348 347 348 349 349 350 350 352 351 351 350 350 350 352 350 354 350 350 351 351 352 351 352 353 352 352 351 350
336 337 340 339 340 342 344 346 348 349 350 350 351 353 355 353 351 350 350 350 349 350 351 352 349 351 351 351 351 351 352 353 356 352 353 353 355 353 350 350 349 348 346
334 335 337 340 337 339 341 342 342 344 346 347 347 348 349 349 350 352 352 352 352 355 356 356 355 352 352 354 352 349 350 350 352 352 354 355 354 353 354 353 352 354 353
329 329 331 335 332 333 335 336 336 337 339 340 341 342 344 343 344 344 346 350 351 352 353 353 353 354 354 352 353 354 354 354 352 351 351 353 354 355 355 354 354 353 353
320 320 322 327 326 326 327 330 331 333 334 335 337 339 340 340 340 341 342 343 348 348 349 348 349 353 351 350 350 353 354 354 352 351 351 351 351 351 350 349 353 354 353
316 316 316 317 319 319 320 322 324 326 328 332 335 335 337 328 326 330 334 336 335 339 343 343 344 345 345 344 344 344 351 352 351 351 351 353 353 353 351 351 351 353 352
314 314 314 314 315 316 316 318 320 322 325 327 329 328 330 329 325 324 323 325 327 328 328 328 328 323 324 324 327 328 329 327 333 337 343 346 347 348 349 350 352 351 350
313 313 313 313 314 314 314 315 316 316 317 318 319 320 319 319 318 317 318 320 321 322 327 326 325 323 324 325 325 324 323 322 330 332 334 336 338 340 341 344 346 348 349
311 311 312 312 312 312 313 313 313 314 316 317 318 318 318 317 315 316 316 316 317 319 321 321 321 321 322 324 322 325 329 333 334 334 335 336 338 339 342 343 344 346 348
309 309 309 309 309 309 309 309 310 312 313 314 314 315 315 315 311 311 313 315 316 316 317 318 319 320 321 320 322 325 329 331 331 332 331 329 331 331 332 334 336 340 343
307 308 307 307 307 307 306 306 308 306 308 310 311 311 312 311 307 307 309 311 312 313 314 319 319 320 321 322 323 325 328 328 325 323 324 325 324 324 325 326 328 330 337
307 306 306 305 305 305 305 304 304 304 303 303 303 305 307 304 304 305 307 308 309 310 313 316 317 317 318 319 321 322 324 325 324 323 323 321 321 322 321 322 323 325 327
306 305 304 304 303 303 304 304 304 301 299 299 300 300 301 300 299 299 301 303 305 308 312 313 315 316 317 318 319 321 322 323 321 321 321 320 321 320 319 320 320 321 322
306 303 303 302 302 302 302 301 301 301 301 301 299 297 296 296 297 297 298 303 306 307 308 311 314 315 315 315 316 316 316 316 316 318 317 317 318 318 318 319 319 319 319
304 303 302 301 300 300 300 300 300 300 300 299 299 299 297 296 297 298 299 302 302 305 306 308 308 310 311 312 312 312 312 312 311 313 315 315 313 311 312 314 315 315 315
303 302 301 300 299 300 300 300 299 299 299 299 298 297 296 298 298 298 298 299 300 300 301 301 302 304 306 309 309 310 310 310 310 310 310 310 311 310 309 309 311 311 311
303 301 299 300 300 300 300 300 299 299 299 298 298 296 294 296 297 297 297 297 297 298 298 298 298 299 301 301 302 303 304 305 306 306 307 307 307 306 306 306 306 306 308
302 302 300 300 300 300 300 299 299 299 299 298 298 297 295 296 296 296 296 295 294 294 294 295 296 296 297 297 298 299 300 300 301 302 302 303 303 303 303 302 302 303 303
302 301 300 300 300 300 299 299 299 299 299 299 298 297 297 296 296 295 295 294 293 292 292 293 293 294 294 294 295 296 297 298 298 297 297 297 297 297 298 299 299 299 300
303 302 301 301 300 300 301 301 300 299 299 300 299 298 298 297 296 295 294 294 292 291 291 291 291 291 291 292 292 293 295 295 295 295 296 295 295 295 295 295 296 297 298
302 302 302 301 301 301 301 300 300 300 301 300 300 299 299 298 297 295 294 293 292 291 291 290 290 290 290 290 291 292 292 292 292 292 292 292 291 291 292 292 293 294 296
303 301 302 302 302 302 302 301 301 301 301 301 300 300 299 298 297 296 294 293 291 290 289 289 289 289 289 289 290 290 290 290 290 291 291 291 291 291 291 292 293 295 296